<?xml version="1.0" encoding="UTF-8" standalone="no" ?>
<gpx xmlns="http://www.topografix.com/GPX/1/1" xmlns:xsi="http://www.w3.org/2001/XMLSchema-instance" xsi:schemaLocation="http://www.topografix.com/GPX/1/1 http://www.topografix.com/GPX/1/1/gpx.xsd" version="1.1" creator="VisuGPX - https://www.visugpx.com">
  <metadata>
    <name>nieul sept 2018</name>
    <desc><![CDATA[une belle rando avec des chemins variés . Aucune difficulté particuliére a signaler.]]></desc>
  </metadata>
  <trk>
    <name><![CDATA[2018-09-30 11-22-25]]></name>
    <trkseg>
      <trkpt lat="45.92375" lon="1.17159">
        <ele>310.16</ele>
        <time>2018-09-30T06:56:12Z</time>
      </trkpt>
      <trkpt lat="45.92375" lon="1.1716">
        <ele>310.16</ele>
        <time>2018-09-30T06:56:14Z</time>
      </trkpt>
      <trkpt lat="45.92379" lon="1.17141">
        <ele>310.16</ele>
        <time>2018-09-30T06:59:02Z</time>
      </trkpt>
      <trkpt lat="45.92382" lon="1.17121">
        <ele>310.16</ele>
        <time>2018-09-30T06:59:10Z</time>
      </trkpt>
      <trkpt lat="45.9238" lon="1.17118">
        <ele>310.16</ele>
        <time>2018-09-30T06:59:13Z</time>
      </trkpt>
      <trkpt lat="45.92377" lon="1.17116">
        <ele>310.64</ele>
        <time>2018-09-30T06:59:14Z</time>
      </trkpt>
      <trkpt lat="45.92375" lon="1.17114">
        <ele>310.64</ele>
        <time>2018-09-30T06:59:15Z</time>
      </trkpt>
      <trkpt lat="45.92374" lon="1.17112">
        <ele>310.64</ele>
        <time>2018-09-30T06:59:16Z</time>
      </trkpt>
      <trkpt lat="45.92339" lon="1.17089">
        <ele>311.6</ele>
        <time>2018-09-30T06:59:27Z</time>
      </trkpt>
      <trkpt lat="45.92295" lon="1.1707">
        <ele>312.57</ele>
        <time>2018-09-30T06:59:43Z</time>
      </trkpt>
      <trkpt lat="45.92265" lon="1.1705">
        <ele>314.97</ele>
        <time>2018-09-30T06:59:56Z</time>
      </trkpt>
      <trkpt lat="45.92272" lon="1.17019">
        <ele>316.41</ele>
        <time>2018-09-30T07:00:05Z</time>
      </trkpt>
      <trkpt lat="45.92274" lon="1.17007">
        <ele>317.37</ele>
        <time>2018-09-30T07:00:08Z</time>
      </trkpt>
      <trkpt lat="45.92275" lon="1.17004">
        <ele>317.37</ele>
        <time>2018-09-30T07:00:09Z</time>
      </trkpt>
      <trkpt lat="45.92275" lon="1.17002">
        <ele>317.37</ele>
        <time>2018-09-30T07:00:10Z</time>
      </trkpt>
      <trkpt lat="45.92274" lon="1.16999">
        <ele>317.37</ele>
        <time>2018-09-30T07:00:11Z</time>
      </trkpt>
      <trkpt lat="45.92273" lon="1.16998">
        <ele>317.37</ele>
        <time>2018-09-30T07:00:12Z</time>
      </trkpt>
      <trkpt lat="45.92272" lon="1.16994">
        <ele>317.37</ele>
        <time>2018-09-30T07:00:17Z</time>
      </trkpt>
      <trkpt lat="45.92257" lon="1.16978">
        <ele>317.37</ele>
        <time>2018-09-30T07:00:25Z</time>
      </trkpt>
      <trkpt lat="45.92254" lon="1.16974">
        <ele>317.37</ele>
        <time>2018-09-30T07:00:26Z</time>
      </trkpt>
      <trkpt lat="45.92252" lon="1.16969">
        <ele>317.37</ele>
        <time>2018-09-30T07:00:27Z</time>
      </trkpt>
      <trkpt lat="45.92252" lon="1.16963">
        <ele>317.37</ele>
        <time>2018-09-30T07:00:28Z</time>
      </trkpt>
      <trkpt lat="45.92252" lon="1.16956">
        <ele>317.37</ele>
        <time>2018-09-30T07:00:29Z</time>
      </trkpt>
      <trkpt lat="45.92251" lon="1.16949">
        <ele>317.37</ele>
        <time>2018-09-30T07:00:30Z</time>
      </trkpt>
      <trkpt lat="45.9225" lon="1.16943">
        <ele>317.37</ele>
        <time>2018-09-30T07:00:31Z</time>
      </trkpt>
      <trkpt lat="45.9225" lon="1.16939">
        <ele>317.37</ele>
        <time>2018-09-30T07:00:32Z</time>
      </trkpt>
      <trkpt lat="45.92246" lon="1.16923">
        <ele>316.89</ele>
        <time>2018-09-30T07:00:35Z</time>
      </trkpt>
      <trkpt lat="45.92245" lon="1.16918">
        <ele>316.89</ele>
        <time>2018-09-30T07:00:36Z</time>
      </trkpt>
      <trkpt lat="45.92244" lon="1.16913">
        <ele>316.89</ele>
        <time>2018-09-30T07:00:37Z</time>
      </trkpt>
      <trkpt lat="45.92242" lon="1.16895">
        <ele>316.89</ele>
        <time>2018-09-30T07:00:40Z</time>
      </trkpt>
      <trkpt lat="45.92242" lon="1.1689">
        <ele>316.89</ele>
        <time>2018-09-30T07:00:41Z</time>
      </trkpt>
      <trkpt lat="45.92242" lon="1.16884">
        <ele>316.89</ele>
        <time>2018-09-30T07:00:42Z</time>
      </trkpt>
      <trkpt lat="45.92242" lon="1.16879">
        <ele>316.89</ele>
        <time>2018-09-30T07:00:43Z</time>
      </trkpt>
      <trkpt lat="45.92242" lon="1.16874">
        <ele>317.37</ele>
        <time>2018-09-30T07:00:44Z</time>
      </trkpt>
      <trkpt lat="45.9224" lon="1.16859">
        <ele>318.33</ele>
        <time>2018-09-30T07:00:52Z</time>
      </trkpt>
      <trkpt lat="45.92241" lon="1.16854">
        <ele>318.33</ele>
        <time>2018-09-30T07:00:54Z</time>
      </trkpt>
      <trkpt lat="45.92241" lon="1.16849">
        <ele>318.81</ele>
        <time>2018-09-30T07:00:55Z</time>
      </trkpt>
      <trkpt lat="45.92243" lon="1.1684">
        <ele>318.81</ele>
        <time>2018-09-30T07:00:56Z</time>
      </trkpt>
      <trkpt lat="45.92244" lon="1.16836">
        <ele>319.3</ele>
        <time>2018-09-30T07:00:57Z</time>
      </trkpt>
      <trkpt lat="45.92246" lon="1.16834">
        <ele>319.78</ele>
        <time>2018-09-30T07:00:58Z</time>
      </trkpt>
      <trkpt lat="45.92246" lon="1.16834">
        <ele>319.78</ele>
        <time>2018-09-30T07:00:59Z</time>
      </trkpt>
      <trkpt lat="45.92249" lon="1.16833">
        <ele>320.74</ele>
        <time>2018-09-30T07:01:01Z</time>
      </trkpt>
      <trkpt lat="45.9225" lon="1.16829">
        <ele>321.22</ele>
        <time>2018-09-30T07:01:04Z</time>
      </trkpt>
      <trkpt lat="45.92253" lon="1.16822">
        <ele>322.66</ele>
        <time>2018-09-30T07:01:08Z</time>
      </trkpt>
      <trkpt lat="45.9227" lon="1.16805">
        <ele>324.58</ele>
        <time>2018-09-30T07:01:18Z</time>
      </trkpt>
      <trkpt lat="45.9228" lon="1.16782">
        <ele>326.99</ele>
        <time>2018-09-30T07:01:26Z</time>
      </trkpt>
      <trkpt lat="45.92273" lon="1.16781">
        <ele>327.95</ele>
        <time>2018-09-30T07:01:30Z</time>
      </trkpt>
      <trkpt lat="45.92243" lon="1.16793">
        <ele>330.83</ele>
        <time>2018-09-30T07:01:46Z</time>
      </trkpt>
      <trkpt lat="45.92226" lon="1.16807">
        <ele>334.2</ele>
        <time>2018-09-30T07:01:57Z</time>
      </trkpt>
      <trkpt lat="45.92198" lon="1.1682">
        <ele>336.12</ele>
        <time>2018-09-30T07:02:09Z</time>
      </trkpt>
      <trkpt lat="45.92158" lon="1.1682">
        <ele>337.08</ele>
        <time>2018-09-30T07:02:25Z</time>
      </trkpt>
      <trkpt lat="45.92119" lon="1.16823">
        <ele>337.56</ele>
        <time>2018-09-30T07:02:38Z</time>
      </trkpt>
      <trkpt lat="45.92074" lon="1.16822">
        <ele>337.08</ele>
        <time>2018-09-30T07:02:53Z</time>
      </trkpt>
      <trkpt lat="45.92033" lon="1.16818">
        <ele>337.08</ele>
        <time>2018-09-30T07:03:06Z</time>
      </trkpt>
      <trkpt lat="45.91971" lon="1.16822">
        <ele>338.04</ele>
        <time>2018-09-30T07:03:25Z</time>
      </trkpt>
      <trkpt lat="45.91963" lon="1.16822">
        <ele>338.04</ele>
        <time>2018-09-30T07:03:27Z</time>
      </trkpt>
      <trkpt lat="45.91959" lon="1.16821">
        <ele>338.04</ele>
        <time>2018-09-30T07:03:28Z</time>
      </trkpt>
      <trkpt lat="45.91955" lon="1.1682">
        <ele>338.52</ele>
        <time>2018-09-30T07:03:29Z</time>
      </trkpt>
      <trkpt lat="45.91951" lon="1.16817">
        <ele>338.52</ele>
        <time>2018-09-30T07:03:30Z</time>
      </trkpt>
      <trkpt lat="45.91949" lon="1.16816">
        <ele>338.52</ele>
        <time>2018-09-30T07:03:31Z</time>
      </trkpt>
      <trkpt lat="45.91946" lon="1.16814">
        <ele>338.52</ele>
        <time>2018-09-30T07:03:32Z</time>
      </trkpt>
      <trkpt lat="45.91903" lon="1.16798">
        <ele>339.48</ele>
        <time>2018-09-30T07:03:44Z</time>
      </trkpt>
      <trkpt lat="45.91835" lon="1.16777">
        <ele>340.92</ele>
        <time>2018-09-30T07:04:00Z</time>
      </trkpt>
      <trkpt lat="45.91726" lon="1.16786">
        <ele>341.41</ele>
        <time>2018-09-30T07:04:22Z</time>
      </trkpt>
      <trkpt lat="45.91638" lon="1.16802">
        <ele>342.85</ele>
        <time>2018-09-30T07:04:41Z</time>
      </trkpt>
      <trkpt lat="45.91635" lon="1.16801">
        <ele>342.85</ele>
        <time>2018-09-30T07:04:42Z</time>
      </trkpt>
      <trkpt lat="45.91631" lon="1.16799">
        <ele>343.33</ele>
        <time>2018-09-30T07:04:43Z</time>
      </trkpt>
      <trkpt lat="45.91628" lon="1.16797">
        <ele>343.33</ele>
        <time>2018-09-30T07:04:44Z</time>
      </trkpt>
      <trkpt lat="45.91624" lon="1.16796">
        <ele>343.33</ele>
        <time>2018-09-30T07:04:45Z</time>
      </trkpt>
      <trkpt lat="45.91621" lon="1.16795">
        <ele>343.81</ele>
        <time>2018-09-30T07:04:46Z</time>
      </trkpt>
      <trkpt lat="45.91618" lon="1.16794">
        <ele>343.81</ele>
        <time>2018-09-30T07:04:47Z</time>
      </trkpt>
      <trkpt lat="45.91615" lon="1.16794">
        <ele>344.29</ele>
        <time>2018-09-30T07:04:48Z</time>
      </trkpt>
      <trkpt lat="45.91612" lon="1.16794">
        <ele>344.29</ele>
        <time>2018-09-30T07:04:49Z</time>
      </trkpt>
      <trkpt lat="45.91583" lon="1.16795">
        <ele>347.65</ele>
        <time>2018-09-30T07:04:59Z</time>
      </trkpt>
      <trkpt lat="45.91561" lon="1.16801">
        <ele>351.02</ele>
        <time>2018-09-30T07:05:07Z</time>
      </trkpt>
      <trkpt lat="45.91539" lon="1.16812">
        <ele>353.9</ele>
        <time>2018-09-30T07:05:17Z</time>
      </trkpt>
      <trkpt lat="45.91535" lon="1.16814">
        <ele>354.38</ele>
        <time>2018-09-30T07:05:19Z</time>
      </trkpt>
      <trkpt lat="45.91511" lon="1.16831">
        <ele>355.83</ele>
        <time>2018-09-30T07:05:30Z</time>
      </trkpt>
      <trkpt lat="45.91483" lon="1.16839">
        <ele>359.19</ele>
        <time>2018-09-30T07:05:43Z</time>
      </trkpt>
      <trkpt lat="45.91459" lon="1.16841">
        <ele>361.59</ele>
        <time>2018-09-30T07:05:55Z</time>
      </trkpt>
      <trkpt lat="45.91437" lon="1.16846">
        <ele>364.96</ele>
        <time>2018-09-30T07:06:08Z</time>
      </trkpt>
      <trkpt lat="45.91436" lon="1.16847">
        <ele>364.96</ele>
        <time>2018-09-30T07:06:09Z</time>
      </trkpt>
      <trkpt lat="45.91412" lon="1.16855">
        <ele>367.36</ele>
        <time>2018-09-30T07:06:21Z</time>
      </trkpt>
      <trkpt lat="45.91392" lon="1.16874">
        <ele>369.76</ele>
        <time>2018-09-30T07:06:32Z</time>
      </trkpt>
      <trkpt lat="45.91365" lon="1.16886">
        <ele>372.17</ele>
        <time>2018-09-30T07:06:45Z</time>
      </trkpt>
      <trkpt lat="45.91341" lon="1.16896">
        <ele>374.09</ele>
        <time>2018-09-30T07:06:58Z</time>
      </trkpt>
      <trkpt lat="45.9131" lon="1.16905">
        <ele>376.49</ele>
        <time>2018-09-30T07:07:11Z</time>
      </trkpt>
      <trkpt lat="45.91286" lon="1.16891">
        <ele>378.42</ele>
        <time>2018-09-30T07:07:22Z</time>
      </trkpt>
      <trkpt lat="45.91263" lon="1.16881">
        <ele>380.34</ele>
        <time>2018-09-30T07:07:33Z</time>
      </trkpt>
      <trkpt lat="45.9126" lon="1.1688">
        <ele>380.34</ele>
        <time>2018-09-30T07:07:34Z</time>
      </trkpt>
      <trkpt lat="45.91258" lon="1.1688">
        <ele>380.82</ele>
        <time>2018-09-30T07:07:35Z</time>
      </trkpt>
      <trkpt lat="45.91256" lon="1.1688">
        <ele>380.82</ele>
        <time>2018-09-30T07:07:36Z</time>
      </trkpt>
      <trkpt lat="45.91253" lon="1.16879">
        <ele>380.82</ele>
        <time>2018-09-30T07:07:37Z</time>
      </trkpt>
      <trkpt lat="45.9125" lon="1.16878">
        <ele>380.82</ele>
        <time>2018-09-30T07:07:38Z</time>
      </trkpt>
      <trkpt lat="45.91247" lon="1.16877">
        <ele>381.3</ele>
        <time>2018-09-30T07:07:39Z</time>
      </trkpt>
      <trkpt lat="45.91199" lon="1.1686">
        <ele>380.82</ele>
        <time>2018-09-30T07:07:55Z</time>
      </trkpt>
      <trkpt lat="45.91166" lon="1.16844">
        <ele>379.38</ele>
        <time>2018-09-30T07:08:06Z</time>
      </trkpt>
      <trkpt lat="45.91145" lon="1.16837">
        <ele>379.38</ele>
        <time>2018-09-30T07:08:13Z</time>
      </trkpt>
      <trkpt lat="45.91141" lon="1.16839">
        <ele>378.9</ele>
        <time>2018-09-30T07:08:14Z</time>
      </trkpt>
      <trkpt lat="45.91137" lon="1.16839">
        <ele>378.9</ele>
        <time>2018-09-30T07:08:15Z</time>
      </trkpt>
      <trkpt lat="45.91133" lon="1.1684">
        <ele>378.9</ele>
        <time>2018-09-30T07:08:16Z</time>
      </trkpt>
      <trkpt lat="45.91129" lon="1.16841">
        <ele>378.9</ele>
        <time>2018-09-30T07:08:17Z</time>
      </trkpt>
      <trkpt lat="45.91126" lon="1.16843">
        <ele>378.9</ele>
        <time>2018-09-30T07:08:18Z</time>
      </trkpt>
      <trkpt lat="45.91121" lon="1.16845">
        <ele>378.9</ele>
        <time>2018-09-30T07:08:19Z</time>
      </trkpt>
      <trkpt lat="45.91118" lon="1.16847">
        <ele>378.9</ele>
        <time>2018-09-30T07:08:20Z</time>
      </trkpt>
      <trkpt lat="45.91114" lon="1.16847">
        <ele>378.9</ele>
        <time>2018-09-30T07:08:21Z</time>
      </trkpt>
      <trkpt lat="45.9111" lon="1.16848">
        <ele>378.9</ele>
        <time>2018-09-30T07:08:22Z</time>
      </trkpt>
      <trkpt lat="45.91081" lon="1.16862">
        <ele>378.42</ele>
        <time>2018-09-30T07:08:33Z</time>
      </trkpt>
      <trkpt lat="45.9106" lon="1.16889">
        <ele>381.3</ele>
        <time>2018-09-30T07:08:45Z</time>
      </trkpt>
      <trkpt lat="45.91056" lon="1.16894">
        <ele>381.78</ele>
        <time>2018-09-30T07:08:48Z</time>
      </trkpt>
      <trkpt lat="45.91054" lon="1.16895">
        <ele>382.26</ele>
        <time>2018-09-30T07:08:49Z</time>
      </trkpt>
      <trkpt lat="45.91033" lon="1.16896">
        <ele>384.66</ele>
        <time>2018-09-30T07:09:04Z</time>
      </trkpt>
      <trkpt lat="45.91032" lon="1.16895">
        <ele>386.11</ele>
        <time>2018-09-30T07:09:05Z</time>
      </trkpt>
      <trkpt lat="45.9102" lon="1.16877">
        <ele>388.51</ele>
        <time>2018-09-30T07:09:16Z</time>
      </trkpt>
      <trkpt lat="45.91008" lon="1.16851">
        <ele>390.43</ele>
        <time>2018-09-30T07:09:27Z</time>
      </trkpt>
      <trkpt lat="45.90987" lon="1.16811">
        <ele>391.39</ele>
        <time>2018-09-30T07:09:38Z</time>
      </trkpt>
      <trkpt lat="45.90977" lon="1.16792">
        <ele>391.39</ele>
        <time>2018-09-30T07:09:42Z</time>
      </trkpt>
      <trkpt lat="45.9098" lon="1.16759">
        <ele>389.95</ele>
        <time>2018-09-30T07:09:47Z</time>
      </trkpt>
      <trkpt lat="45.91002" lon="1.16741">
        <ele>387.07</ele>
        <time>2018-09-30T07:09:52Z</time>
      </trkpt>
      <trkpt lat="45.91035" lon="1.16687">
        <ele>383.22</ele>
        <time>2018-09-30T07:10:01Z</time>
      </trkpt>
      <trkpt lat="45.91043" lon="1.16673">
        <ele>382.74</ele>
        <time>2018-09-30T07:10:03Z</time>
      </trkpt>
      <trkpt lat="45.91054" lon="1.16621">
        <ele>380.82</ele>
        <time>2018-09-30T07:10:09Z</time>
      </trkpt>
      <trkpt lat="45.91052" lon="1.16561">
        <ele>375.53</ele>
        <time>2018-09-30T07:10:15Z</time>
      </trkpt>
      <trkpt lat="45.91053" lon="1.16551">
        <ele>375.53</ele>
        <time>2018-09-30T07:10:16Z</time>
      </trkpt>
      <trkpt lat="45.91046" lon="1.16493">
        <ele>372.17</ele>
        <time>2018-09-30T07:10:21Z</time>
      </trkpt>
      <trkpt lat="45.91041" lon="1.16469">
        <ele>371.69</ele>
        <time>2018-09-30T07:10:23Z</time>
      </trkpt>
      <trkpt lat="45.91037" lon="1.16448">
        <ele>370.24</ele>
        <time>2018-09-30T07:10:25Z</time>
      </trkpt>
      <trkpt lat="45.91034" lon="1.16408">
        <ele>367.36</ele>
        <time>2018-09-30T07:10:30Z</time>
      </trkpt>
      <trkpt lat="45.91024" lon="1.16349">
        <ele>364.48</ele>
        <time>2018-09-30T07:10:38Z</time>
      </trkpt>
      <trkpt lat="45.91023" lon="1.16316">
        <ele>360.63</ele>
        <time>2018-09-30T07:10:43Z</time>
      </trkpt>
      <trkpt lat="45.91021" lon="1.16311">
        <ele>360.63</ele>
        <time>2018-09-30T07:10:44Z</time>
      </trkpt>
      <trkpt lat="45.91019" lon="1.163">
        <ele>359.19</ele>
        <time>2018-09-30T07:10:47Z</time>
      </trkpt>
      <trkpt lat="45.91016" lon="1.16281">
        <ele>358.23</ele>
        <time>2018-09-30T07:10:52Z</time>
      </trkpt>
      <trkpt lat="45.91019" lon="1.16261">
        <ele>357.27</ele>
        <time>2018-09-30T07:11:41Z</time>
      </trkpt>
      <trkpt lat="45.91023" lon="1.16252">
        <ele>357.27</ele>
        <time>2018-09-30T07:11:43Z</time>
      </trkpt>
      <trkpt lat="45.91024" lon="1.16211">
        <ele>356.31</ele>
        <time>2018-09-30T07:11:50Z</time>
      </trkpt>
      <trkpt lat="45.90998" lon="1.16203">
        <ele>353.42</ele>
        <time>2018-09-30T07:11:59Z</time>
      </trkpt>
      <trkpt lat="45.90974" lon="1.16234">
        <ele>354.86</ele>
        <time>2018-09-30T07:12:11Z</time>
      </trkpt>
      <trkpt lat="45.90954" lon="1.16236">
        <ele>356.79</ele>
        <time>2018-09-30T07:12:20Z</time>
      </trkpt>
      <trkpt lat="45.90932" lon="1.1622">
        <ele>360.15</ele>
        <time>2018-09-30T07:12:33Z</time>
      </trkpt>
      <trkpt lat="45.90889" lon="1.16201">
        <ele>360.63</ele>
        <time>2018-09-30T07:12:44Z</time>
      </trkpt>
      <trkpt lat="45.90874" lon="1.16192">
        <ele>360.63</ele>
        <time>2018-09-30T07:12:48Z</time>
      </trkpt>
      <trkpt lat="45.90873" lon="1.16171">
        <ele>360.63</ele>
        <time>2018-09-30T07:12:52Z</time>
      </trkpt>
      <trkpt lat="45.90868" lon="1.16096">
        <ele>361.59</ele>
        <time>2018-09-30T07:13:06Z</time>
      </trkpt>
      <trkpt lat="45.90867" lon="1.16087">
        <ele>362.55</ele>
        <time>2018-09-30T07:13:09Z</time>
      </trkpt>
      <trkpt lat="45.90869" lon="1.16083">
        <ele>362.55</ele>
        <time>2018-09-30T07:13:10Z</time>
      </trkpt>
      <trkpt lat="45.90871" lon="1.1608">
        <ele>363.04</ele>
        <time>2018-09-30T07:13:11Z</time>
      </trkpt>
      <trkpt lat="45.9089" lon="1.1606">
        <ele>363.04</ele>
        <time>2018-09-30T07:13:17Z</time>
      </trkpt>
      <trkpt lat="45.90899" lon="1.16055">
        <ele>363.04</ele>
        <time>2018-09-30T07:13:19Z</time>
      </trkpt>
      <trkpt lat="45.90903" lon="1.16053">
        <ele>363.04</ele>
        <time>2018-09-30T07:13:20Z</time>
      </trkpt>
      <trkpt lat="45.90906" lon="1.16052">
        <ele>363.04</ele>
        <time>2018-09-30T07:13:21Z</time>
      </trkpt>
      <trkpt lat="45.90909" lon="1.16052">
        <ele>363.04</ele>
        <time>2018-09-30T07:13:22Z</time>
      </trkpt>
      <trkpt lat="45.90913" lon="1.16052">
        <ele>363.52</ele>
        <time>2018-09-30T07:13:23Z</time>
      </trkpt>
      <trkpt lat="45.90916" lon="1.16053">
        <ele>363.52</ele>
        <time>2018-09-30T07:13:24Z</time>
      </trkpt>
      <trkpt lat="45.90919" lon="1.1605">
        <ele>363.52</ele>
        <time>2018-09-30T07:13:25Z</time>
      </trkpt>
      <trkpt lat="45.90921" lon="1.16045">
        <ele>363.52</ele>
        <time>2018-09-30T07:13:26Z</time>
      </trkpt>
      <trkpt lat="45.90923" lon="1.1604">
        <ele>363.52</ele>
        <time>2018-09-30T07:13:27Z</time>
      </trkpt>
      <trkpt lat="45.90925" lon="1.16034">
        <ele>363.52</ele>
        <time>2018-09-30T07:13:28Z</time>
      </trkpt>
      <trkpt lat="45.90925" lon="1.16027">
        <ele>363.52</ele>
        <time>2018-09-30T07:13:29Z</time>
      </trkpt>
      <trkpt lat="45.90926" lon="1.1602">
        <ele>364</ele>
        <time>2018-09-30T07:13:30Z</time>
      </trkpt>
      <trkpt lat="45.90926" lon="1.16014">
        <ele>364</ele>
        <time>2018-09-30T07:13:31Z</time>
      </trkpt>
      <trkpt lat="45.90926" lon="1.16008">
        <ele>364</ele>
        <time>2018-09-30T07:13:32Z</time>
      </trkpt>
      <trkpt lat="45.90925" lon="1.16002">
        <ele>364.48</ele>
        <time>2018-09-30T07:13:33Z</time>
      </trkpt>
      <trkpt lat="45.90924" lon="1.15997">
        <ele>364.48</ele>
        <time>2018-09-30T07:13:34Z</time>
      </trkpt>
      <trkpt lat="45.90922" lon="1.15993">
        <ele>364.48</ele>
        <time>2018-09-30T07:13:35Z</time>
      </trkpt>
      <trkpt lat="45.90919" lon="1.15989">
        <ele>364.48</ele>
        <time>2018-09-30T07:13:36Z</time>
      </trkpt>
      <trkpt lat="45.90916" lon="1.15985">
        <ele>364.48</ele>
        <time>2018-09-30T07:13:37Z</time>
      </trkpt>
      <trkpt lat="45.9091" lon="1.15976">
        <ele>364.48</ele>
        <time>2018-09-30T07:13:39Z</time>
      </trkpt>
      <trkpt lat="45.90906" lon="1.15973">
        <ele>364.48</ele>
        <time>2018-09-30T07:13:40Z</time>
      </trkpt>
      <trkpt lat="45.90901" lon="1.15971">
        <ele>364.48</ele>
        <time>2018-09-30T07:13:41Z</time>
      </trkpt>
      <trkpt lat="45.90897" lon="1.1597">
        <ele>364.48</ele>
        <time>2018-09-30T07:13:42Z</time>
      </trkpt>
      <trkpt lat="45.90892" lon="1.1597">
        <ele>364.48</ele>
        <time>2018-09-30T07:13:43Z</time>
      </trkpt>
      <trkpt lat="45.90886" lon="1.15968">
        <ele>364.48</ele>
        <time>2018-09-30T07:13:44Z</time>
      </trkpt>
      <trkpt lat="45.90882" lon="1.15965">
        <ele>364.48</ele>
        <time>2018-09-30T07:13:45Z</time>
      </trkpt>
      <trkpt lat="45.90877" lon="1.15961">
        <ele>364.48</ele>
        <time>2018-09-30T07:13:46Z</time>
      </trkpt>
      <trkpt lat="45.90838" lon="1.15932">
        <ele>364</ele>
        <time>2018-09-30T07:13:58Z</time>
      </trkpt>
      <trkpt lat="45.90834" lon="1.1593">
        <ele>364</ele>
        <time>2018-09-30T07:13:59Z</time>
      </trkpt>
      <trkpt lat="45.90823" lon="1.15923">
        <ele>364</ele>
        <time>2018-09-30T07:14:02Z</time>
      </trkpt>
      <trkpt lat="45.90806" lon="1.15916">
        <ele>364</ele>
        <time>2018-09-30T07:14:06Z</time>
      </trkpt>
      <trkpt lat="45.90766" lon="1.15897">
        <ele>364</ele>
        <time>2018-09-30T07:14:17Z</time>
      </trkpt>
      <trkpt lat="45.90768" lon="1.15862">
        <ele>364.96</ele>
        <time>2018-09-30T07:14:26Z</time>
      </trkpt>
      <trkpt lat="45.90773" lon="1.15843">
        <ele>364.96</ele>
        <time>2018-09-30T07:14:29Z</time>
      </trkpt>
      <trkpt lat="45.90772" lon="1.15791">
        <ele>364.48</ele>
        <time>2018-09-30T07:14:37Z</time>
      </trkpt>
      <trkpt lat="45.90774" lon="1.15773">
        <ele>364</ele>
        <time>2018-09-30T07:14:40Z</time>
      </trkpt>
      <trkpt lat="45.90774" lon="1.15758">
        <ele>364</ele>
        <time>2018-09-30T07:14:42Z</time>
      </trkpt>
      <trkpt lat="45.90763" lon="1.15707">
        <ele>363.52</ele>
        <time>2018-09-30T07:14:47Z</time>
      </trkpt>
      <trkpt lat="45.90748" lon="1.15676">
        <ele>359.19</ele>
        <time>2018-09-30T07:14:53Z</time>
      </trkpt>
      <trkpt lat="45.90745" lon="1.1567">
        <ele>359.19</ele>
        <time>2018-09-30T07:14:54Z</time>
      </trkpt>
      <trkpt lat="45.90734" lon="1.15651">
        <ele>358.23</ele>
        <time>2018-09-30T07:14:57Z</time>
      </trkpt>
      <trkpt lat="45.90726" lon="1.15599">
        <ele>358.71</ele>
        <time>2018-09-30T07:15:07Z</time>
      </trkpt>
      <trkpt lat="45.90718" lon="1.15564">
        <ele>361.59</ele>
        <time>2018-09-30T07:15:19Z</time>
      </trkpt>
      <trkpt lat="45.90716" lon="1.15553">
        <ele>363.52</ele>
        <time>2018-09-30T07:15:26Z</time>
      </trkpt>
      <trkpt lat="45.90716" lon="1.15547">
        <ele>364</ele>
        <time>2018-09-30T07:15:30Z</time>
      </trkpt>
      <trkpt lat="45.90714" lon="1.15536">
        <ele>364.96</ele>
        <time>2018-09-30T07:15:36Z</time>
      </trkpt>
      <trkpt lat="45.90717" lon="1.15501">
        <ele>368.32</ele>
        <time>2018-09-30T07:15:49Z</time>
      </trkpt>
      <trkpt lat="45.90722" lon="1.15498">
        <ele>369.76</ele>
        <time>2018-09-30T07:15:53Z</time>
      </trkpt>
      <trkpt lat="45.90726" lon="1.15489">
        <ele>371.69</ele>
        <time>2018-09-30T07:16:00Z</time>
      </trkpt>
      <trkpt lat="45.90727" lon="1.15487">
        <ele>371.69</ele>
        <time>2018-09-30T07:16:01Z</time>
      </trkpt>
      <trkpt lat="45.90729" lon="1.15486">
        <ele>372.17</ele>
        <time>2018-09-30T07:16:02Z</time>
      </trkpt>
      <trkpt lat="45.90768" lon="1.15471">
        <ele>372.65</ele>
        <time>2018-09-30T07:16:15Z</time>
      </trkpt>
      <trkpt lat="45.90783" lon="1.15468">
        <ele>372.17</ele>
        <time>2018-09-30T07:16:19Z</time>
      </trkpt>
      <trkpt lat="45.90791" lon="1.15466">
        <ele>372.17</ele>
        <time>2018-09-30T07:16:21Z</time>
      </trkpt>
      <trkpt lat="45.90795" lon="1.15463">
        <ele>372.17</ele>
        <time>2018-09-30T07:16:22Z</time>
      </trkpt>
      <trkpt lat="45.90797" lon="1.15458">
        <ele>372.17</ele>
        <time>2018-09-30T07:16:23Z</time>
      </trkpt>
      <trkpt lat="45.90797" lon="1.15453">
        <ele>372.17</ele>
        <time>2018-09-30T07:16:24Z</time>
      </trkpt>
      <trkpt lat="45.90795" lon="1.15448">
        <ele>371.69</ele>
        <time>2018-09-30T07:16:25Z</time>
      </trkpt>
      <trkpt lat="45.90792" lon="1.15445">
        <ele>371.69</ele>
        <time>2018-09-30T07:16:26Z</time>
      </trkpt>
      <trkpt lat="45.90788" lon="1.15443">
        <ele>371.69</ele>
        <time>2018-09-30T07:16:27Z</time>
      </trkpt>
      <trkpt lat="45.90784" lon="1.15441">
        <ele>371.69</ele>
        <time>2018-09-30T07:16:28Z</time>
      </trkpt>
      <trkpt lat="45.90719" lon="1.15405">
        <ele>371.69</ele>
        <time>2018-09-30T07:16:42Z</time>
      </trkpt>
      <trkpt lat="45.90648" lon="1.15337">
        <ele>371.69</ele>
        <time>2018-09-30T07:16:58Z</time>
      </trkpt>
      <trkpt lat="45.90604" lon="1.15292">
        <ele>371.21</ele>
        <time>2018-09-30T07:17:07Z</time>
      </trkpt>
      <trkpt lat="45.906" lon="1.15285">
        <ele>371.21</ele>
        <time>2018-09-30T07:17:08Z</time>
      </trkpt>
      <trkpt lat="45.90597" lon="1.15277">
        <ele>371.21</ele>
        <time>2018-09-30T07:17:09Z</time>
      </trkpt>
      <trkpt lat="45.90595" lon="1.15269">
        <ele>370.73</ele>
        <time>2018-09-30T07:17:10Z</time>
      </trkpt>
      <trkpt lat="45.90593" lon="1.15262">
        <ele>370.73</ele>
        <time>2018-09-30T07:17:11Z</time>
      </trkpt>
      <trkpt lat="45.90591" lon="1.15254">
        <ele>370.73</ele>
        <time>2018-09-30T07:17:12Z</time>
      </trkpt>
      <trkpt lat="45.90581" lon="1.15207">
        <ele>370.24</ele>
        <time>2018-09-30T07:17:18Z</time>
      </trkpt>
      <trkpt lat="45.90582" lon="1.152">
        <ele>370.24</ele>
        <time>2018-09-30T07:17:19Z</time>
      </trkpt>
      <trkpt lat="45.90584" lon="1.15194">
        <ele>370.24</ele>
        <time>2018-09-30T07:17:20Z</time>
      </trkpt>
      <trkpt lat="45.90588" lon="1.15191">
        <ele>370.24</ele>
        <time>2018-09-30T07:17:21Z</time>
      </trkpt>
      <trkpt lat="45.90593" lon="1.1519">
        <ele>370.24</ele>
        <time>2018-09-30T07:17:22Z</time>
      </trkpt>
      <trkpt lat="45.90598" lon="1.1519">
        <ele>370.24</ele>
        <time>2018-09-30T07:17:23Z</time>
      </trkpt>
      <trkpt lat="45.90603" lon="1.1519">
        <ele>370.24</ele>
        <time>2018-09-30T07:17:24Z</time>
      </trkpt>
      <trkpt lat="45.90609" lon="1.15189">
        <ele>369.76</ele>
        <time>2018-09-30T07:17:25Z</time>
      </trkpt>
      <trkpt lat="45.9069" lon="1.15177">
        <ele>368.8</ele>
        <time>2018-09-30T07:17:41Z</time>
      </trkpt>
      <trkpt lat="45.90728" lon="1.15176">
        <ele>368.32</ele>
        <time>2018-09-30T07:17:49Z</time>
      </trkpt>
      <trkpt lat="45.90753" lon="1.1515">
        <ele>367.36</ele>
        <time>2018-09-30T07:17:55Z</time>
      </trkpt>
      <trkpt lat="45.90762" lon="1.15135">
        <ele>367.36</ele>
        <time>2018-09-30T07:17:57Z</time>
      </trkpt>
      <trkpt lat="45.90801" lon="1.15136">
        <ele>365.44</ele>
        <time>2018-09-30T07:18:04Z</time>
      </trkpt>
      <trkpt lat="45.90811" lon="1.15141">
        <ele>364</ele>
        <time>2018-09-30T07:18:06Z</time>
      </trkpt>
      <trkpt lat="45.9082" lon="1.15162">
        <ele>363.04</ele>
        <time>2018-09-30T07:18:10Z</time>
      </trkpt>
      <trkpt lat="45.90821" lon="1.15187">
        <ele>362.07</ele>
        <time>2018-09-30T07:18:14Z</time>
      </trkpt>
      <trkpt lat="45.90828" lon="1.15198">
        <ele>361.59</ele>
        <time>2018-09-30T07:18:16Z</time>
      </trkpt>
      <trkpt lat="45.90843" lon="1.15213">
        <ele>361.59</ele>
        <time>2018-09-30T07:18:18Z</time>
      </trkpt>
      <trkpt lat="45.90855" lon="1.15226">
        <ele>361.11</ele>
        <time>2018-09-30T07:18:20Z</time>
      </trkpt>
      <trkpt lat="45.90889" lon="1.15246">
        <ele>359.19</ele>
        <time>2018-09-30T07:18:26Z</time>
      </trkpt>
      <trkpt lat="45.90921" lon="1.15285">
        <ele>360.15</ele>
        <time>2018-09-30T07:18:37Z</time>
      </trkpt>
      <trkpt lat="45.90942" lon="1.15312">
        <ele>363.52</ele>
        <time>2018-09-30T07:18:46Z</time>
      </trkpt>
      <trkpt lat="45.90983" lon="1.15334">
        <ele>365.44</ele>
        <time>2018-09-30T07:18:57Z</time>
      </trkpt>
      <trkpt lat="45.90994" lon="1.15338">
        <ele>365.44</ele>
        <time>2018-09-30T07:18:59Z</time>
      </trkpt>
      <trkpt lat="45.90998" lon="1.1534">
        <ele>365.44</ele>
        <time>2018-09-30T07:19:00Z</time>
      </trkpt>
      <trkpt lat="45.9104" lon="1.15346">
        <ele>364</ele>
        <time>2018-09-30T07:19:07Z</time>
      </trkpt>
      <trkpt lat="45.91081" lon="1.15338">
        <ele>362.07</ele>
        <time>2018-09-30T07:19:13Z</time>
      </trkpt>
      <trkpt lat="45.91091" lon="1.15331">
        <ele>361.59</ele>
        <time>2018-09-30T07:19:15Z</time>
      </trkpt>
      <trkpt lat="45.91095" lon="1.15329">
        <ele>361.11</ele>
        <time>2018-09-30T07:19:16Z</time>
      </trkpt>
      <trkpt lat="45.91112" lon="1.15315">
        <ele>358.23</ele>
        <time>2018-09-30T07:19:21Z</time>
      </trkpt>
      <trkpt lat="45.91126" lon="1.15303">
        <ele>356.79</ele>
        <time>2018-09-30T07:19:25Z</time>
      </trkpt>
      <trkpt lat="45.91135" lon="1.15298">
        <ele>356.79</ele>
        <time>2018-09-30T07:19:27Z</time>
      </trkpt>
      <trkpt lat="45.91139" lon="1.15295">
        <ele>356.79</ele>
        <time>2018-09-30T07:19:28Z</time>
      </trkpt>
      <trkpt lat="45.91145" lon="1.15292">
        <ele>356.79</ele>
        <time>2018-09-30T07:19:29Z</time>
      </trkpt>
      <trkpt lat="45.91168" lon="1.15272">
        <ele>356.31</ele>
        <time>2018-09-30T07:19:35Z</time>
      </trkpt>
      <trkpt lat="45.91191" lon="1.15234">
        <ele>355.83</ele>
        <time>2018-09-30T07:19:45Z</time>
      </trkpt>
      <trkpt lat="45.91204" lon="1.15215">
        <ele>355.83</ele>
        <time>2018-09-30T07:19:49Z</time>
      </trkpt>
      <trkpt lat="45.91207" lon="1.15209">
        <ele>355.83</ele>
        <time>2018-09-30T07:19:50Z</time>
      </trkpt>
      <trkpt lat="45.9121" lon="1.15202">
        <ele>355.83</ele>
        <time>2018-09-30T07:19:51Z</time>
      </trkpt>
      <trkpt lat="45.91212" lon="1.15195">
        <ele>355.83</ele>
        <time>2018-09-30T07:19:52Z</time>
      </trkpt>
      <trkpt lat="45.91215" lon="1.15187">
        <ele>355.83</ele>
        <time>2018-09-30T07:19:53Z</time>
      </trkpt>
      <trkpt lat="45.91218" lon="1.15179">
        <ele>355.83</ele>
        <time>2018-09-30T07:19:54Z</time>
      </trkpt>
      <trkpt lat="45.91242" lon="1.1513">
        <ele>353.9</ele>
        <time>2018-09-30T07:20:00Z</time>
      </trkpt>
      <trkpt lat="45.91272" lon="1.15095">
        <ele>350.54</ele>
        <time>2018-09-30T07:20:05Z</time>
      </trkpt>
      <trkpt lat="45.91299" lon="1.15039">
        <ele>346.21</ele>
        <time>2018-09-30T07:20:12Z</time>
      </trkpt>
      <trkpt lat="45.91313" lon="1.15005">
        <ele>342.85</ele>
        <time>2018-09-30T07:20:17Z</time>
      </trkpt>
      <trkpt lat="45.913" lon="1.14986">
        <ele>339</ele>
        <time>2018-09-30T07:20:23Z</time>
      </trkpt>
      <trkpt lat="45.91291" lon="1.14971">
        <ele>337.08</ele>
        <time>2018-09-30T07:20:26Z</time>
      </trkpt>
      <trkpt lat="45.91278" lon="1.14939">
        <ele>333.23</ele>
        <time>2018-09-30T07:20:31Z</time>
      </trkpt>
      <trkpt lat="45.91271" lon="1.14925">
        <ele>331.79</ele>
        <time>2018-09-30T07:20:34Z</time>
      </trkpt>
      <trkpt lat="45.91256" lon="1.14917">
        <ele>328.91</ele>
        <time>2018-09-30T07:20:39Z</time>
      </trkpt>
      <trkpt lat="45.91253" lon="1.14913">
        <ele>327.95</ele>
        <time>2018-09-30T07:20:41Z</time>
      </trkpt>
      <trkpt lat="45.91241" lon="1.14892">
        <ele>324.58</ele>
        <time>2018-09-30T07:20:47Z</time>
      </trkpt>
      <trkpt lat="45.91221" lon="1.14869">
        <ele>324.58</ele>
        <time>2018-09-30T07:20:59Z</time>
      </trkpt>
      <trkpt lat="45.91216" lon="1.14853">
        <ele>327.95</ele>
        <time>2018-09-30T07:21:12Z</time>
      </trkpt>
      <trkpt lat="45.91215" lon="1.14849">
        <ele>328.43</ele>
        <time>2018-09-30T07:21:16Z</time>
      </trkpt>
      <trkpt lat="45.91213" lon="1.14837">
        <ele>329.39</ele>
        <time>2018-09-30T07:21:26Z</time>
      </trkpt>
      <trkpt lat="45.9121" lon="1.14767">
        <ele>337.56</ele>
        <time>2018-09-30T07:22:17Z</time>
      </trkpt>
      <trkpt lat="45.91196" lon="1.1474">
        <ele>339.96</ele>
        <time>2018-09-30T07:22:29Z</time>
      </trkpt>
      <trkpt lat="45.91195" lon="1.14737">
        <ele>339.96</ele>
        <time>2018-09-30T07:22:30Z</time>
      </trkpt>
      <trkpt lat="45.91195" lon="1.14695">
        <ele>342.37</ele>
        <time>2018-09-30T07:22:41Z</time>
      </trkpt>
      <trkpt lat="45.91187" lon="1.14652">
        <ele>345.73</ele>
        <time>2018-09-30T07:22:53Z</time>
      </trkpt>
      <trkpt lat="45.91184" lon="1.14622">
        <ele>348.62</ele>
        <time>2018-09-30T07:23:02Z</time>
      </trkpt>
      <trkpt lat="45.91188" lon="1.14599">
        <ele>349.1</ele>
        <time>2018-09-30T07:23:15Z</time>
      </trkpt>
      <trkpt lat="45.91184" lon="1.14598">
        <ele>348.62</ele>
        <time>2018-09-30T07:23:29Z</time>
      </trkpt>
      <trkpt lat="45.91183" lon="1.14624">
        <ele>349.1</ele>
        <time>2018-09-30T07:23:41Z</time>
      </trkpt>
      <trkpt lat="45.91187" lon="1.14655">
        <ele>349.1</ele>
        <time>2018-09-30T07:23:48Z</time>
      </trkpt>
      <trkpt lat="45.91194" lon="1.14678">
        <ele>349.1</ele>
        <time>2018-09-30T07:23:51Z</time>
      </trkpt>
      <trkpt lat="45.91197" lon="1.14714">
        <ele>348.13</ele>
        <time>2018-09-30T07:23:55Z</time>
      </trkpt>
      <trkpt lat="45.91211" lon="1.1475">
        <ele>344.77</ele>
        <time>2018-09-30T07:24:00Z</time>
      </trkpt>
      <trkpt lat="45.91218" lon="1.14765">
        <ele>343.33</ele>
        <time>2018-09-30T07:24:02Z</time>
      </trkpt>
      <trkpt lat="45.91218" lon="1.14812">
        <ele>339</ele>
        <time>2018-09-30T07:24:09Z</time>
      </trkpt>
      <trkpt lat="45.91221" lon="1.14843">
        <ele>335.64</ele>
        <time>2018-09-30T07:24:14Z</time>
      </trkpt>
      <trkpt lat="45.91227" lon="1.14863">
        <ele>332.27</ele>
        <time>2018-09-30T07:24:18Z</time>
      </trkpt>
      <trkpt lat="45.91239" lon="1.14874">
        <ele>328.43</ele>
        <time>2018-09-30T07:24:23Z</time>
      </trkpt>
      <trkpt lat="45.91245" lon="1.14876">
        <ele>326.5</ele>
        <time>2018-09-30T07:24:25Z</time>
      </trkpt>
      <trkpt lat="45.9129" lon="1.14848">
        <ele>322.66</ele>
        <time>2018-09-30T07:24:36Z</time>
      </trkpt>
      <trkpt lat="45.91299" lon="1.14837">
        <ele>321.22</ele>
        <time>2018-09-30T07:24:38Z</time>
      </trkpt>
      <trkpt lat="45.91317" lon="1.14817">
        <ele>321.22</ele>
        <time>2018-09-30T07:24:42Z</time>
      </trkpt>
      <trkpt lat="45.91336" lon="1.14813">
        <ele>321.22</ele>
        <time>2018-09-30T07:24:47Z</time>
      </trkpt>
      <trkpt lat="45.91356" lon="1.14809">
        <ele>324.58</ele>
        <time>2018-09-30T07:24:55Z</time>
      </trkpt>
      <trkpt lat="45.91373" lon="1.14805">
        <ele>327.47</ele>
        <time>2018-09-30T07:25:02Z</time>
      </trkpt>
      <trkpt lat="45.91384" lon="1.14794">
        <ele>329.39</ele>
        <time>2018-09-30T07:25:07Z</time>
      </trkpt>
      <trkpt lat="45.91407" lon="1.14753">
        <ele>333.23</ele>
        <time>2018-09-30T07:25:22Z</time>
      </trkpt>
      <trkpt lat="45.91415" lon="1.14737">
        <ele>334.2</ele>
        <time>2018-09-30T07:25:27Z</time>
      </trkpt>
      <trkpt lat="45.91426" lon="1.14719">
        <ele>334.68</ele>
        <time>2018-09-30T07:25:32Z</time>
      </trkpt>
      <trkpt lat="45.91438" lon="1.14708">
        <ele>334.68</ele>
        <time>2018-09-30T07:25:35Z</time>
      </trkpt>
      <trkpt lat="45.91443" lon="1.14665">
        <ele>334.2</ele>
        <time>2018-09-30T07:25:42Z</time>
      </trkpt>
      <trkpt lat="45.9144" lon="1.14661">
        <ele>333.71</ele>
        <time>2018-09-30T07:25:43Z</time>
      </trkpt>
      <trkpt lat="45.91414" lon="1.14628">
        <ele>330.83</ele>
        <time>2018-09-30T07:25:53Z</time>
      </trkpt>
      <trkpt lat="45.91404" lon="1.1461">
        <ele>330.35</ele>
        <time>2018-09-30T07:25:57Z</time>
      </trkpt>
      <trkpt lat="45.91382" lon="1.1458">
        <ele>330.35</ele>
        <time>2018-09-30T07:26:02Z</time>
      </trkpt>
      <trkpt lat="45.91372" lon="1.14559">
        <ele>329.39</ele>
        <time>2018-09-30T07:26:06Z</time>
      </trkpt>
      <trkpt lat="45.9137" lon="1.14552">
        <ele>329.39</ele>
        <time>2018-09-30T07:26:08Z</time>
      </trkpt>
      <trkpt lat="45.91374" lon="1.1454">
        <ele>329.39</ele>
        <time>2018-09-30T07:26:12Z</time>
      </trkpt>
      <trkpt lat="45.91385" lon="1.14523">
        <ele>331.31</ele>
        <time>2018-09-30T07:26:17Z</time>
      </trkpt>
      <trkpt lat="45.91369" lon="1.14497">
        <ele>332.75</ele>
        <time>2018-09-30T07:26:24Z</time>
      </trkpt>
      <trkpt lat="45.91363" lon="1.14499">
        <ele>332.75</ele>
        <time>2018-09-30T07:26:26Z</time>
      </trkpt>
      <trkpt lat="45.91342" lon="1.14514">
        <ele>333.23</ele>
        <time>2018-09-30T07:26:34Z</time>
      </trkpt>
      <trkpt lat="45.91326" lon="1.14508">
        <ele>334.2</ele>
        <time>2018-09-30T07:26:39Z</time>
      </trkpt>
      <trkpt lat="45.91308" lon="1.14505">
        <ele>335.16</ele>
        <time>2018-09-30T07:26:43Z</time>
      </trkpt>
      <trkpt lat="45.91286" lon="1.14495">
        <ele>335.16</ele>
        <time>2018-09-30T07:26:47Z</time>
      </trkpt>
      <trkpt lat="45.91278" lon="1.14493">
        <ele>335.16</ele>
        <time>2018-09-30T07:26:49Z</time>
      </trkpt>
      <trkpt lat="45.91273" lon="1.14466">
        <ele>331.31</ele>
        <time>2018-09-30T07:26:54Z</time>
      </trkpt>
      <trkpt lat="45.91279" lon="1.1445">
        <ele>329.87</ele>
        <time>2018-09-30T07:26:56Z</time>
      </trkpt>
      <trkpt lat="45.91287" lon="1.14434">
        <ele>329.39</ele>
        <time>2018-09-30T07:26:58Z</time>
      </trkpt>
      <trkpt lat="45.91297" lon="1.14399">
        <ele>325.54</ele>
        <time>2018-09-30T07:27:02Z</time>
      </trkpt>
      <trkpt lat="45.91284" lon="1.14367">
        <ele>321.22</ele>
        <time>2018-09-30T07:27:07Z</time>
      </trkpt>
      <trkpt lat="45.9125" lon="1.1433">
        <ele>321.22</ele>
        <time>2018-09-30T07:27:19Z</time>
      </trkpt>
      <trkpt lat="45.9123" lon="1.14301">
        <ele>324.1</ele>
        <time>2018-09-30T07:27:28Z</time>
      </trkpt>
      <trkpt lat="45.91233" lon="1.14274">
        <ele>326.99</ele>
        <time>2018-09-30T07:27:37Z</time>
      </trkpt>
      <trkpt lat="45.91246" lon="1.1424">
        <ele>329.87</ele>
        <time>2018-09-30T07:27:48Z</time>
      </trkpt>
      <trkpt lat="45.9125" lon="1.14202">
        <ele>333.23</ele>
        <time>2018-09-30T07:28:01Z</time>
      </trkpt>
      <trkpt lat="45.91255" lon="1.14191">
        <ele>334.2</ele>
        <time>2018-09-30T07:28:05Z</time>
      </trkpt>
      <trkpt lat="45.91258" lon="1.14191">
        <ele>334.2</ele>
        <time>2018-09-30T07:28:06Z</time>
      </trkpt>
      <trkpt lat="45.9126" lon="1.14189">
        <ele>334.68</ele>
        <time>2018-09-30T07:28:07Z</time>
      </trkpt>
      <trkpt lat="45.91295" lon="1.14179">
        <ele>336.12</ele>
        <time>2018-09-30T07:28:19Z</time>
      </trkpt>
      <trkpt lat="45.91303" lon="1.1417">
        <ele>337.56</ele>
        <time>2018-09-30T07:28:26Z</time>
      </trkpt>
      <trkpt lat="45.91305" lon="1.14171">
        <ele>337.56</ele>
        <time>2018-09-30T07:28:27Z</time>
      </trkpt>
      <trkpt lat="45.91306" lon="1.14172">
        <ele>338.04</ele>
        <time>2018-09-30T07:28:28Z</time>
      </trkpt>
      <trkpt lat="45.91307" lon="1.14176">
        <ele>338.04</ele>
        <time>2018-09-30T07:28:30Z</time>
      </trkpt>
      <trkpt lat="45.9131" lon="1.14182">
        <ele>338.04</ele>
        <time>2018-09-30T07:28:34Z</time>
      </trkpt>
      <trkpt lat="45.91306" lon="1.14183">
        <ele>337.56</ele>
        <time>2018-09-30T07:28:37Z</time>
      </trkpt>
      <trkpt lat="45.91295" lon="1.14182">
        <ele>337.56</ele>
        <time>2018-09-30T07:28:44Z</time>
      </trkpt>
      <trkpt lat="45.91256" lon="1.14185">
        <ele>336.6</ele>
        <time>2018-09-30T07:29:02Z</time>
      </trkpt>
      <trkpt lat="45.91254" lon="1.14187">
        <ele>336.12</ele>
        <time>2018-09-30T07:29:04Z</time>
      </trkpt>
      <trkpt lat="45.91254" lon="1.14187">
        <ele>335.16</ele>
        <time>2018-09-30T07:29:15Z</time>
      </trkpt>
      <trkpt lat="45.91265" lon="1.14186">
        <ele>335.16</ele>
        <time>2018-09-30T07:29:19Z</time>
      </trkpt>
      <trkpt lat="45.91275" lon="1.14186">
        <ele>335.16</ele>
        <time>2018-09-30T07:29:21Z</time>
      </trkpt>
      <trkpt lat="45.91292" lon="1.14181">
        <ele>335.16</ele>
        <time>2018-09-30T07:29:25Z</time>
      </trkpt>
      <trkpt lat="45.91295" lon="1.14178">
        <ele>335.16</ele>
        <time>2018-09-30T07:29:26Z</time>
      </trkpt>
      <trkpt lat="45.91297" lon="1.14174">
        <ele>335.16</ele>
        <time>2018-09-30T07:29:27Z</time>
      </trkpt>
      <trkpt lat="45.913" lon="1.1417">
        <ele>335.64</ele>
        <time>2018-09-30T07:29:28Z</time>
      </trkpt>
      <trkpt lat="45.91303" lon="1.14166">
        <ele>335.64</ele>
        <time>2018-09-30T07:29:29Z</time>
      </trkpt>
      <trkpt lat="45.91307" lon="1.14164">
        <ele>335.64</ele>
        <time>2018-09-30T07:29:30Z</time>
      </trkpt>
      <trkpt lat="45.91312" lon="1.14161">
        <ele>335.64</ele>
        <time>2018-09-30T07:29:31Z</time>
      </trkpt>
      <trkpt lat="45.91394" lon="1.14114">
        <ele>334.2</ele>
        <time>2018-09-30T07:29:43Z</time>
      </trkpt>
      <trkpt lat="45.91445" lon="1.14085">
        <ele>330.83</ele>
        <time>2018-09-30T07:29:51Z</time>
      </trkpt>
      <trkpt lat="45.91449" lon="1.1408">
        <ele>330.83</ele>
        <time>2018-09-30T07:29:52Z</time>
      </trkpt>
      <trkpt lat="45.91451" lon="1.14075">
        <ele>330.83</ele>
        <time>2018-09-30T07:29:53Z</time>
      </trkpt>
      <trkpt lat="45.91451" lon="1.14068">
        <ele>330.83</ele>
        <time>2018-09-30T07:29:54Z</time>
      </trkpt>
      <trkpt lat="45.91451" lon="1.14061">
        <ele>330.35</ele>
        <time>2018-09-30T07:29:55Z</time>
      </trkpt>
      <trkpt lat="45.91437" lon="1.13971">
        <ele>329.39</ele>
        <time>2018-09-30T07:30:04Z</time>
      </trkpt>
      <trkpt lat="45.91429" lon="1.13921">
        <ele>325.54</ele>
        <time>2018-09-30T07:30:09Z</time>
      </trkpt>
      <trkpt lat="45.9144" lon="1.13881">
        <ele>322.18</ele>
        <time>2018-09-30T07:30:16Z</time>
      </trkpt>
      <trkpt lat="45.91448" lon="1.13861">
        <ele>321.7</ele>
        <time>2018-09-30T07:30:20Z</time>
      </trkpt>
      <trkpt lat="45.91454" lon="1.13834">
        <ele>321.7</ele>
        <time>2018-09-30T07:30:24Z</time>
      </trkpt>
      <trkpt lat="45.91456" lon="1.13819">
        <ele>321.22</ele>
        <time>2018-09-30T07:30:26Z</time>
      </trkpt>
      <trkpt lat="45.91463" lon="1.13792">
        <ele>320.74</ele>
        <time>2018-09-30T07:30:30Z</time>
      </trkpt>
      <trkpt lat="45.91481" lon="1.13775">
        <ele>319.3</ele>
        <time>2018-09-30T07:30:34Z</time>
      </trkpt>
      <trkpt lat="45.91491" lon="1.13772">
        <ele>318.81</ele>
        <time>2018-09-30T07:30:36Z</time>
      </trkpt>
      <trkpt lat="45.91499" lon="1.13769">
        <ele>318.33</ele>
        <time>2018-09-30T07:30:38Z</time>
      </trkpt>
      <trkpt lat="45.91509" lon="1.13765">
        <ele>317.85</ele>
        <time>2018-09-30T07:30:40Z</time>
      </trkpt>
      <trkpt lat="45.91527" lon="1.13754">
        <ele>317.85</ele>
        <time>2018-09-30T07:30:44Z</time>
      </trkpt>
      <trkpt lat="45.91551" lon="1.13731">
        <ele>317.85</ele>
        <time>2018-09-30T07:30:49Z</time>
      </trkpt>
      <trkpt lat="45.91571" lon="1.13721">
        <ele>317.85</ele>
        <time>2018-09-30T07:30:52Z</time>
      </trkpt>
      <trkpt lat="45.91596" lon="1.13699">
        <ele>314.97</ele>
        <time>2018-09-30T07:30:56Z</time>
      </trkpt>
      <trkpt lat="45.91641" lon="1.13665">
        <ele>313.05</ele>
        <time>2018-09-30T07:31:02Z</time>
      </trkpt>
      <trkpt lat="45.91664" lon="1.13656">
        <ele>312.09</ele>
        <time>2018-09-30T07:31:05Z</time>
      </trkpt>
      <trkpt lat="45.91704" lon="1.13598">
        <ele>311.6</ele>
        <time>2018-09-30T07:31:14Z</time>
      </trkpt>
      <trkpt lat="45.91715" lon="1.13573">
        <ele>312.09</ele>
        <time>2018-09-30T07:31:18Z</time>
      </trkpt>
      <trkpt lat="45.91727" lon="1.1356">
        <ele>312.57</ele>
        <time>2018-09-30T07:31:22Z</time>
      </trkpt>
      <trkpt lat="45.91762" lon="1.13523">
        <ele>312.57</ele>
        <time>2018-09-30T07:31:30Z</time>
      </trkpt>
      <trkpt lat="45.91784" lon="1.13501">
        <ele>312.57</ele>
        <time>2018-09-30T07:31:35Z</time>
      </trkpt>
      <trkpt lat="45.91819" lon="1.13479">
        <ele>312.57</ele>
        <time>2018-09-30T07:31:43Z</time>
      </trkpt>
      <trkpt lat="45.91834" lon="1.13475">
        <ele>312.57</ele>
        <time>2018-09-30T07:31:46Z</time>
      </trkpt>
      <trkpt lat="45.91893" lon="1.13464">
        <ele>311.6</ele>
        <time>2018-09-30T07:31:57Z</time>
      </trkpt>
      <trkpt lat="45.91903" lon="1.13462">
        <ele>311.12</ele>
        <time>2018-09-30T07:31:59Z</time>
      </trkpt>
      <trkpt lat="45.91926" lon="1.13455">
        <ele>310.64</ele>
        <time>2018-09-30T07:32:04Z</time>
      </trkpt>
      <trkpt lat="45.9193" lon="1.13456">
        <ele>310.64</ele>
        <time>2018-09-30T07:32:05Z</time>
      </trkpt>
      <trkpt lat="45.91934" lon="1.13456">
        <ele>310.64</ele>
        <time>2018-09-30T07:32:06Z</time>
      </trkpt>
      <trkpt lat="45.91933" lon="1.13445">
        <ele>310.16</ele>
        <time>2018-09-30T07:32:11Z</time>
      </trkpt>
      <trkpt lat="45.91922" lon="1.13431">
        <ele>309.68</ele>
        <time>2018-09-30T07:32:18Z</time>
      </trkpt>
      <trkpt lat="45.91921" lon="1.13433">
        <ele>309.68</ele>
        <time>2018-09-30T07:32:20Z</time>
      </trkpt>
      <trkpt lat="45.91945" lon="1.13467">
        <ele>309.2</ele>
        <time>2018-09-30T07:32:33Z</time>
      </trkpt>
      <trkpt lat="45.91991" lon="1.13544">
        <ele>309.68</ele>
        <time>2018-09-30T07:32:46Z</time>
      </trkpt>
      <trkpt lat="45.92021" lon="1.13609">
        <ele>312.09</ele>
        <time>2018-09-30T07:33:00Z</time>
      </trkpt>
      <trkpt lat="45.92022" lon="1.13615">
        <ele>313.53</ele>
        <time>2018-09-30T07:33:07Z</time>
      </trkpt>
      <trkpt lat="45.92022" lon="1.13611">
        <ele>314.01</ele>
        <time>2018-09-30T07:33:09Z</time>
      </trkpt>
      <trkpt lat="45.92025" lon="1.13605">
        <ele>314.01</ele>
        <time>2018-09-30T07:33:11Z</time>
      </trkpt>
      <trkpt lat="45.92027" lon="1.13602">
        <ele>314.49</ele>
        <time>2018-09-30T07:33:12Z</time>
      </trkpt>
      <trkpt lat="45.92031" lon="1.13599">
        <ele>314.49</ele>
        <time>2018-09-30T07:33:13Z</time>
      </trkpt>
      <trkpt lat="45.92034" lon="1.13596">
        <ele>314.49</ele>
        <time>2018-09-30T07:33:14Z</time>
      </trkpt>
      <trkpt lat="45.92038" lon="1.13593">
        <ele>314.49</ele>
        <time>2018-09-30T07:33:15Z</time>
      </trkpt>
      <trkpt lat="45.92092" lon="1.13559">
        <ele>313.05</ele>
        <time>2018-09-30T07:33:30Z</time>
      </trkpt>
      <trkpt lat="45.92107" lon="1.13547">
        <ele>312.09</ele>
        <time>2018-09-30T07:33:42Z</time>
      </trkpt>
      <trkpt lat="45.92114" lon="1.1354">
        <ele>311.6</ele>
        <time>2018-09-30T07:36:41Z</time>
      </trkpt>
      <trkpt lat="45.92157" lon="1.13517">
        <ele>311.12</ele>
        <time>2018-09-30T07:36:54Z</time>
      </trkpt>
      <trkpt lat="45.92193" lon="1.13496">
        <ele>310.16</ele>
        <time>2018-09-30T07:37:06Z</time>
      </trkpt>
      <trkpt lat="45.92194" lon="1.13494">
        <ele>310.16</ele>
        <time>2018-09-30T07:37:07Z</time>
      </trkpt>
      <trkpt lat="45.92195" lon="1.1349">
        <ele>310.16</ele>
        <time>2018-09-30T07:37:08Z</time>
      </trkpt>
      <trkpt lat="45.92195" lon="1.13485">
        <ele>310.16</ele>
        <time>2018-09-30T07:37:09Z</time>
      </trkpt>
      <trkpt lat="45.92195" lon="1.13481">
        <ele>309.68</ele>
        <time>2018-09-30T07:37:10Z</time>
      </trkpt>
      <trkpt lat="45.92195" lon="1.13476">
        <ele>309.68</ele>
        <time>2018-09-30T07:37:11Z</time>
      </trkpt>
      <trkpt lat="45.92196" lon="1.13454">
        <ele>309.2</ele>
        <time>2018-09-30T07:37:16Z</time>
      </trkpt>
      <trkpt lat="45.92199" lon="1.13451">
        <ele>309.2</ele>
        <time>2018-09-30T07:37:17Z</time>
      </trkpt>
      <trkpt lat="45.92207" lon="1.13448">
        <ele>309.2</ele>
        <time>2018-09-30T07:37:19Z</time>
      </trkpt>
      <trkpt lat="45.92257" lon="1.13426">
        <ele>307.76</ele>
        <time>2018-09-30T07:37:32Z</time>
      </trkpt>
      <trkpt lat="45.92278" lon="1.13415">
        <ele>306.8</ele>
        <time>2018-09-30T07:37:36Z</time>
      </trkpt>
      <trkpt lat="45.92284" lon="1.13412">
        <ele>306.8</ele>
        <time>2018-09-30T07:37:37Z</time>
      </trkpt>
      <trkpt lat="45.92362" lon="1.13382">
        <ele>304.39</ele>
        <time>2018-09-30T07:37:49Z</time>
      </trkpt>
      <trkpt lat="45.9237" lon="1.13381">
        <ele>303.91</ele>
        <time>2018-09-30T07:37:50Z</time>
      </trkpt>
      <trkpt lat="45.92405" lon="1.13378">
        <ele>302.47</ele>
        <time>2018-09-30T07:37:54Z</time>
      </trkpt>
      <trkpt lat="45.92413" lon="1.13377">
        <ele>301.99</ele>
        <time>2018-09-30T07:37:55Z</time>
      </trkpt>
      <trkpt lat="45.92431" lon="1.13369">
        <ele>300.07</ele>
        <time>2018-09-30T07:37:58Z</time>
      </trkpt>
      <trkpt lat="45.92434" lon="1.13365">
        <ele>299.11</ele>
        <time>2018-09-30T07:37:59Z</time>
      </trkpt>
      <trkpt lat="45.92435" lon="1.13359">
        <ele>298.15</ele>
        <time>2018-09-30T07:38:00Z</time>
      </trkpt>
      <trkpt lat="45.92435" lon="1.13352">
        <ele>296.22</ele>
        <time>2018-09-30T07:38:01Z</time>
      </trkpt>
      <trkpt lat="45.92433" lon="1.13346">
        <ele>296.22</ele>
        <time>2018-09-30T07:38:02Z</time>
      </trkpt>
      <trkpt lat="45.92433" lon="1.13339">
        <ele>294.3</ele>
        <time>2018-09-30T07:38:03Z</time>
      </trkpt>
      <trkpt lat="45.92433" lon="1.13333">
        <ele>293.82</ele>
        <time>2018-09-30T07:38:04Z</time>
      </trkpt>
      <trkpt lat="45.92434" lon="1.13325">
        <ele>292.86</ele>
        <time>2018-09-30T07:38:06Z</time>
      </trkpt>
      <trkpt lat="45.92433" lon="1.13299">
        <ele>292.38</ele>
        <time>2018-09-30T07:38:13Z</time>
      </trkpt>
      <trkpt lat="45.92409" lon="1.13281">
        <ele>293.82</ele>
        <time>2018-09-30T07:38:24Z</time>
      </trkpt>
      <trkpt lat="45.92389" lon="1.13264">
        <ele>295.26</ele>
        <time>2018-09-30T07:38:35Z</time>
      </trkpt>
      <trkpt lat="45.92359" lon="1.13239">
        <ele>296.7</ele>
        <time>2018-09-30T07:38:47Z</time>
      </trkpt>
      <trkpt lat="45.9233" lon="1.13236">
        <ele>299.11</ele>
        <time>2018-09-30T07:38:58Z</time>
      </trkpt>
      <trkpt lat="45.92284" lon="1.13261">
        <ele>300.07</ele>
        <time>2018-09-30T07:39:15Z</time>
      </trkpt>
      <trkpt lat="45.92239" lon="1.1328">
        <ele>301.03</ele>
        <time>2018-09-30T07:39:30Z</time>
      </trkpt>
      <trkpt lat="45.92229" lon="1.13279">
        <ele>301.03</ele>
        <time>2018-09-30T07:39:35Z</time>
      </trkpt>
      <trkpt lat="45.92228" lon="1.13277">
        <ele>301.03</ele>
        <time>2018-09-30T07:39:36Z</time>
      </trkpt>
      <trkpt lat="45.92233" lon="1.13218">
        <ele>301.51</ele>
        <time>2018-09-30T07:39:47Z</time>
      </trkpt>
      <trkpt lat="45.92233" lon="1.13206">
        <ele>301.03</ele>
        <time>2018-09-30T07:39:49Z</time>
      </trkpt>
      <trkpt lat="45.92234" lon="1.13172">
        <ele>300.55</ele>
        <time>2018-09-30T07:39:54Z</time>
      </trkpt>
      <trkpt lat="45.92226" lon="1.13141">
        <ele>299.59</ele>
        <time>2018-09-30T07:40:01Z</time>
      </trkpt>
      <trkpt lat="45.92229" lon="1.13137">
        <ele>299.59</ele>
        <time>2018-09-30T07:40:02Z</time>
      </trkpt>
      <trkpt lat="45.92249" lon="1.13092">
        <ele>300.55</ele>
        <time>2018-09-30T07:40:14Z</time>
      </trkpt>
      <trkpt lat="45.92254" lon="1.13058">
        <ele>301.99</ele>
        <time>2018-09-30T07:40:23Z</time>
      </trkpt>
      <trkpt lat="45.92271" lon="1.13024">
        <ele>302.95</ele>
        <time>2018-09-30T07:40:29Z</time>
      </trkpt>
      <trkpt lat="45.92279" lon="1.13015">
        <ele>302.95</ele>
        <time>2018-09-30T07:40:31Z</time>
      </trkpt>
      <trkpt lat="45.92304" lon="1.12995">
        <ele>302.47</ele>
        <time>2018-09-30T07:40:35Z</time>
      </trkpt>
      <trkpt lat="45.92337" lon="1.12975">
        <ele>299.59</ele>
        <time>2018-09-30T07:40:40Z</time>
      </trkpt>
      <trkpt lat="45.92345" lon="1.1295">
        <ele>295.26</ele>
        <time>2018-09-30T07:40:45Z</time>
      </trkpt>
      <trkpt lat="45.92342" lon="1.12941">
        <ele>295.26</ele>
        <time>2018-09-30T07:40:47Z</time>
      </trkpt>
      <trkpt lat="45.92339" lon="1.12931">
        <ele>295.26</ele>
        <time>2018-09-30T07:40:49Z</time>
      </trkpt>
      <trkpt lat="45.92329" lon="1.12878">
        <ele>295.26</ele>
        <time>2018-09-30T07:41:00Z</time>
      </trkpt>
      <trkpt lat="45.92328" lon="1.12873">
        <ele>295.74</ele>
        <time>2018-09-30T07:41:01Z</time>
      </trkpt>
      <trkpt lat="45.92322" lon="1.12851">
        <ele>296.22</ele>
        <time>2018-09-30T07:41:05Z</time>
      </trkpt>
      <trkpt lat="45.92315" lon="1.12842">
        <ele>296.7</ele>
        <time>2018-09-30T07:41:07Z</time>
      </trkpt>
      <trkpt lat="45.92304" lon="1.12832">
        <ele>296.7</ele>
        <time>2018-09-30T07:41:10Z</time>
      </trkpt>
      <trkpt lat="45.92287" lon="1.12826">
        <ele>296.7</ele>
        <time>2018-09-30T07:41:14Z</time>
      </trkpt>
      <trkpt lat="45.9225" lon="1.12825">
        <ele>297.18</ele>
        <time>2018-09-30T07:41:24Z</time>
      </trkpt>
      <trkpt lat="45.92221" lon="1.12837">
        <ele>298.15</ele>
        <time>2018-09-30T07:41:34Z</time>
      </trkpt>
      <trkpt lat="45.92189" lon="1.12866">
        <ele>298.15</ele>
        <time>2018-09-30T07:41:44Z</time>
      </trkpt>
      <trkpt lat="45.92163" lon="1.1289">
        <ele>298.63</ele>
        <time>2018-09-30T07:41:55Z</time>
      </trkpt>
      <trkpt lat="45.9215" lon="1.12929">
        <ele>298.63</ele>
        <time>2018-09-30T07:42:06Z</time>
      </trkpt>
      <trkpt lat="45.92147" lon="1.12962">
        <ele>298.63</ele>
        <time>2018-09-30T07:42:17Z</time>
      </trkpt>
      <trkpt lat="45.92146" lon="1.12967">
        <ele>299.11</ele>
        <time>2018-09-30T07:42:24Z</time>
      </trkpt>
      <trkpt lat="45.92141" lon="1.1296">
        <ele>299.11</ele>
        <time>2018-09-30T07:42:28Z</time>
      </trkpt>
      <trkpt lat="45.92141" lon="1.12957">
        <ele>299.11</ele>
        <time>2018-09-30T07:42:29Z</time>
      </trkpt>
      <trkpt lat="45.9214" lon="1.12953">
        <ele>299.11</ele>
        <time>2018-09-30T07:42:30Z</time>
      </trkpt>
      <trkpt lat="45.92141" lon="1.12948">
        <ele>299.11</ele>
        <time>2018-09-30T07:42:31Z</time>
      </trkpt>
      <trkpt lat="45.92141" lon="1.12943">
        <ele>299.11</ele>
        <time>2018-09-30T07:42:32Z</time>
      </trkpt>
      <trkpt lat="45.92157" lon="1.12874">
        <ele>298.15</ele>
        <time>2018-09-30T07:42:41Z</time>
      </trkpt>
      <trkpt lat="45.92162" lon="1.12865">
        <ele>297.67</ele>
        <time>2018-09-30T07:42:42Z</time>
      </trkpt>
      <trkpt lat="45.92167" lon="1.12856">
        <ele>297.18</ele>
        <time>2018-09-30T07:42:43Z</time>
      </trkpt>
      <trkpt lat="45.92173" lon="1.12849">
        <ele>297.18</ele>
        <time>2018-09-30T07:42:44Z</time>
      </trkpt>
      <trkpt lat="45.9218" lon="1.12842">
        <ele>296.7</ele>
        <time>2018-09-30T07:42:45Z</time>
      </trkpt>
      <trkpt lat="45.92218" lon="1.12799">
        <ele>292.86</ele>
        <time>2018-09-30T07:42:51Z</time>
      </trkpt>
      <trkpt lat="45.92225" lon="1.12793">
        <ele>292.38</ele>
        <time>2018-09-30T07:42:52Z</time>
      </trkpt>
      <trkpt lat="45.92241" lon="1.12783">
        <ele>291.42</ele>
        <time>2018-09-30T07:42:54Z</time>
      </trkpt>
      <trkpt lat="45.9225" lon="1.1278">
        <ele>290.94</ele>
        <time>2018-09-30T07:42:55Z</time>
      </trkpt>
      <trkpt lat="45.92297" lon="1.12762">
        <ele>287.57</ele>
        <time>2018-09-30T07:43:00Z</time>
      </trkpt>
      <trkpt lat="45.92305" lon="1.12757">
        <ele>286.61</ele>
        <time>2018-09-30T07:43:01Z</time>
      </trkpt>
      <trkpt lat="45.92312" lon="1.1275">
        <ele>285.65</ele>
        <time>2018-09-30T07:43:02Z</time>
      </trkpt>
      <trkpt lat="45.92318" lon="1.1274">
        <ele>284.69</ele>
        <time>2018-09-30T07:43:03Z</time>
      </trkpt>
      <trkpt lat="45.92322" lon="1.12729">
        <ele>284.21</ele>
        <time>2018-09-30T07:43:04Z</time>
      </trkpt>
      <trkpt lat="45.92326" lon="1.12717">
        <ele>283.73</ele>
        <time>2018-09-30T07:43:05Z</time>
      </trkpt>
      <trkpt lat="45.9233" lon="1.12706">
        <ele>282.77</ele>
        <time>2018-09-30T07:43:06Z</time>
      </trkpt>
      <trkpt lat="45.92334" lon="1.12699">
        <ele>281.32</ele>
        <time>2018-09-30T07:43:07Z</time>
      </trkpt>
      <trkpt lat="45.92339" lon="1.12695">
        <ele>280.84</ele>
        <time>2018-09-30T07:43:08Z</time>
      </trkpt>
      <trkpt lat="45.92346" lon="1.12697">
        <ele>280.36</ele>
        <time>2018-09-30T07:43:09Z</time>
      </trkpt>
      <trkpt lat="45.92353" lon="1.12701">
        <ele>279.4</ele>
        <time>2018-09-30T07:43:10Z</time>
      </trkpt>
      <trkpt lat="45.92361" lon="1.12706">
        <ele>278.92</ele>
        <time>2018-09-30T07:43:11Z</time>
      </trkpt>
      <trkpt lat="45.92393" lon="1.12721">
        <ele>275.56</ele>
        <time>2018-09-30T07:43:17Z</time>
      </trkpt>
      <trkpt lat="45.92394" lon="1.12703">
        <ele>274.11</ele>
        <time>2018-09-30T07:43:20Z</time>
      </trkpt>
      <trkpt lat="45.92392" lon="1.12696">
        <ele>273.63</ele>
        <time>2018-09-30T07:43:21Z</time>
      </trkpt>
      <trkpt lat="45.92389" lon="1.1269">
        <ele>273.63</ele>
        <time>2018-09-30T07:43:22Z</time>
      </trkpt>
      <trkpt lat="45.92382" lon="1.12665">
        <ele>272.67</ele>
        <time>2018-09-30T07:43:26Z</time>
      </trkpt>
      <trkpt lat="45.92397" lon="1.12647">
        <ele>271.71</ele>
        <time>2018-09-30T07:43:31Z</time>
      </trkpt>
      <trkpt lat="45.92416" lon="1.12627">
        <ele>271.23</ele>
        <time>2018-09-30T07:43:37Z</time>
      </trkpt>
      <trkpt lat="45.92445" lon="1.12618">
        <ele>270.75</ele>
        <time>2018-09-30T07:43:42Z</time>
      </trkpt>
      <trkpt lat="45.92465" lon="1.12627">
        <ele>270.27</ele>
        <time>2018-09-30T07:43:46Z</time>
      </trkpt>
      <trkpt lat="45.92506" lon="1.12638">
        <ele>270.27</ele>
        <time>2018-09-30T07:43:56Z</time>
      </trkpt>
      <trkpt lat="45.92504" lon="1.12674">
        <ele>270.27</ele>
        <time>2018-09-30T07:44:05Z</time>
      </trkpt>
      <trkpt lat="45.92505" lon="1.12696">
        <ele>271.71</ele>
        <time>2018-09-30T07:44:17Z</time>
      </trkpt>
      <trkpt lat="45.92504" lon="1.12704">
        <ele>274.59</ele>
        <time>2018-09-30T07:44:24Z</time>
      </trkpt>
      <trkpt lat="45.92518" lon="1.12742">
        <ele>282.28</ele>
        <time>2018-09-30T07:45:30Z</time>
      </trkpt>
      <trkpt lat="45.9253" lon="1.12744">
        <ele>282.77</ele>
        <time>2018-09-30T07:45:37Z</time>
      </trkpt>
      <trkpt lat="45.92559" lon="1.1277">
        <ele>283.25</ele>
        <time>2018-09-30T07:45:50Z</time>
      </trkpt>
      <trkpt lat="45.92587" lon="1.12804">
        <ele>284.21</ele>
        <time>2018-09-30T07:46:03Z</time>
      </trkpt>
      <trkpt lat="45.92617" lon="1.12845">
        <ele>286.13</ele>
        <time>2018-09-30T07:46:17Z</time>
      </trkpt>
      <trkpt lat="45.92655" lon="1.12882">
        <ele>287.57</ele>
        <time>2018-09-30T07:46:29Z</time>
      </trkpt>
      <trkpt lat="45.92665" lon="1.12893">
        <ele>288.53</ele>
        <time>2018-09-30T07:46:33Z</time>
      </trkpt>
      <trkpt lat="45.92675" lon="1.12905">
        <ele>289.97</ele>
        <time>2018-09-30T07:46:38Z</time>
      </trkpt>
      <trkpt lat="45.9269" lon="1.12929">
        <ele>291.42</ele>
        <time>2018-09-30T07:46:46Z</time>
      </trkpt>
      <trkpt lat="45.92695" lon="1.12938">
        <ele>292.38</ele>
        <time>2018-09-30T07:46:50Z</time>
      </trkpt>
      <trkpt lat="45.92713" lon="1.12969">
        <ele>293.82</ele>
        <time>2018-09-30T07:46:58Z</time>
      </trkpt>
      <trkpt lat="45.92727" lon="1.12987">
        <ele>294.78</ele>
        <time>2018-09-30T07:47:05Z</time>
      </trkpt>
      <trkpt lat="45.92747" lon="1.12994">
        <ele>296.22</ele>
        <time>2018-09-30T07:47:12Z</time>
      </trkpt>
      <trkpt lat="45.92759" lon="1.12985">
        <ele>297.18</ele>
        <time>2018-09-30T07:47:18Z</time>
      </trkpt>
      <trkpt lat="45.92766" lon="1.12991">
        <ele>297.18</ele>
        <time>2018-09-30T07:47:22Z</time>
      </trkpt>
      <trkpt lat="45.92786" lon="1.13027">
        <ele>298.63</ele>
        <time>2018-09-30T07:47:35Z</time>
      </trkpt>
      <trkpt lat="45.928" lon="1.13041">
        <ele>301.99</ele>
        <time>2018-09-30T07:47:48Z</time>
      </trkpt>
      <trkpt lat="45.92801" lon="1.13043">
        <ele>301.99</ele>
        <time>2018-09-30T07:47:49Z</time>
      </trkpt>
      <trkpt lat="45.92821" lon="1.1307">
        <ele>303.91</ele>
        <time>2018-09-30T07:48:02Z</time>
      </trkpt>
      <trkpt lat="45.92829" lon="1.1308">
        <ele>305.84</ele>
        <time>2018-09-30T07:48:11Z</time>
      </trkpt>
      <trkpt lat="45.92837" lon="1.13075">
        <ele>307.28</ele>
        <time>2018-09-30T07:49:47Z</time>
      </trkpt>
      <trkpt lat="45.92859" lon="1.13037">
        <ele>306.8</ele>
        <time>2018-09-30T07:49:58Z</time>
      </trkpt>
      <trkpt lat="45.92878" lon="1.13006">
        <ele>306.32</ele>
        <time>2018-09-30T07:50:06Z</time>
      </trkpt>
      <trkpt lat="45.92881" lon="1.13">
        <ele>306.32</ele>
        <time>2018-09-30T07:50:07Z</time>
      </trkpt>
      <trkpt lat="45.92884" lon="1.12994">
        <ele>306.32</ele>
        <time>2018-09-30T07:50:08Z</time>
      </trkpt>
      <trkpt lat="45.92891" lon="1.12982">
        <ele>306.32</ele>
        <time>2018-09-30T07:50:10Z</time>
      </trkpt>
      <trkpt lat="45.92897" lon="1.1295">
        <ele>305.84</ele>
        <time>2018-09-30T07:50:14Z</time>
      </trkpt>
      <trkpt lat="45.92902" lon="1.12895">
        <ele>304.39</ele>
        <time>2018-09-30T07:50:23Z</time>
      </trkpt>
      <trkpt lat="45.92915" lon="1.12865">
        <ele>306.32</ele>
        <time>2018-09-30T07:50:32Z</time>
      </trkpt>
      <trkpt lat="45.92918" lon="1.12865">
        <ele>306.32</ele>
        <time>2018-09-30T07:50:33Z</time>
      </trkpt>
      <trkpt lat="45.92919" lon="1.12865">
        <ele>306.32</ele>
        <time>2018-09-30T07:50:34Z</time>
      </trkpt>
      <trkpt lat="45.9295" lon="1.12882">
        <ele>309.2</ele>
        <time>2018-09-30T07:50:46Z</time>
      </trkpt>
      <trkpt lat="45.92987" lon="1.12907">
        <ele>310.16</ele>
        <time>2018-09-30T07:50:59Z</time>
      </trkpt>
      <trkpt lat="45.93021" lon="1.12931">
        <ele>311.12</ele>
        <time>2018-09-30T07:51:12Z</time>
      </trkpt>
      <trkpt lat="45.93053" lon="1.12936">
        <ele>312.57</ele>
        <time>2018-09-30T07:51:25Z</time>
      </trkpt>
      <trkpt lat="45.93094" lon="1.12964">
        <ele>313.05</ele>
        <time>2018-09-30T07:51:39Z</time>
      </trkpt>
      <trkpt lat="45.93108" lon="1.12976">
        <ele>314.01</ele>
        <time>2018-09-30T07:51:46Z</time>
      </trkpt>
      <trkpt lat="45.93109" lon="1.12974">
        <ele>314.01</ele>
        <time>2018-09-30T07:51:47Z</time>
      </trkpt>
      <trkpt lat="45.93111" lon="1.1297">
        <ele>314.01</ele>
        <time>2018-09-30T07:51:48Z</time>
      </trkpt>
      <trkpt lat="45.93113" lon="1.12965">
        <ele>314.01</ele>
        <time>2018-09-30T07:51:49Z</time>
      </trkpt>
      <trkpt lat="45.93114" lon="1.1296">
        <ele>314.01</ele>
        <time>2018-09-30T07:51:50Z</time>
      </trkpt>
      <trkpt lat="45.93115" lon="1.12955">
        <ele>314.49</ele>
        <time>2018-09-30T07:51:51Z</time>
      </trkpt>
      <trkpt lat="45.9315" lon="1.12868">
        <ele>314.01</ele>
        <time>2018-09-30T07:52:05Z</time>
      </trkpt>
      <trkpt lat="45.93169" lon="1.12814">
        <ele>313.05</ele>
        <time>2018-09-30T07:52:12Z</time>
      </trkpt>
      <trkpt lat="45.93173" lon="1.12806">
        <ele>313.05</ele>
        <time>2018-09-30T07:52:13Z</time>
      </trkpt>
      <trkpt lat="45.93176" lon="1.12799">
        <ele>312.57</ele>
        <time>2018-09-30T07:52:14Z</time>
      </trkpt>
      <trkpt lat="45.93235" lon="1.1272">
        <ele>310.16</ele>
        <time>2018-09-30T07:52:28Z</time>
      </trkpt>
      <trkpt lat="45.93255" lon="1.12688">
        <ele>310.16</ele>
        <time>2018-09-30T07:52:33Z</time>
      </trkpt>
      <trkpt lat="45.9326" lon="1.12685">
        <ele>309.68</ele>
        <time>2018-09-30T07:52:34Z</time>
      </trkpt>
      <trkpt lat="45.93266" lon="1.12683">
        <ele>309.68</ele>
        <time>2018-09-30T07:52:35Z</time>
      </trkpt>
      <trkpt lat="45.93272" lon="1.12684">
        <ele>309.68</ele>
        <time>2018-09-30T07:52:36Z</time>
      </trkpt>
      <trkpt lat="45.93278" lon="1.12685">
        <ele>309.68</ele>
        <time>2018-09-30T07:52:37Z</time>
      </trkpt>
      <trkpt lat="45.93332" lon="1.12694">
        <ele>308.72</ele>
        <time>2018-09-30T07:52:47Z</time>
      </trkpt>
      <trkpt lat="45.93337" lon="1.12694">
        <ele>308.72</ele>
        <time>2018-09-30T07:52:48Z</time>
      </trkpt>
      <trkpt lat="45.93379" lon="1.12694">
        <ele>308.72</ele>
        <time>2018-09-30T07:52:55Z</time>
      </trkpt>
      <trkpt lat="45.93385" lon="1.12694">
        <ele>308.72</ele>
        <time>2018-09-30T07:52:56Z</time>
      </trkpt>
      <trkpt lat="45.93391" lon="1.12693">
        <ele>308.72</ele>
        <time>2018-09-30T07:52:57Z</time>
      </trkpt>
      <trkpt lat="45.93403" lon="1.12692">
        <ele>308.72</ele>
        <time>2018-09-30T07:52:59Z</time>
      </trkpt>
      <trkpt lat="45.93414" lon="1.12689">
        <ele>308.72</ele>
        <time>2018-09-30T07:53:01Z</time>
      </trkpt>
      <trkpt lat="45.93418" lon="1.12684">
        <ele>308.72</ele>
        <time>2018-09-30T07:53:02Z</time>
      </trkpt>
      <trkpt lat="45.93421" lon="1.12677">
        <ele>308.72</ele>
        <time>2018-09-30T07:53:03Z</time>
      </trkpt>
      <trkpt lat="45.93422" lon="1.12669">
        <ele>308.72</ele>
        <time>2018-09-30T07:53:04Z</time>
      </trkpt>
      <trkpt lat="45.93422" lon="1.12662">
        <ele>308.72</ele>
        <time>2018-09-30T07:53:05Z</time>
      </trkpt>
      <trkpt lat="45.93423" lon="1.12653">
        <ele>308.72</ele>
        <time>2018-09-30T07:53:06Z</time>
      </trkpt>
      <trkpt lat="45.93423" lon="1.12644">
        <ele>308.72</ele>
        <time>2018-09-30T07:53:07Z</time>
      </trkpt>
      <trkpt lat="45.93416" lon="1.12527">
        <ele>307.28</ele>
        <time>2018-09-30T07:53:20Z</time>
      </trkpt>
      <trkpt lat="45.9341" lon="1.12458">
        <ele>305.84</ele>
        <time>2018-09-30T07:53:28Z</time>
      </trkpt>
      <trkpt lat="45.93409" lon="1.1245">
        <ele>305.84</ele>
        <time>2018-09-30T07:53:29Z</time>
      </trkpt>
      <trkpt lat="45.93408" lon="1.12435">
        <ele>305.84</ele>
        <time>2018-09-30T07:53:31Z</time>
      </trkpt>
      <trkpt lat="45.93406" lon="1.12413">
        <ele>305.84</ele>
        <time>2018-09-30T07:53:34Z</time>
      </trkpt>
      <trkpt lat="45.93405" lon="1.12405">
        <ele>305.84</ele>
        <time>2018-09-30T07:53:35Z</time>
      </trkpt>
      <trkpt lat="45.93404" lon="1.12397">
        <ele>305.84</ele>
        <time>2018-09-30T07:53:36Z</time>
      </trkpt>
      <trkpt lat="45.93404" lon="1.12389">
        <ele>305.84</ele>
        <time>2018-09-30T07:53:37Z</time>
      </trkpt>
      <trkpt lat="45.93405" lon="1.12381">
        <ele>305.84</ele>
        <time>2018-09-30T07:53:38Z</time>
      </trkpt>
      <trkpt lat="45.93407" lon="1.12373">
        <ele>305.36</ele>
        <time>2018-09-30T07:53:39Z</time>
      </trkpt>
      <trkpt lat="45.93411" lon="1.12366">
        <ele>305.36</ele>
        <time>2018-09-30T07:53:40Z</time>
      </trkpt>
      <trkpt lat="45.93414" lon="1.12358">
        <ele>305.36</ele>
        <time>2018-09-30T07:53:41Z</time>
      </trkpt>
      <trkpt lat="45.93424" lon="1.12335">
        <ele>305.36</ele>
        <time>2018-09-30T07:53:44Z</time>
      </trkpt>
      <trkpt lat="45.93428" lon="1.12328">
        <ele>305.36</ele>
        <time>2018-09-30T07:53:45Z</time>
      </trkpt>
      <trkpt lat="45.93454" lon="1.12287">
        <ele>303.91</ele>
        <time>2018-09-30T07:53:51Z</time>
      </trkpt>
      <trkpt lat="45.93459" lon="1.1228">
        <ele>303.91</ele>
        <time>2018-09-30T07:53:52Z</time>
      </trkpt>
      <trkpt lat="45.93475" lon="1.12261">
        <ele>302.95</ele>
        <time>2018-09-30T07:53:55Z</time>
      </trkpt>
      <trkpt lat="45.93481" lon="1.12257">
        <ele>302.95</ele>
        <time>2018-09-30T07:53:56Z</time>
      </trkpt>
      <trkpt lat="45.93503" lon="1.12243">
        <ele>301.51</ele>
        <time>2018-09-30T07:53:59Z</time>
      </trkpt>
      <trkpt lat="45.9351" lon="1.12237">
        <ele>301.03</ele>
        <time>2018-09-30T07:54:00Z</time>
      </trkpt>
      <trkpt lat="45.93515" lon="1.12229">
        <ele>300.55</ele>
        <time>2018-09-30T07:54:01Z</time>
      </trkpt>
      <trkpt lat="45.9352" lon="1.12219">
        <ele>300.55</ele>
        <time>2018-09-30T07:54:02Z</time>
      </trkpt>
      <trkpt lat="45.93525" lon="1.12209">
        <ele>299.11</ele>
        <time>2018-09-30T07:54:03Z</time>
      </trkpt>
      <trkpt lat="45.93529" lon="1.12197">
        <ele>298.63</ele>
        <time>2018-09-30T07:54:04Z</time>
      </trkpt>
      <trkpt lat="45.93545" lon="1.12148">
        <ele>294.78</ele>
        <time>2018-09-30T07:54:08Z</time>
      </trkpt>
      <trkpt lat="45.93564" lon="1.12093">
        <ele>291.42</ele>
        <time>2018-09-30T07:54:13Z</time>
      </trkpt>
      <trkpt lat="45.93581" lon="1.12043">
        <ele>289.97</ele>
        <time>2018-09-30T07:54:18Z</time>
      </trkpt>
      <trkpt lat="45.93585" lon="1.12036">
        <ele>289.97</ele>
        <time>2018-09-30T07:54:19Z</time>
      </trkpt>
      <trkpt lat="45.9359" lon="1.12029">
        <ele>289.97</ele>
        <time>2018-09-30T07:54:20Z</time>
      </trkpt>
      <trkpt lat="45.93595" lon="1.12024">
        <ele>289.97</ele>
        <time>2018-09-30T07:54:21Z</time>
      </trkpt>
      <trkpt lat="45.93601" lon="1.12019">
        <ele>289.97</ele>
        <time>2018-09-30T07:54:22Z</time>
      </trkpt>
      <trkpt lat="45.93606" lon="1.12013">
        <ele>289.97</ele>
        <time>2018-09-30T07:54:23Z</time>
      </trkpt>
      <trkpt lat="45.93611" lon="1.12008">
        <ele>289.97</ele>
        <time>2018-09-30T07:54:24Z</time>
      </trkpt>
      <trkpt lat="45.93629" lon="1.11991">
        <ele>289.97</ele>
        <time>2018-09-30T07:54:28Z</time>
      </trkpt>
      <trkpt lat="45.93634" lon="1.11989">
        <ele>289.97</ele>
        <time>2018-09-30T07:54:29Z</time>
      </trkpt>
      <trkpt lat="45.9364" lon="1.11987">
        <ele>289.97</ele>
        <time>2018-09-30T07:54:30Z</time>
      </trkpt>
      <trkpt lat="45.93645" lon="1.11985">
        <ele>289.97</ele>
        <time>2018-09-30T07:54:31Z</time>
      </trkpt>
      <trkpt lat="45.9365" lon="1.11984">
        <ele>289.97</ele>
        <time>2018-09-30T07:54:32Z</time>
      </trkpt>
      <trkpt lat="45.93677" lon="1.11982">
        <ele>289.97</ele>
        <time>2018-09-30T07:54:37Z</time>
      </trkpt>
      <trkpt lat="45.93683" lon="1.11983">
        <ele>289.97</ele>
        <time>2018-09-30T07:54:38Z</time>
      </trkpt>
      <trkpt lat="45.93756" lon="1.11994">
        <ele>289.97</ele>
        <time>2018-09-30T07:54:52Z</time>
      </trkpt>
      <trkpt lat="45.9376" lon="1.11992">
        <ele>289.97</ele>
        <time>2018-09-30T07:54:53Z</time>
      </trkpt>
      <trkpt lat="45.93791" lon="1.11963">
        <ele>289.97</ele>
        <time>2018-09-30T07:55:03Z</time>
      </trkpt>
      <trkpt lat="45.93815" lon="1.1193">
        <ele>290.94</ele>
        <time>2018-09-30T07:55:10Z</time>
      </trkpt>
      <trkpt lat="45.93817" lon="1.11921">
        <ele>290.94</ele>
        <time>2018-09-30T07:55:11Z</time>
      </trkpt>
      <trkpt lat="45.93832" lon="1.11822">
        <ele>289.01</ele>
        <time>2018-09-30T07:55:21Z</time>
      </trkpt>
      <trkpt lat="45.93833" lon="1.11813">
        <ele>288.53</ele>
        <time>2018-09-30T07:55:22Z</time>
      </trkpt>
      <trkpt lat="45.93833" lon="1.11804">
        <ele>288.53</ele>
        <time>2018-09-30T07:55:23Z</time>
      </trkpt>
      <trkpt lat="45.93834" lon="1.11796">
        <ele>288.05</ele>
        <time>2018-09-30T07:55:24Z</time>
      </trkpt>
      <trkpt lat="45.93844" lon="1.11721">
        <ele>287.57</ele>
        <time>2018-09-30T07:55:33Z</time>
      </trkpt>
      <trkpt lat="45.93847" lon="1.11717">
        <ele>287.57</ele>
        <time>2018-09-30T07:55:34Z</time>
      </trkpt>
      <trkpt lat="45.93849" lon="1.11713">
        <ele>287.57</ele>
        <time>2018-09-30T07:55:35Z</time>
      </trkpt>
      <trkpt lat="45.93852" lon="1.11711">
        <ele>287.57</ele>
        <time>2018-09-30T07:55:36Z</time>
      </trkpt>
      <trkpt lat="45.93854" lon="1.11707">
        <ele>287.57</ele>
        <time>2018-09-30T07:55:37Z</time>
      </trkpt>
      <trkpt lat="45.93856" lon="1.11704">
        <ele>287.57</ele>
        <time>2018-09-30T07:55:38Z</time>
      </trkpt>
      <trkpt lat="45.93857" lon="1.117">
        <ele>287.57</ele>
        <time>2018-09-30T07:55:39Z</time>
      </trkpt>
      <trkpt lat="45.9386" lon="1.11695">
        <ele>287.57</ele>
        <time>2018-09-30T07:55:40Z</time>
      </trkpt>
      <trkpt lat="45.93863" lon="1.11691">
        <ele>287.57</ele>
        <time>2018-09-30T07:55:41Z</time>
      </trkpt>
      <trkpt lat="45.93866" lon="1.11688">
        <ele>287.57</ele>
        <time>2018-09-30T07:55:42Z</time>
      </trkpt>
      <trkpt lat="45.93868" lon="1.11685">
        <ele>287.57</ele>
        <time>2018-09-30T07:55:44Z</time>
      </trkpt>
      <trkpt lat="45.9387" lon="1.11684">
        <ele>287.09</ele>
        <time>2018-09-30T07:55:45Z</time>
      </trkpt>
      <trkpt lat="45.93873" lon="1.1168">
        <ele>287.09</ele>
        <time>2018-09-30T07:55:46Z</time>
      </trkpt>
      <trkpt lat="45.93878" lon="1.11677">
        <ele>287.09</ele>
        <time>2018-09-30T07:55:47Z</time>
      </trkpt>
      <trkpt lat="45.93883" lon="1.11678">
        <ele>286.61</ele>
        <time>2018-09-30T07:55:48Z</time>
      </trkpt>
      <trkpt lat="45.93935" lon="1.11678">
        <ele>283.73</ele>
        <time>2018-09-30T07:55:58Z</time>
      </trkpt>
      <trkpt lat="45.93935" lon="1.11675">
        <ele>283.73</ele>
        <time>2018-09-30T07:55:59Z</time>
      </trkpt>
      <trkpt lat="45.93934" lon="1.1167">
        <ele>283.25</ele>
        <time>2018-09-30T07:56:00Z</time>
      </trkpt>
      <trkpt lat="45.93933" lon="1.11666">
        <ele>283.25</ele>
        <time>2018-09-30T07:56:01Z</time>
      </trkpt>
      <trkpt lat="45.93932" lon="1.11661">
        <ele>283.25</ele>
        <time>2018-09-30T07:56:02Z</time>
      </trkpt>
      <trkpt lat="45.93901" lon="1.11601">
        <ele>282.77</ele>
        <time>2018-09-30T07:56:12Z</time>
      </trkpt>
      <trkpt lat="45.93874" lon="1.11548">
        <ele>282.77</ele>
        <time>2018-09-30T07:56:23Z</time>
      </trkpt>
      <trkpt lat="45.93864" lon="1.11516">
        <ele>282.77</ele>
        <time>2018-09-30T07:56:29Z</time>
      </trkpt>
      <trkpt lat="45.93863" lon="1.11509">
        <ele>282.77</ele>
        <time>2018-09-30T07:56:30Z</time>
      </trkpt>
      <trkpt lat="45.93847" lon="1.11418">
        <ele>280.84</ele>
        <time>2018-09-30T07:56:41Z</time>
      </trkpt>
      <trkpt lat="45.93834" lon="1.11322">
        <ele>278.92</ele>
        <time>2018-09-30T07:56:51Z</time>
      </trkpt>
      <trkpt lat="45.93833" lon="1.11314">
        <ele>278.92</ele>
        <time>2018-09-30T07:56:52Z</time>
      </trkpt>
      <trkpt lat="45.93832" lon="1.11297">
        <ele>278.92</ele>
        <time>2018-09-30T07:56:54Z</time>
      </trkpt>
      <trkpt lat="45.93831" lon="1.11289">
        <ele>278.44</ele>
        <time>2018-09-30T07:56:55Z</time>
      </trkpt>
      <trkpt lat="45.93824" lon="1.11254">
        <ele>277.96</ele>
        <time>2018-09-30T07:56:59Z</time>
      </trkpt>
      <trkpt lat="45.93821" lon="1.11245">
        <ele>277.96</ele>
        <time>2018-09-30T07:57:00Z</time>
      </trkpt>
      <trkpt lat="45.93819" lon="1.11236">
        <ele>277.96</ele>
        <time>2018-09-30T07:57:01Z</time>
      </trkpt>
      <trkpt lat="45.93769" lon="1.11148">
        <ele>276.04</ele>
        <time>2018-09-30T07:57:14Z</time>
      </trkpt>
      <trkpt lat="45.93729" lon="1.11089">
        <ele>277</ele>
        <time>2018-09-30T07:57:27Z</time>
      </trkpt>
      <trkpt lat="45.93678" lon="1.11041">
        <ele>279.4</ele>
        <time>2018-09-30T07:57:41Z</time>
      </trkpt>
      <trkpt lat="45.93624" lon="1.10982">
        <ele>279.88</ele>
        <time>2018-09-30T07:57:56Z</time>
      </trkpt>
      <trkpt lat="45.93606" lon="1.10962">
        <ele>279.88</ele>
        <time>2018-09-30T07:58:01Z</time>
      </trkpt>
      <trkpt lat="45.93602" lon="1.1096">
        <ele>280.36</ele>
        <time>2018-09-30T07:58:02Z</time>
      </trkpt>
      <trkpt lat="45.93598" lon="1.10958">
        <ele>280.36</ele>
        <time>2018-09-30T07:58:03Z</time>
      </trkpt>
      <trkpt lat="45.93583" lon="1.10922">
        <ele>280.84</ele>
        <time>2018-09-30T07:58:12Z</time>
      </trkpt>
      <trkpt lat="45.93553" lon="1.10825">
        <ele>281.32</ele>
        <time>2018-09-30T07:58:26Z</time>
      </trkpt>
      <trkpt lat="45.93481" lon="1.10724">
        <ele>279.4</ele>
        <time>2018-09-30T07:58:43Z</time>
      </trkpt>
      <trkpt lat="45.93481" lon="1.10715">
        <ele>279.4</ele>
        <time>2018-09-30T07:58:44Z</time>
      </trkpt>
      <trkpt lat="45.93483" lon="1.10708">
        <ele>279.4</ele>
        <time>2018-09-30T07:58:45Z</time>
      </trkpt>
      <trkpt lat="45.93489" lon="1.10703">
        <ele>278.92</ele>
        <time>2018-09-30T07:58:46Z</time>
      </trkpt>
      <trkpt lat="45.93495" lon="1.10699">
        <ele>278.92</ele>
        <time>2018-09-30T07:58:47Z</time>
      </trkpt>
      <trkpt lat="45.93502" lon="1.10697">
        <ele>278.44</ele>
        <time>2018-09-30T07:58:48Z</time>
      </trkpt>
      <trkpt lat="45.93509" lon="1.10694">
        <ele>278.44</ele>
        <time>2018-09-30T07:58:49Z</time>
      </trkpt>
      <trkpt lat="45.93532" lon="1.10688">
        <ele>278.44</ele>
        <time>2018-09-30T07:58:52Z</time>
      </trkpt>
      <trkpt lat="45.93604" lon="1.10662">
        <ele>275.07</ele>
        <time>2018-09-30T07:59:02Z</time>
      </trkpt>
      <trkpt lat="45.93695" lon="1.10614">
        <ele>272.19</ele>
        <time>2018-09-30T07:59:14Z</time>
      </trkpt>
      <trkpt lat="45.93754" lon="1.10563">
        <ele>268.35</ele>
        <time>2018-09-30T07:59:21Z</time>
      </trkpt>
      <trkpt lat="45.93785" lon="1.10521">
        <ele>264.5</ele>
        <time>2018-09-30T07:59:26Z</time>
      </trkpt>
      <trkpt lat="45.93797" lon="1.10504">
        <ele>264.02</ele>
        <time>2018-09-30T07:59:28Z</time>
      </trkpt>
      <trkpt lat="45.93853" lon="1.10433">
        <ele>263.54</ele>
        <time>2018-09-30T07:59:39Z</time>
      </trkpt>
      <trkpt lat="45.93862" lon="1.1042">
        <ele>264.02</ele>
        <time>2018-09-30T07:59:41Z</time>
      </trkpt>
      <trkpt lat="45.93873" lon="1.10403">
        <ele>264.98</ele>
        <time>2018-09-30T07:59:44Z</time>
      </trkpt>
      <trkpt lat="45.93876" lon="1.10396">
        <ele>264.98</ele>
        <time>2018-09-30T07:59:45Z</time>
      </trkpt>
      <trkpt lat="45.93879" lon="1.10389">
        <ele>264.98</ele>
        <time>2018-09-30T07:59:46Z</time>
      </trkpt>
      <trkpt lat="45.93882" lon="1.10386">
        <ele>265.46</ele>
        <time>2018-09-30T07:59:47Z</time>
      </trkpt>
      <trkpt lat="45.93887" lon="1.10386">
        <ele>265.46</ele>
        <time>2018-09-30T07:59:48Z</time>
      </trkpt>
      <trkpt lat="45.93892" lon="1.10389">
        <ele>265.94</ele>
        <time>2018-09-30T07:59:49Z</time>
      </trkpt>
      <trkpt lat="45.93898" lon="1.10393">
        <ele>265.94</ele>
        <time>2018-09-30T07:59:50Z</time>
      </trkpt>
      <trkpt lat="45.93926" lon="1.10407">
        <ele>266.9</ele>
        <time>2018-09-30T07:59:55Z</time>
      </trkpt>
      <trkpt lat="45.93932" lon="1.10407">
        <ele>266.9</ele>
        <time>2018-09-30T07:59:56Z</time>
      </trkpt>
      <trkpt lat="45.93938" lon="1.10404">
        <ele>266.9</ele>
        <time>2018-09-30T07:59:57Z</time>
      </trkpt>
      <trkpt lat="45.93943" lon="1.104">
        <ele>266.9</ele>
        <time>2018-09-30T07:59:58Z</time>
      </trkpt>
      <trkpt lat="45.93948" lon="1.10396">
        <ele>266.9</ele>
        <time>2018-09-30T07:59:59Z</time>
      </trkpt>
      <trkpt lat="45.93958" lon="1.10389">
        <ele>266.9</ele>
        <time>2018-09-30T08:00:01Z</time>
      </trkpt>
      <trkpt lat="45.93964" lon="1.10387">
        <ele>266.9</ele>
        <time>2018-09-30T08:00:02Z</time>
      </trkpt>
      <trkpt lat="45.93997" lon="1.10376">
        <ele>266.9</ele>
        <time>2018-09-30T08:00:08Z</time>
      </trkpt>
      <trkpt lat="45.94025" lon="1.10366">
        <ele>266.9</ele>
        <time>2018-09-30T08:00:13Z</time>
      </trkpt>
      <trkpt lat="45.9403" lon="1.10365">
        <ele>266.9</ele>
        <time>2018-09-30T08:00:14Z</time>
      </trkpt>
      <trkpt lat="45.9404" lon="1.10361">
        <ele>266.9</ele>
        <time>2018-09-30T08:00:16Z</time>
      </trkpt>
      <trkpt lat="45.94072" lon="1.10353">
        <ele>267.38</ele>
        <time>2018-09-30T08:00:22Z</time>
      </trkpt>
      <trkpt lat="45.94077" lon="1.10352">
        <ele>267.86</ele>
        <time>2018-09-30T08:00:23Z</time>
      </trkpt>
      <trkpt lat="45.94115" lon="1.10344">
        <ele>267.86</ele>
        <time>2018-09-30T08:00:30Z</time>
      </trkpt>
      <trkpt lat="45.9412" lon="1.10343">
        <ele>267.86</ele>
        <time>2018-09-30T08:00:31Z</time>
      </trkpt>
      <trkpt lat="45.94126" lon="1.10343">
        <ele>267.86</ele>
        <time>2018-09-30T08:00:32Z</time>
      </trkpt>
      <trkpt lat="45.94141" lon="1.1034">
        <ele>267.86</ele>
        <time>2018-09-30T08:00:35Z</time>
      </trkpt>
      <trkpt lat="45.94151" lon="1.10334">
        <ele>267.86</ele>
        <time>2018-09-30T08:00:37Z</time>
      </trkpt>
      <trkpt lat="45.94156" lon="1.1033">
        <ele>267.38</ele>
        <time>2018-09-30T08:00:38Z</time>
      </trkpt>
      <trkpt lat="45.94166" lon="1.10321">
        <ele>267.38</ele>
        <time>2018-09-30T08:00:40Z</time>
      </trkpt>
      <trkpt lat="45.94192" lon="1.10289">
        <ele>267.38</ele>
        <time>2018-09-30T08:00:46Z</time>
      </trkpt>
      <trkpt lat="45.94197" lon="1.10284">
        <ele>267.38</ele>
        <time>2018-09-30T08:00:47Z</time>
      </trkpt>
      <trkpt lat="45.94205" lon="1.10274">
        <ele>266.9</ele>
        <time>2018-09-30T08:00:49Z</time>
      </trkpt>
      <trkpt lat="45.94232" lon="1.10253">
        <ele>266.9</ele>
        <time>2018-09-30T08:00:55Z</time>
      </trkpt>
      <trkpt lat="45.94238" lon="1.10251">
        <ele>266.9</ele>
        <time>2018-09-30T08:00:56Z</time>
      </trkpt>
      <trkpt lat="45.94243" lon="1.10249">
        <ele>266.9</ele>
        <time>2018-09-30T08:00:57Z</time>
      </trkpt>
      <trkpt lat="45.94248" lon="1.10248">
        <ele>266.9</ele>
        <time>2018-09-30T08:00:58Z</time>
      </trkpt>
      <trkpt lat="45.94254" lon="1.10247">
        <ele>266.9</ele>
        <time>2018-09-30T08:00:59Z</time>
      </trkpt>
      <trkpt lat="45.94303" lon="1.1024">
        <ele>267.38</ele>
        <time>2018-09-30T08:01:09Z</time>
      </trkpt>
      <trkpt lat="45.9431" lon="1.10234">
        <ele>267.38</ele>
        <time>2018-09-30T08:01:11Z</time>
      </trkpt>
      <trkpt lat="45.94327" lon="1.1021">
        <ele>267.86</ele>
        <time>2018-09-30T08:01:15Z</time>
      </trkpt>
      <trkpt lat="45.94333" lon="1.10204">
        <ele>267.86</ele>
        <time>2018-09-30T08:01:16Z</time>
      </trkpt>
      <trkpt lat="45.94339" lon="1.102">
        <ele>267.86</ele>
        <time>2018-09-30T08:01:17Z</time>
      </trkpt>
      <trkpt lat="45.94344" lon="1.10199">
        <ele>268.35</ele>
        <time>2018-09-30T08:01:18Z</time>
      </trkpt>
      <trkpt lat="45.9435" lon="1.10199">
        <ele>268.35</ele>
        <time>2018-09-30T08:01:19Z</time>
      </trkpt>
      <trkpt lat="45.94356" lon="1.102">
        <ele>268.35</ele>
        <time>2018-09-30T08:01:20Z</time>
      </trkpt>
      <trkpt lat="45.94427" lon="1.10202">
        <ele>269.79</ele>
        <time>2018-09-30T08:01:32Z</time>
      </trkpt>
      <trkpt lat="45.94474" lon="1.1021">
        <ele>271.71</ele>
        <time>2018-09-30T08:01:43Z</time>
      </trkpt>
      <trkpt lat="45.94498" lon="1.10232">
        <ele>272.67</ele>
        <time>2018-09-30T08:01:51Z</time>
      </trkpt>
      <trkpt lat="45.94501" lon="1.10236">
        <ele>272.67</ele>
        <time>2018-09-30T08:01:52Z</time>
      </trkpt>
      <trkpt lat="45.94505" lon="1.10239">
        <ele>272.67</ele>
        <time>2018-09-30T08:01:53Z</time>
      </trkpt>
      <trkpt lat="45.94555" lon="1.10289">
        <ele>274.11</ele>
        <time>2018-09-30T08:02:06Z</time>
      </trkpt>
      <trkpt lat="45.94559" lon="1.1029">
        <ele>274.11</ele>
        <time>2018-09-30T08:02:07Z</time>
      </trkpt>
      <trkpt lat="45.94593" lon="1.10309">
        <ele>275.07</ele>
        <time>2018-09-30T08:02:16Z</time>
      </trkpt>
      <trkpt lat="45.94632" lon="1.10334">
        <ele>276.04</ele>
        <time>2018-09-30T08:02:26Z</time>
      </trkpt>
      <trkpt lat="45.94643" lon="1.1034">
        <ele>276.52</ele>
        <time>2018-09-30T08:02:29Z</time>
      </trkpt>
      <trkpt lat="45.94686" lon="1.10372">
        <ele>277.48</ele>
        <time>2018-09-30T08:02:39Z</time>
      </trkpt>
      <trkpt lat="45.94713" lon="1.10391">
        <ele>279.4</ele>
        <time>2018-09-30T08:02:46Z</time>
      </trkpt>
      <trkpt lat="45.94733" lon="1.10405">
        <ele>279.4</ele>
        <time>2018-09-30T08:02:51Z</time>
      </trkpt>
      <trkpt lat="45.94763" lon="1.10427">
        <ele>280.84</ele>
        <time>2018-09-30T08:02:58Z</time>
      </trkpt>
      <trkpt lat="45.94768" lon="1.1043">
        <ele>281.32</ele>
        <time>2018-09-30T08:02:59Z</time>
      </trkpt>
      <trkpt lat="45.94819" lon="1.10461">
        <ele>283.73</ele>
        <time>2018-09-30T08:03:13Z</time>
      </trkpt>
      <trkpt lat="45.94826" lon="1.10465">
        <ele>284.21</ele>
        <time>2018-09-30T08:03:15Z</time>
      </trkpt>
      <trkpt lat="45.9483" lon="1.10465">
        <ele>284.21</ele>
        <time>2018-09-30T08:03:16Z</time>
      </trkpt>
      <trkpt lat="45.94833" lon="1.10463">
        <ele>284.69</ele>
        <time>2018-09-30T08:03:17Z</time>
      </trkpt>
      <trkpt lat="45.94836" lon="1.10458">
        <ele>284.69</ele>
        <time>2018-09-30T08:03:18Z</time>
      </trkpt>
      <trkpt lat="45.94838" lon="1.10452">
        <ele>285.17</ele>
        <time>2018-09-30T08:03:19Z</time>
      </trkpt>
      <trkpt lat="45.94843" lon="1.10441">
        <ele>285.17</ele>
        <time>2018-09-30T08:03:21Z</time>
      </trkpt>
      <trkpt lat="45.94846" lon="1.10435">
        <ele>285.17</ele>
        <time>2018-09-30T08:03:22Z</time>
      </trkpt>
      <trkpt lat="45.94865" lon="1.10397">
        <ele>286.61</ele>
        <time>2018-09-30T08:03:29Z</time>
      </trkpt>
      <trkpt lat="45.949" lon="1.10312">
        <ele>287.09</ele>
        <time>2018-09-30T08:03:39Z</time>
      </trkpt>
      <trkpt lat="45.94925" lon="1.1025">
        <ele>284.21</ele>
        <time>2018-09-30T08:03:45Z</time>
      </trkpt>
      <trkpt lat="45.94949" lon="1.10203">
        <ele>280.84</ele>
        <time>2018-09-30T08:03:50Z</time>
      </trkpt>
      <trkpt lat="45.94954" lon="1.10194">
        <ele>280.36</ele>
        <time>2018-09-30T08:03:51Z</time>
      </trkpt>
      <trkpt lat="45.9497" lon="1.10161">
        <ele>280.36</ele>
        <time>2018-09-30T08:03:55Z</time>
      </trkpt>
      <trkpt lat="45.9497" lon="1.10151">
        <ele>280.36</ele>
        <time>2018-09-30T08:03:56Z</time>
      </trkpt>
      <trkpt lat="45.94969" lon="1.10142">
        <ele>280.36</ele>
        <time>2018-09-30T08:03:57Z</time>
      </trkpt>
      <trkpt lat="45.94966" lon="1.10134">
        <ele>280.36</ele>
        <time>2018-09-30T08:03:58Z</time>
      </trkpt>
      <trkpt lat="45.94964" lon="1.10125">
        <ele>280.36</ele>
        <time>2018-09-30T08:03:59Z</time>
      </trkpt>
      <trkpt lat="45.9496" lon="1.10117">
        <ele>280.36</ele>
        <time>2018-09-30T08:04:00Z</time>
      </trkpt>
      <trkpt lat="45.94958" lon="1.10107">
        <ele>280.36</ele>
        <time>2018-09-30T08:04:01Z</time>
      </trkpt>
      <trkpt lat="45.94956" lon="1.10095">
        <ele>280.36</ele>
        <time>2018-09-30T08:04:02Z</time>
      </trkpt>
      <trkpt lat="45.94957" lon="1.10083">
        <ele>280.36</ele>
        <time>2018-09-30T08:04:03Z</time>
      </trkpt>
      <trkpt lat="45.94958" lon="1.1007">
        <ele>280.36</ele>
        <time>2018-09-30T08:04:04Z</time>
      </trkpt>
      <trkpt lat="45.94966" lon="1.10028">
        <ele>280.36</ele>
        <time>2018-09-30T08:04:07Z</time>
      </trkpt>
      <trkpt lat="45.94971" lon="1.10015">
        <ele>280.36</ele>
        <time>2018-09-30T08:04:08Z</time>
      </trkpt>
      <trkpt lat="45.94977" lon="1.10002">
        <ele>280.36</ele>
        <time>2018-09-30T08:04:09Z</time>
      </trkpt>
      <trkpt lat="45.95009" lon="1.09945">
        <ele>277</ele>
        <time>2018-09-30T08:04:14Z</time>
      </trkpt>
      <trkpt lat="45.95029" lon="1.09919">
        <ele>273.15</ele>
        <time>2018-09-30T08:04:17Z</time>
      </trkpt>
      <trkpt lat="45.95048" lon="1.099">
        <ele>269.79</ele>
        <time>2018-09-30T08:04:20Z</time>
      </trkpt>
      <trkpt lat="45.95061" lon="1.0989">
        <ele>267.38</ele>
        <time>2018-09-30T08:04:22Z</time>
      </trkpt>
      <trkpt lat="45.95067" lon="1.09886">
        <ele>267.38</ele>
        <time>2018-09-30T08:04:23Z</time>
      </trkpt>
      <trkpt lat="45.95074" lon="1.09883">
        <ele>266.9</ele>
        <time>2018-09-30T08:04:24Z</time>
      </trkpt>
      <trkpt lat="45.95081" lon="1.09878">
        <ele>266.9</ele>
        <time>2018-09-30T08:04:25Z</time>
      </trkpt>
      <trkpt lat="45.95087" lon="1.09873">
        <ele>266.9</ele>
        <time>2018-09-30T08:04:26Z</time>
      </trkpt>
      <trkpt lat="45.95094" lon="1.09869">
        <ele>266.9</ele>
        <time>2018-09-30T08:04:27Z</time>
      </trkpt>
      <trkpt lat="45.95101" lon="1.09866">
        <ele>266.42</ele>
        <time>2018-09-30T08:04:28Z</time>
      </trkpt>
      <trkpt lat="45.95107" lon="1.09864">
        <ele>266.42</ele>
        <time>2018-09-30T08:04:29Z</time>
      </trkpt>
      <trkpt lat="45.95124" lon="1.09862">
        <ele>266.42</ele>
        <time>2018-09-30T08:04:32Z</time>
      </trkpt>
      <trkpt lat="45.9513" lon="1.09861">
        <ele>266.9</ele>
        <time>2018-09-30T08:04:33Z</time>
      </trkpt>
      <trkpt lat="45.95135" lon="1.09859">
        <ele>266.9</ele>
        <time>2018-09-30T08:04:34Z</time>
      </trkpt>
      <trkpt lat="45.95163" lon="1.09853">
        <ele>268.83</ele>
        <time>2018-09-30T08:04:39Z</time>
      </trkpt>
      <trkpt lat="45.95174" lon="1.0985">
        <ele>269.79</ele>
        <time>2018-09-30T08:04:41Z</time>
      </trkpt>
      <trkpt lat="45.95183" lon="1.09847">
        <ele>270.75</ele>
        <time>2018-09-30T08:04:43Z</time>
      </trkpt>
      <trkpt lat="45.95222" lon="1.09847">
        <ele>273.63</ele>
        <time>2018-09-30T08:04:53Z</time>
      </trkpt>
      <trkpt lat="45.9523" lon="1.09846">
        <ele>274.11</ele>
        <time>2018-09-30T08:04:55Z</time>
      </trkpt>
      <trkpt lat="45.95253" lon="1.09819">
        <ele>276.04</ele>
        <time>2018-09-30T08:05:04Z</time>
      </trkpt>
      <trkpt lat="45.95261" lon="1.0979">
        <ele>277</ele>
        <time>2018-09-30T08:05:09Z</time>
      </trkpt>
      <trkpt lat="45.9527" lon="1.09755">
        <ele>277.48</ele>
        <time>2018-09-30T08:05:15Z</time>
      </trkpt>
      <trkpt lat="45.9528" lon="1.09676">
        <ele>277.96</ele>
        <time>2018-09-30T08:05:30Z</time>
      </trkpt>
      <trkpt lat="45.9529" lon="1.09646">
        <ele>279.88</ele>
        <time>2018-09-30T08:05:38Z</time>
      </trkpt>
      <trkpt lat="45.95292" lon="1.09644">
        <ele>279.88</ele>
        <time>2018-09-30T08:05:39Z</time>
      </trkpt>
      <trkpt lat="45.95294" lon="1.09642">
        <ele>280.36</ele>
        <time>2018-09-30T08:05:40Z</time>
      </trkpt>
      <trkpt lat="45.95298" lon="1.0964">
        <ele>280.36</ele>
        <time>2018-09-30T08:05:41Z</time>
      </trkpt>
      <trkpt lat="45.95302" lon="1.09639">
        <ele>280.84</ele>
        <time>2018-09-30T08:05:42Z</time>
      </trkpt>
      <trkpt lat="45.95304" lon="1.09639">
        <ele>280.84</ele>
        <time>2018-09-30T08:05:43Z</time>
      </trkpt>
      <trkpt lat="45.95307" lon="1.09638">
        <ele>281.32</ele>
        <time>2018-09-30T08:05:44Z</time>
      </trkpt>
      <trkpt lat="45.95309" lon="1.09638">
        <ele>281.32</ele>
        <time>2018-09-30T08:05:45Z</time>
      </trkpt>
      <trkpt lat="45.95312" lon="1.09639">
        <ele>281.8</ele>
        <time>2018-09-30T08:05:46Z</time>
      </trkpt>
      <trkpt lat="45.95314" lon="1.09639">
        <ele>281.8</ele>
        <time>2018-09-30T08:05:47Z</time>
      </trkpt>
      <trkpt lat="45.95316" lon="1.0964">
        <ele>281.8</ele>
        <time>2018-09-30T08:05:48Z</time>
      </trkpt>
      <trkpt lat="45.95318" lon="1.09642">
        <ele>282.28</ele>
        <time>2018-09-30T08:05:49Z</time>
      </trkpt>
      <trkpt lat="45.9532" lon="1.09642">
        <ele>282.77</ele>
        <time>2018-09-30T08:05:50Z</time>
      </trkpt>
      <trkpt lat="45.95348" lon="1.09651">
        <ele>284.21</ele>
        <time>2018-09-30T08:06:02Z</time>
      </trkpt>
      <trkpt lat="45.95393" lon="1.09675">
        <ele>287.09</ele>
        <time>2018-09-30T08:06:18Z</time>
      </trkpt>
      <trkpt lat="45.95446" lon="1.09689">
        <ele>288.05</ele>
        <time>2018-09-30T08:06:31Z</time>
      </trkpt>
      <trkpt lat="45.955" lon="1.09704">
        <ele>289.49</ele>
        <time>2018-09-30T08:06:44Z</time>
      </trkpt>
      <trkpt lat="45.95532" lon="1.09716">
        <ele>291.9</ele>
        <time>2018-09-30T08:06:54Z</time>
      </trkpt>
      <trkpt lat="45.95575" lon="1.0973">
        <ele>294.78</ele>
        <time>2018-09-30T08:07:06Z</time>
      </trkpt>
      <trkpt lat="45.95579" lon="1.0973">
        <ele>295.26</ele>
        <time>2018-09-30T08:07:08Z</time>
      </trkpt>
      <trkpt lat="45.9558" lon="1.09728">
        <ele>295.26</ele>
        <time>2018-09-30T08:07:09Z</time>
      </trkpt>
      <trkpt lat="45.95576" lon="1.09722">
        <ele>295.74</ele>
        <time>2018-09-30T08:07:12Z</time>
      </trkpt>
      <trkpt lat="45.95573" lon="1.09723">
        <ele>295.74</ele>
        <time>2018-09-30T08:07:13Z</time>
      </trkpt>
      <trkpt lat="45.9557" lon="1.09725">
        <ele>295.74</ele>
        <time>2018-09-30T08:07:14Z</time>
      </trkpt>
      <trkpt lat="45.95567" lon="1.09725">
        <ele>295.74</ele>
        <time>2018-09-30T08:07:15Z</time>
      </trkpt>
      <trkpt lat="45.95563" lon="1.09725">
        <ele>295.74</ele>
        <time>2018-09-30T08:07:16Z</time>
      </trkpt>
      <trkpt lat="45.95526" lon="1.09709">
        <ele>295.26</ele>
        <time>2018-09-30T08:07:27Z</time>
      </trkpt>
      <trkpt lat="45.95518" lon="1.09706">
        <ele>294.78</ele>
        <time>2018-09-30T08:07:29Z</time>
      </trkpt>
      <trkpt lat="45.95514" lon="1.09705">
        <ele>294.78</ele>
        <time>2018-09-30T08:07:30Z</time>
      </trkpt>
      <trkpt lat="45.95503" lon="1.09702">
        <ele>293.82</ele>
        <time>2018-09-30T08:07:38Z</time>
      </trkpt>
      <trkpt lat="45.95499" lon="1.09701">
        <ele>293.82</ele>
        <time>2018-09-30T08:07:39Z</time>
      </trkpt>
      <trkpt lat="45.95495" lon="1.097">
        <ele>293.82</ele>
        <time>2018-09-30T08:07:40Z</time>
      </trkpt>
      <trkpt lat="45.95491" lon="1.09698">
        <ele>293.82</ele>
        <time>2018-09-30T08:07:41Z</time>
      </trkpt>
      <trkpt lat="45.95451" lon="1.09688">
        <ele>292.38</ele>
        <time>2018-09-30T08:07:49Z</time>
      </trkpt>
      <trkpt lat="45.9543" lon="1.09682">
        <ele>289.01</ele>
        <time>2018-09-30T08:07:55Z</time>
      </trkpt>
      <trkpt lat="45.95423" lon="1.09681">
        <ele>288.53</ele>
        <time>2018-09-30T08:08:00Z</time>
      </trkpt>
      <trkpt lat="45.9545" lon="1.09689">
        <ele>288.53</ele>
        <time>2018-09-30T08:08:09Z</time>
      </trkpt>
      <trkpt lat="45.9549" lon="1.097">
        <ele>289.49</ele>
        <time>2018-09-30T08:08:22Z</time>
      </trkpt>
      <trkpt lat="45.95509" lon="1.09705">
        <ele>291.42</ele>
        <time>2018-09-30T08:08:33Z</time>
      </trkpt>
      <trkpt lat="45.95536" lon="1.09715">
        <ele>293.82</ele>
        <time>2018-09-30T08:08:46Z</time>
      </trkpt>
      <trkpt lat="45.95574" lon="1.09728">
        <ele>294.78</ele>
        <time>2018-09-30T08:09:00Z</time>
      </trkpt>
      <trkpt lat="45.95628" lon="1.09744">
        <ele>294.78</ele>
        <time>2018-09-30T08:09:13Z</time>
      </trkpt>
      <trkpt lat="45.95664" lon="1.09756">
        <ele>294.3</ele>
        <time>2018-09-30T08:09:21Z</time>
      </trkpt>
      <trkpt lat="45.95707" lon="1.09774">
        <ele>293.82</ele>
        <time>2018-09-30T08:09:33Z</time>
      </trkpt>
      <trkpt lat="45.9571" lon="1.09779">
        <ele>293.82</ele>
        <time>2018-09-30T08:09:35Z</time>
      </trkpt>
      <trkpt lat="45.9571" lon="1.09783">
        <ele>293.82</ele>
        <time>2018-09-30T08:09:36Z</time>
      </trkpt>
      <trkpt lat="45.95701" lon="1.09815">
        <ele>293.82</ele>
        <time>2018-09-30T08:09:42Z</time>
      </trkpt>
      <trkpt lat="45.95699" lon="1.09821">
        <ele>293.82</ele>
        <time>2018-09-30T08:09:43Z</time>
      </trkpt>
      <trkpt lat="45.95695" lon="1.09834">
        <ele>293.82</ele>
        <time>2018-09-30T08:09:45Z</time>
      </trkpt>
      <trkpt lat="45.95693" lon="1.0984">
        <ele>293.82</ele>
        <time>2018-09-30T08:09:46Z</time>
      </trkpt>
      <trkpt lat="45.95643" lon="1.0996">
        <ele>292.38</ele>
        <time>2018-09-30T08:10:03Z</time>
      </trkpt>
      <trkpt lat="45.9562" lon="1.10028">
        <ele>289.97</ele>
        <time>2018-09-30T08:10:11Z</time>
      </trkpt>
      <trkpt lat="45.95619" lon="1.10038">
        <ele>289.97</ele>
        <time>2018-09-30T08:10:12Z</time>
      </trkpt>
      <trkpt lat="45.9562" lon="1.10048">
        <ele>289.49</ele>
        <time>2018-09-30T08:10:13Z</time>
      </trkpt>
      <trkpt lat="45.95622" lon="1.10058">
        <ele>289.49</ele>
        <time>2018-09-30T08:10:14Z</time>
      </trkpt>
      <trkpt lat="45.95624" lon="1.10067">
        <ele>289.49</ele>
        <time>2018-09-30T08:10:15Z</time>
      </trkpt>
      <trkpt lat="45.95627" lon="1.10076">
        <ele>289.01</ele>
        <time>2018-09-30T08:10:16Z</time>
      </trkpt>
      <trkpt lat="45.9563" lon="1.10085">
        <ele>289.01</ele>
        <time>2018-09-30T08:10:17Z</time>
      </trkpt>
      <trkpt lat="45.95634" lon="1.10094">
        <ele>289.01</ele>
        <time>2018-09-30T08:10:18Z</time>
      </trkpt>
      <trkpt lat="45.95638" lon="1.10102">
        <ele>289.01</ele>
        <time>2018-09-30T08:10:19Z</time>
      </trkpt>
      <trkpt lat="45.95692" lon="1.10188">
        <ele>286.61</ele>
        <time>2018-09-30T08:10:32Z</time>
      </trkpt>
      <trkpt lat="45.9573" lon="1.10241">
        <ele>286.13</ele>
        <time>2018-09-30T08:10:40Z</time>
      </trkpt>
      <trkpt lat="45.9574" lon="1.10252">
        <ele>286.13</ele>
        <time>2018-09-30T08:10:42Z</time>
      </trkpt>
      <trkpt lat="45.95745" lon="1.10257">
        <ele>285.65</ele>
        <time>2018-09-30T08:10:43Z</time>
      </trkpt>
      <trkpt lat="45.95765" lon="1.10283">
        <ele>285.17</ele>
        <time>2018-09-30T08:10:47Z</time>
      </trkpt>
      <trkpt lat="45.95768" lon="1.10291">
        <ele>285.17</ele>
        <time>2018-09-30T08:10:48Z</time>
      </trkpt>
      <trkpt lat="45.95771" lon="1.10299">
        <ele>285.17</ele>
        <time>2018-09-30T08:10:49Z</time>
      </trkpt>
      <trkpt lat="45.95812" lon="1.10391">
        <ele>286.13</ele>
        <time>2018-09-30T08:11:04Z</time>
      </trkpt>
      <trkpt lat="45.95845" lon="1.10429">
        <ele>286.61</ele>
        <time>2018-09-30T08:11:16Z</time>
      </trkpt>
      <trkpt lat="45.95844" lon="1.10433">
        <ele>286.61</ele>
        <time>2018-09-30T08:11:17Z</time>
      </trkpt>
      <trkpt lat="45.95838" lon="1.1045">
        <ele>286.61</ele>
        <time>2018-09-30T08:11:23Z</time>
      </trkpt>
      <trkpt lat="45.95836" lon="1.10448">
        <ele>286.13</ele>
        <time>2018-09-30T08:11:28Z</time>
      </trkpt>
      <trkpt lat="45.95834" lon="1.1044">
        <ele>285.17</ele>
        <time>2018-09-30T08:11:39Z</time>
      </trkpt>
      <trkpt lat="45.95833" lon="1.10434">
        <ele>285.17</ele>
        <time>2018-09-30T08:11:41Z</time>
      </trkpt>
      <trkpt lat="45.95827" lon="1.10423">
        <ele>285.17</ele>
        <time>2018-09-30T08:11:48Z</time>
      </trkpt>
      <trkpt lat="45.95817" lon="1.10414">
        <ele>286.13</ele>
        <time>2018-09-30T08:11:55Z</time>
      </trkpt>
      <trkpt lat="45.95811" lon="1.10415">
        <ele>286.13</ele>
        <time>2018-09-30T08:12:03Z</time>
      </trkpt>
      <trkpt lat="45.95808" lon="1.10399">
        <ele>285.17</ele>
        <time>2018-09-30T08:14:24Z</time>
      </trkpt>
      <trkpt lat="45.95808" lon="1.10382">
        <ele>285.17</ele>
        <time>2018-09-30T08:14:31Z</time>
      </trkpt>
      <trkpt lat="45.95811" lon="1.10383">
        <ele>285.65</ele>
        <time>2018-09-30T08:14:33Z</time>
      </trkpt>
      <trkpt lat="45.95813" lon="1.10386">
        <ele>285.65</ele>
        <time>2018-09-30T08:14:34Z</time>
      </trkpt>
      <trkpt lat="45.95815" lon="1.10389">
        <ele>286.13</ele>
        <time>2018-09-30T08:14:35Z</time>
      </trkpt>
      <trkpt lat="45.95817" lon="1.10393">
        <ele>286.13</ele>
        <time>2018-09-30T08:14:36Z</time>
      </trkpt>
      <trkpt lat="45.95838" lon="1.10419">
        <ele>287.09</ele>
        <time>2018-09-30T08:14:43Z</time>
      </trkpt>
      <trkpt lat="45.95906" lon="1.10482">
        <ele>285.17</ele>
        <time>2018-09-30T08:14:58Z</time>
      </trkpt>
      <trkpt lat="45.95975" lon="1.10546">
        <ele>285.17</ele>
        <time>2018-09-30T08:15:13Z</time>
      </trkpt>
      <trkpt lat="45.95979" lon="1.1055">
        <ele>285.17</ele>
        <time>2018-09-30T08:15:14Z</time>
      </trkpt>
      <trkpt lat="45.96011" lon="1.10582">
        <ele>285.65</ele>
        <time>2018-09-30T08:15:22Z</time>
      </trkpt>
      <trkpt lat="45.96014" lon="1.1059">
        <ele>286.13</ele>
        <time>2018-09-30T08:15:23Z</time>
      </trkpt>
      <trkpt lat="45.96016" lon="1.10598">
        <ele>286.13</ele>
        <time>2018-09-30T08:15:24Z</time>
      </trkpt>
      <trkpt lat="45.96016" lon="1.10607">
        <ele>286.13</ele>
        <time>2018-09-30T08:15:25Z</time>
      </trkpt>
      <trkpt lat="45.96015" lon="1.10616">
        <ele>286.13</ele>
        <time>2018-09-30T08:15:26Z</time>
      </trkpt>
      <trkpt lat="45.96015" lon="1.10625">
        <ele>286.13</ele>
        <time>2018-09-30T08:15:27Z</time>
      </trkpt>
      <trkpt lat="45.96003" lon="1.1073">
        <ele>285.17</ele>
        <time>2018-09-30T08:15:40Z</time>
      </trkpt>
      <trkpt lat="45.96" lon="1.10782">
        <ele>285.65</ele>
        <time>2018-09-30T08:15:49Z</time>
      </trkpt>
      <trkpt lat="45.96002" lon="1.10785">
        <ele>285.65</ele>
        <time>2018-09-30T08:15:50Z</time>
      </trkpt>
      <trkpt lat="45.96004" lon="1.10787">
        <ele>286.13</ele>
        <time>2018-09-30T08:15:51Z</time>
      </trkpt>
      <trkpt lat="45.96006" lon="1.10788">
        <ele>286.61</ele>
        <time>2018-09-30T08:15:52Z</time>
      </trkpt>
      <trkpt lat="45.96008" lon="1.1079">
        <ele>287.09</ele>
        <time>2018-09-30T08:15:53Z</time>
      </trkpt>
      <trkpt lat="45.9601" lon="1.10791">
        <ele>287.09</ele>
        <time>2018-09-30T08:15:54Z</time>
      </trkpt>
      <trkpt lat="45.96024" lon="1.10791">
        <ele>289.49</ele>
        <time>2018-09-30T08:16:04Z</time>
      </trkpt>
      <trkpt lat="45.96036" lon="1.10795">
        <ele>289.97</ele>
        <time>2018-09-30T08:21:23Z</time>
      </trkpt>
      <trkpt lat="45.96068" lon="1.10802">
        <ele>290.94</ele>
        <time>2018-09-30T08:21:35Z</time>
      </trkpt>
      <trkpt lat="45.96104" lon="1.10819">
        <ele>292.38</ele>
        <time>2018-09-30T08:21:45Z</time>
      </trkpt>
      <trkpt lat="45.96128" lon="1.10821">
        <ele>295.74</ele>
        <time>2018-09-30T08:21:54Z</time>
      </trkpt>
      <trkpt lat="45.96167" lon="1.10813">
        <ele>298.15</ele>
        <time>2018-09-30T08:22:06Z</time>
      </trkpt>
      <trkpt lat="45.96206" lon="1.10806">
        <ele>298.63</ele>
        <time>2018-09-30T08:22:19Z</time>
      </trkpt>
      <trkpt lat="45.96235" lon="1.10811">
        <ele>300.07</ele>
        <time>2018-09-30T08:22:32Z</time>
      </trkpt>
      <trkpt lat="45.96279" lon="1.10837">
        <ele>301.03</ele>
        <time>2018-09-30T08:22:46Z</time>
      </trkpt>
      <trkpt lat="45.96327" lon="1.10865">
        <ele>301.03</ele>
        <time>2018-09-30T08:22:59Z</time>
      </trkpt>
      <trkpt lat="45.96365" lon="1.10889">
        <ele>301.99</ele>
        <time>2018-09-30T08:23:09Z</time>
      </trkpt>
      <trkpt lat="45.96384" lon="1.10896">
        <ele>301.99</ele>
        <time>2018-09-30T08:23:12Z</time>
      </trkpt>
      <trkpt lat="45.96391" lon="1.10896">
        <ele>301.99</ele>
        <time>2018-09-30T08:23:13Z</time>
      </trkpt>
      <trkpt lat="45.96398" lon="1.10893">
        <ele>301.99</ele>
        <time>2018-09-30T08:23:14Z</time>
      </trkpt>
      <trkpt lat="45.96405" lon="1.10888">
        <ele>301.99</ele>
        <time>2018-09-30T08:23:15Z</time>
      </trkpt>
      <trkpt lat="45.96409" lon="1.10882">
        <ele>301.51</ele>
        <time>2018-09-30T08:23:16Z</time>
      </trkpt>
      <trkpt lat="45.96412" lon="1.10877">
        <ele>301.03</ele>
        <time>2018-09-30T08:23:17Z</time>
      </trkpt>
      <trkpt lat="45.9642" lon="1.10861">
        <ele>297.18</ele>
        <time>2018-09-30T08:23:21Z</time>
      </trkpt>
      <trkpt lat="45.96442" lon="1.10832">
        <ele>297.18</ele>
        <time>2018-09-30T08:23:32Z</time>
      </trkpt>
      <trkpt lat="45.9647" lon="1.10851">
        <ele>299.11</ele>
        <time>2018-09-30T08:23:41Z</time>
      </trkpt>
      <trkpt lat="45.96479" lon="1.10858">
        <ele>299.59</ele>
        <time>2018-09-30T08:23:43Z</time>
      </trkpt>
      <trkpt lat="45.96489" lon="1.10864">
        <ele>300.07</ele>
        <time>2018-09-30T08:23:45Z</time>
      </trkpt>
      <trkpt lat="45.96493" lon="1.10867">
        <ele>300.07</ele>
        <time>2018-09-30T08:23:46Z</time>
      </trkpt>
      <trkpt lat="45.9652" lon="1.10887">
        <ele>302.47</ele>
        <time>2018-09-30T08:23:56Z</time>
      </trkpt>
      <trkpt lat="45.96556" lon="1.10918">
        <ele>304.39</ele>
        <time>2018-09-30T08:24:08Z</time>
      </trkpt>
      <trkpt lat="45.96605" lon="1.10961">
        <ele>304.39</ele>
        <time>2018-09-30T08:24:22Z</time>
      </trkpt>
      <trkpt lat="45.96635" lon="1.10989">
        <ele>306.8</ele>
        <time>2018-09-30T08:24:34Z</time>
      </trkpt>
      <trkpt lat="45.96649" lon="1.11003">
        <ele>309.2</ele>
        <time>2018-09-30T08:24:44Z</time>
      </trkpt>
      <trkpt lat="45.96649" lon="1.11006">
        <ele>309.2</ele>
        <time>2018-09-30T08:24:45Z</time>
      </trkpt>
      <trkpt lat="45.96636" lon="1.11037">
        <ele>308.24</ele>
        <time>2018-09-30T08:24:56Z</time>
      </trkpt>
      <trkpt lat="45.96615" lon="1.11054">
        <ele>308.72</ele>
        <time>2018-09-30T08:25:08Z</time>
      </trkpt>
      <trkpt lat="45.96598" lon="1.11071">
        <ele>310.64</ele>
        <time>2018-09-30T08:25:19Z</time>
      </trkpt>
      <trkpt lat="45.96582" lon="1.11092">
        <ele>312.57</ele>
        <time>2018-09-30T08:25:30Z</time>
      </trkpt>
      <trkpt lat="45.9657" lon="1.11116">
        <ele>314.01</ele>
        <time>2018-09-30T08:25:40Z</time>
      </trkpt>
      <trkpt lat="45.96569" lon="1.11119">
        <ele>314.01</ele>
        <time>2018-09-30T08:25:41Z</time>
      </trkpt>
      <trkpt lat="45.96553" lon="1.11164">
        <ele>315.45</ele>
        <time>2018-09-30T08:25:53Z</time>
      </trkpt>
      <trkpt lat="45.96536" lon="1.11205">
        <ele>315.93</ele>
        <time>2018-09-30T08:26:04Z</time>
      </trkpt>
      <trkpt lat="45.96505" lon="1.11254">
        <ele>315.93</ele>
        <time>2018-09-30T08:26:14Z</time>
      </trkpt>
      <trkpt lat="45.9645" lon="1.11339">
        <ele>314.01</ele>
        <time>2018-09-30T08:26:26Z</time>
      </trkpt>
      <trkpt lat="45.96406" lon="1.11394">
        <ele>312.57</ele>
        <time>2018-09-30T08:26:37Z</time>
      </trkpt>
      <trkpt lat="45.96382" lon="1.11446">
        <ele>315.93</ele>
        <time>2018-09-30T08:26:49Z</time>
      </trkpt>
      <trkpt lat="45.96381" lon="1.11496">
        <ele>317.85</ele>
        <time>2018-09-30T08:26:58Z</time>
      </trkpt>
      <trkpt lat="45.96381" lon="1.11503">
        <ele>317.85</ele>
        <time>2018-09-30T08:26:59Z</time>
      </trkpt>
      <trkpt lat="45.96377" lon="1.11602">
        <ele>317.37</ele>
        <time>2018-09-30T08:27:09Z</time>
      </trkpt>
      <trkpt lat="45.96376" lon="1.11633">
        <ele>316.41</ele>
        <time>2018-09-30T08:27:12Z</time>
      </trkpt>
      <trkpt lat="45.96377" lon="1.11649">
        <ele>314.97</ele>
        <time>2018-09-30T08:27:14Z</time>
      </trkpt>
      <trkpt lat="45.96377" lon="1.11656">
        <ele>314.97</ele>
        <time>2018-09-30T08:27:15Z</time>
      </trkpt>
      <trkpt lat="45.96393" lon="1.11728">
        <ele>314.97</ele>
        <time>2018-09-30T08:27:25Z</time>
      </trkpt>
      <trkpt lat="45.96399" lon="1.11773">
        <ele>318.33</ele>
        <time>2018-09-30T08:27:32Z</time>
      </trkpt>
      <trkpt lat="45.96398" lon="1.1182">
        <ele>320.74</ele>
        <time>2018-09-30T08:27:42Z</time>
      </trkpt>
      <trkpt lat="45.96387" lon="1.11834">
        <ele>320.74</ele>
        <time>2018-09-30T08:27:46Z</time>
      </trkpt>
      <trkpt lat="45.96387" lon="1.11839">
        <ele>320.74</ele>
        <time>2018-09-30T08:27:47Z</time>
      </trkpt>
      <trkpt lat="45.96387" lon="1.11845">
        <ele>320.26</ele>
        <time>2018-09-30T08:27:48Z</time>
      </trkpt>
      <trkpt lat="45.96388" lon="1.1185">
        <ele>319.78</ele>
        <time>2018-09-30T08:27:49Z</time>
      </trkpt>
      <trkpt lat="45.96389" lon="1.11858">
        <ele>319.78</ele>
        <time>2018-09-30T08:27:50Z</time>
      </trkpt>
      <trkpt lat="45.96403" lon="1.11932">
        <ele>318.81</ele>
        <time>2018-09-30T08:27:58Z</time>
      </trkpt>
      <trkpt lat="45.96418" lon="1.11997">
        <ele>315.93</ele>
        <time>2018-09-30T08:28:04Z</time>
      </trkpt>
      <trkpt lat="45.96422" lon="1.12017">
        <ele>314.01</ele>
        <time>2018-09-30T08:28:06Z</time>
      </trkpt>
      <trkpt lat="45.96425" lon="1.12027">
        <ele>313.53</ele>
        <time>2018-09-30T08:28:07Z</time>
      </trkpt>
      <trkpt lat="45.96429" lon="1.12044">
        <ele>312.57</ele>
        <time>2018-09-30T08:28:09Z</time>
      </trkpt>
      <trkpt lat="45.96435" lon="1.12082">
        <ele>311.6</ele>
        <time>2018-09-30T08:28:13Z</time>
      </trkpt>
      <trkpt lat="45.96438" lon="1.12093">
        <ele>311.12</ele>
        <time>2018-09-30T08:28:14Z</time>
      </trkpt>
      <trkpt lat="45.96441" lon="1.12103">
        <ele>310.64</ele>
        <time>2018-09-30T08:28:15Z</time>
      </trkpt>
      <trkpt lat="45.96483" lon="1.12206">
        <ele>307.76</ele>
        <time>2018-09-30T08:28:25Z</time>
      </trkpt>
      <trkpt lat="45.96497" lon="1.12231">
        <ele>306.8</ele>
        <time>2018-09-30T08:28:28Z</time>
      </trkpt>
      <trkpt lat="45.96515" lon="1.12264">
        <ele>306.32</ele>
        <time>2018-09-30T08:28:32Z</time>
      </trkpt>
      <trkpt lat="45.96518" lon="1.12272">
        <ele>306.32</ele>
        <time>2018-09-30T08:28:33Z</time>
      </trkpt>
      <trkpt lat="45.9652" lon="1.12279">
        <ele>306.32</ele>
        <time>2018-09-30T08:28:34Z</time>
      </trkpt>
      <trkpt lat="45.96521" lon="1.12286">
        <ele>306.32</ele>
        <time>2018-09-30T08:28:35Z</time>
      </trkpt>
      <trkpt lat="45.96523" lon="1.12294">
        <ele>306.32</ele>
        <time>2018-09-30T08:28:36Z</time>
      </trkpt>
      <trkpt lat="45.96527" lon="1.12318">
        <ele>306.8</ele>
        <time>2018-09-30T08:28:39Z</time>
      </trkpt>
      <trkpt lat="45.96528" lon="1.12326">
        <ele>307.28</ele>
        <time>2018-09-30T08:28:40Z</time>
      </trkpt>
      <trkpt lat="45.9653" lon="1.12335">
        <ele>307.76</ele>
        <time>2018-09-30T08:28:41Z</time>
      </trkpt>
      <trkpt lat="45.96531" lon="1.12343">
        <ele>308.24</ele>
        <time>2018-09-30T08:28:42Z</time>
      </trkpt>
      <trkpt lat="45.96533" lon="1.1235">
        <ele>308.24</ele>
        <time>2018-09-30T08:28:43Z</time>
      </trkpt>
      <trkpt lat="45.96535" lon="1.12358">
        <ele>308.24</ele>
        <time>2018-09-30T08:28:44Z</time>
      </trkpt>
      <trkpt lat="45.9654" lon="1.12387">
        <ele>309.2</ele>
        <time>2018-09-30T08:28:48Z</time>
      </trkpt>
      <trkpt lat="45.9654" lon="1.12392">
        <ele>309.2</ele>
        <time>2018-09-30T08:28:49Z</time>
      </trkpt>
      <trkpt lat="45.96539" lon="1.12396">
        <ele>309.2</ele>
        <time>2018-09-30T08:28:50Z</time>
      </trkpt>
      <trkpt lat="45.96536" lon="1.12403">
        <ele>309.68</ele>
        <time>2018-09-30T08:28:52Z</time>
      </trkpt>
      <trkpt lat="45.96538" lon="1.12405">
        <ele>309.68</ele>
        <time>2018-09-30T08:28:53Z</time>
      </trkpt>
      <trkpt lat="45.96539" lon="1.12405">
        <ele>310.16</ele>
        <time>2018-09-30T08:28:54Z</time>
      </trkpt>
      <trkpt lat="45.9654" lon="1.12402">
        <ele>310.64</ele>
        <time>2018-09-30T08:28:55Z</time>
      </trkpt>
      <trkpt lat="45.9654" lon="1.12398">
        <ele>311.12</ele>
        <time>2018-09-30T08:28:56Z</time>
      </trkpt>
      <trkpt lat="45.9654" lon="1.12382">
        <ele>312.09</ele>
        <time>2018-09-30T08:28:59Z</time>
      </trkpt>
      <trkpt lat="45.96532" lon="1.12331">
        <ele>312.09</ele>
        <time>2018-09-30T08:29:09Z</time>
      </trkpt>
      <trkpt lat="45.96529" lon="1.12327">
        <ele>311.6</ele>
        <time>2018-09-30T08:29:12Z</time>
      </trkpt>
      <trkpt lat="45.96528" lon="1.12329">
        <ele>311.12</ele>
        <time>2018-09-30T08:29:13Z</time>
      </trkpt>
      <trkpt lat="45.9653" lon="1.12336">
        <ele>311.12</ele>
        <time>2018-09-30T08:29:16Z</time>
      </trkpt>
      <trkpt lat="45.9653" lon="1.12338">
        <ele>311.12</ele>
        <time>2018-09-30T08:29:17Z</time>
      </trkpt>
      <trkpt lat="45.96531" lon="1.12341">
        <ele>311.12</ele>
        <time>2018-09-30T08:29:18Z</time>
      </trkpt>
      <trkpt lat="45.96531" lon="1.12345">
        <ele>311.12</ele>
        <time>2018-09-30T08:29:19Z</time>
      </trkpt>
      <trkpt lat="45.96541" lon="1.12387">
        <ele>310.64</ele>
        <time>2018-09-30T08:29:30Z</time>
      </trkpt>
      <trkpt lat="45.96545" lon="1.12397">
        <ele>311.12</ele>
        <time>2018-09-30T08:29:33Z</time>
      </trkpt>
      <trkpt lat="45.96547" lon="1.12398">
        <ele>311.6</ele>
        <time>2018-09-30T08:29:34Z</time>
      </trkpt>
      <trkpt lat="45.96594" lon="1.12389">
        <ele>313.53</ele>
        <time>2018-09-30T08:29:46Z</time>
      </trkpt>
      <trkpt lat="45.96669" lon="1.1237">
        <ele>314.01</ele>
        <time>2018-09-30T08:30:02Z</time>
      </trkpt>
      <trkpt lat="45.9673" lon="1.12353">
        <ele>312.09</ele>
        <time>2018-09-30T08:30:13Z</time>
      </trkpt>
      <trkpt lat="45.96744" lon="1.12348">
        <ele>312.09</ele>
        <time>2018-09-30T08:30:16Z</time>
      </trkpt>
      <trkpt lat="45.96749" lon="1.12346">
        <ele>312.09</ele>
        <time>2018-09-30T08:30:17Z</time>
      </trkpt>
      <trkpt lat="45.96772" lon="1.1234">
        <ele>312.09</ele>
        <time>2018-09-30T08:30:22Z</time>
      </trkpt>
      <trkpt lat="45.96777" lon="1.12339">
        <ele>312.57</ele>
        <time>2018-09-30T08:30:23Z</time>
      </trkpt>
      <trkpt lat="45.96812" lon="1.12326">
        <ele>314.49</ele>
        <time>2018-09-30T08:30:33Z</time>
      </trkpt>
      <trkpt lat="45.96868" lon="1.1231">
        <ele>315.93</ele>
        <time>2018-09-30T08:30:47Z</time>
      </trkpt>
      <trkpt lat="45.96877" lon="1.12307">
        <ele>315.93</ele>
        <time>2018-09-30T08:30:49Z</time>
      </trkpt>
      <trkpt lat="45.96902" lon="1.12303">
        <ele>315.93</ele>
        <time>2018-09-30T08:30:54Z</time>
      </trkpt>
      <trkpt lat="45.96951" lon="1.12291">
        <ele>316.41</ele>
        <time>2018-09-30T08:31:04Z</time>
      </trkpt>
      <trkpt lat="45.97005" lon="1.12277">
        <ele>316.89</ele>
        <time>2018-09-30T08:31:16Z</time>
      </trkpt>
      <trkpt lat="45.97046" lon="1.12267">
        <ele>317.85</ele>
        <time>2018-09-30T08:31:26Z</time>
      </trkpt>
      <trkpt lat="45.97093" lon="1.12251">
        <ele>319.3</ele>
        <time>2018-09-30T08:31:37Z</time>
      </trkpt>
      <trkpt lat="45.97128" lon="1.12245">
        <ele>320.26</ele>
        <time>2018-09-30T08:31:47Z</time>
      </trkpt>
      <trkpt lat="45.9713" lon="1.12248">
        <ele>320.26</ele>
        <time>2018-09-30T08:31:48Z</time>
      </trkpt>
      <trkpt lat="45.97131" lon="1.12251">
        <ele>320.74</ele>
        <time>2018-09-30T08:31:49Z</time>
      </trkpt>
      <trkpt lat="45.97132" lon="1.12255">
        <ele>320.74</ele>
        <time>2018-09-30T08:31:50Z</time>
      </trkpt>
      <trkpt lat="45.97133" lon="1.1226">
        <ele>320.74</ele>
        <time>2018-09-30T08:31:51Z</time>
      </trkpt>
      <trkpt lat="45.97134" lon="1.12265">
        <ele>321.22</ele>
        <time>2018-09-30T08:31:52Z</time>
      </trkpt>
      <trkpt lat="45.97135" lon="1.1227">
        <ele>321.22</ele>
        <time>2018-09-30T08:31:53Z</time>
      </trkpt>
      <trkpt lat="45.97142" lon="1.12345">
        <ele>322.18</ele>
        <time>2018-09-30T08:32:07Z</time>
      </trkpt>
      <trkpt lat="45.97144" lon="1.12379">
        <ele>322.18</ele>
        <time>2018-09-30T08:32:13Z</time>
      </trkpt>
      <trkpt lat="45.97145" lon="1.12442">
        <ele>321.22</ele>
        <time>2018-09-30T08:32:24Z</time>
      </trkpt>
      <trkpt lat="45.97142" lon="1.12511">
        <ele>321.22</ele>
        <time>2018-09-30T08:32:36Z</time>
      </trkpt>
      <trkpt lat="45.97146" lon="1.12575">
        <ele>321.7</ele>
        <time>2018-09-30T08:32:48Z</time>
      </trkpt>
      <trkpt lat="45.97154" lon="1.12627">
        <ele>322.18</ele>
        <time>2018-09-30T08:32:57Z</time>
      </trkpt>
      <trkpt lat="45.97171" lon="1.12697">
        <ele>322.18</ele>
        <time>2018-09-30T08:33:06Z</time>
      </trkpt>
      <trkpt lat="45.97178" lon="1.12826">
        <ele>319.3</ele>
        <time>2018-09-30T08:33:20Z</time>
      </trkpt>
      <trkpt lat="45.97176" lon="1.12874">
        <ele>317.85</ele>
        <time>2018-09-30T08:33:25Z</time>
      </trkpt>
      <trkpt lat="45.97171" lon="1.12994">
        <ele>314.97</ele>
        <time>2018-09-30T08:33:36Z</time>
      </trkpt>
      <trkpt lat="45.97162" lon="1.13037">
        <ele>314.97</ele>
        <time>2018-09-30T08:33:40Z</time>
      </trkpt>
      <trkpt lat="45.97158" lon="1.13046">
        <ele>314.49</ele>
        <time>2018-09-30T08:33:41Z</time>
      </trkpt>
      <trkpt lat="45.97152" lon="1.13064">
        <ele>314.01</ele>
        <time>2018-09-30T08:33:43Z</time>
      </trkpt>
      <trkpt lat="45.97148" lon="1.13081">
        <ele>314.01</ele>
        <time>2018-09-30T08:33:45Z</time>
      </trkpt>
      <trkpt lat="45.97146" lon="1.1309">
        <ele>314.01</ele>
        <time>2018-09-30T08:33:46Z</time>
      </trkpt>
      <trkpt lat="45.9714" lon="1.13114">
        <ele>314.01</ele>
        <time>2018-09-30T08:33:49Z</time>
      </trkpt>
      <trkpt lat="45.97123" lon="1.13211">
        <ele>314.97</ele>
        <time>2018-09-30T08:34:00Z</time>
      </trkpt>
      <trkpt lat="45.97112" lon="1.13323">
        <ele>314.97</ele>
        <time>2018-09-30T08:34:13Z</time>
      </trkpt>
      <trkpt lat="45.9711" lon="1.13343">
        <ele>314.97</ele>
        <time>2018-09-30T08:34:16Z</time>
      </trkpt>
      <trkpt lat="45.97105" lon="1.13379">
        <ele>315.93</ele>
        <time>2018-09-30T08:34:22Z</time>
      </trkpt>
      <trkpt lat="45.97103" lon="1.13385">
        <ele>315.93</ele>
        <time>2018-09-30T08:34:23Z</time>
      </trkpt>
      <trkpt lat="45.97101" lon="1.13391">
        <ele>316.41</ele>
        <time>2018-09-30T08:34:24Z</time>
      </trkpt>
      <trkpt lat="45.97098" lon="1.13404">
        <ele>316.41</ele>
        <time>2018-09-30T08:34:26Z</time>
      </trkpt>
      <trkpt lat="45.97096" lon="1.1341">
        <ele>316.41</ele>
        <time>2018-09-30T08:34:27Z</time>
      </trkpt>
      <trkpt lat="45.97095" lon="1.13414">
        <ele>316.41</ele>
        <time>2018-09-30T08:34:28Z</time>
      </trkpt>
      <trkpt lat="45.97094" lon="1.13418">
        <ele>316.41</ele>
        <time>2018-09-30T08:34:29Z</time>
      </trkpt>
      <trkpt lat="45.97092" lon="1.13421">
        <ele>316.41</ele>
        <time>2018-09-30T08:34:30Z</time>
      </trkpt>
      <trkpt lat="45.97089" lon="1.13429">
        <ele>316.41</ele>
        <time>2018-09-30T08:34:32Z</time>
      </trkpt>
      <trkpt lat="45.97088" lon="1.13434">
        <ele>316.41</ele>
        <time>2018-09-30T08:34:33Z</time>
      </trkpt>
      <trkpt lat="45.97072" lon="1.13519">
        <ele>315.93</ele>
        <time>2018-09-30T08:34:46Z</time>
      </trkpt>
      <trkpt lat="45.97069" lon="1.13539">
        <ele>315.93</ele>
        <time>2018-09-30T08:34:49Z</time>
      </trkpt>
      <trkpt lat="45.97068" lon="1.13546">
        <ele>315.93</ele>
        <time>2018-09-30T08:34:50Z</time>
      </trkpt>
      <trkpt lat="45.97062" lon="1.13676">
        <ele>314.97</ele>
        <time>2018-09-30T08:35:05Z</time>
      </trkpt>
      <trkpt lat="45.97059" lon="1.13706">
        <ele>314.49</ele>
        <time>2018-09-30T08:35:08Z</time>
      </trkpt>
      <trkpt lat="45.97058" lon="1.13716">
        <ele>314.49</ele>
        <time>2018-09-30T08:35:09Z</time>
      </trkpt>
      <trkpt lat="45.97058" lon="1.13727">
        <ele>314.49</ele>
        <time>2018-09-30T08:35:10Z</time>
      </trkpt>
      <trkpt lat="45.97057" lon="1.13737">
        <ele>314.49</ele>
        <time>2018-09-30T08:35:11Z</time>
      </trkpt>
      <trkpt lat="45.97057" lon="1.13747">
        <ele>314.49</ele>
        <time>2018-09-30T08:35:12Z</time>
      </trkpt>
      <trkpt lat="45.97037" lon="1.13855">
        <ele>313.05</ele>
        <time>2018-09-30T08:35:23Z</time>
      </trkpt>
      <trkpt lat="45.97019" lon="1.13898">
        <ele>312.57</ele>
        <time>2018-09-30T08:35:28Z</time>
      </trkpt>
      <trkpt lat="45.96997" lon="1.1394">
        <ele>312.57</ele>
        <time>2018-09-30T08:35:34Z</time>
      </trkpt>
      <trkpt lat="45.96984" lon="1.13968">
        <ele>312.57</ele>
        <time>2018-09-30T08:35:38Z</time>
      </trkpt>
      <trkpt lat="45.96955" lon="1.14042">
        <ele>314.01</ele>
        <time>2018-09-30T08:35:51Z</time>
      </trkpt>
      <trkpt lat="45.96954" lon="1.14056">
        <ele>314.97</ele>
        <time>2018-09-30T08:35:54Z</time>
      </trkpt>
      <trkpt lat="45.96952" lon="1.14061">
        <ele>315.45</ele>
        <time>2018-09-30T08:35:55Z</time>
      </trkpt>
      <trkpt lat="45.96951" lon="1.14066">
        <ele>315.93</ele>
        <time>2018-09-30T08:35:56Z</time>
      </trkpt>
      <trkpt lat="45.96949" lon="1.14072">
        <ele>316.41</ele>
        <time>2018-09-30T08:35:57Z</time>
      </trkpt>
      <trkpt lat="45.96947" lon="1.14077">
        <ele>316.89</ele>
        <time>2018-09-30T08:35:58Z</time>
      </trkpt>
      <trkpt lat="45.96945" lon="1.14079">
        <ele>317.37</ele>
        <time>2018-09-30T08:35:59Z</time>
      </trkpt>
      <trkpt lat="45.96943" lon="1.14079">
        <ele>317.85</ele>
        <time>2018-09-30T08:36:00Z</time>
      </trkpt>
      <trkpt lat="45.96941" lon="1.14078">
        <ele>318.33</ele>
        <time>2018-09-30T08:36:01Z</time>
      </trkpt>
      <trkpt lat="45.96939" lon="1.14074">
        <ele>318.81</ele>
        <time>2018-09-30T08:36:02Z</time>
      </trkpt>
      <trkpt lat="45.96937" lon="1.14071">
        <ele>318.81</ele>
        <time>2018-09-30T08:36:03Z</time>
      </trkpt>
      <trkpt lat="45.96934" lon="1.14067">
        <ele>318.81</ele>
        <time>2018-09-30T08:36:04Z</time>
      </trkpt>
      <trkpt lat="45.96931" lon="1.14063">
        <ele>318.81</ele>
        <time>2018-09-30T08:36:05Z</time>
      </trkpt>
      <trkpt lat="45.96924" lon="1.14054">
        <ele>318.81</ele>
        <time>2018-09-30T08:36:07Z</time>
      </trkpt>
      <trkpt lat="45.9692" lon="1.14049">
        <ele>318.81</ele>
        <time>2018-09-30T08:36:08Z</time>
      </trkpt>
      <trkpt lat="45.96916" lon="1.14046">
        <ele>318.81</ele>
        <time>2018-09-30T08:36:09Z</time>
      </trkpt>
      <trkpt lat="45.9691" lon="1.14044">
        <ele>318.81</ele>
        <time>2018-09-30T08:36:10Z</time>
      </trkpt>
      <trkpt lat="45.96905" lon="1.14042">
        <ele>318.33</ele>
        <time>2018-09-30T08:36:11Z</time>
      </trkpt>
      <trkpt lat="45.96898" lon="1.14041">
        <ele>317.85</ele>
        <time>2018-09-30T08:36:12Z</time>
      </trkpt>
      <trkpt lat="45.96893" lon="1.14041">
        <ele>317.85</ele>
        <time>2018-09-30T08:36:13Z</time>
      </trkpt>
      <trkpt lat="45.96886" lon="1.14042">
        <ele>317.37</ele>
        <time>2018-09-30T08:36:14Z</time>
      </trkpt>
      <trkpt lat="45.9688" lon="1.14044">
        <ele>316.89</ele>
        <time>2018-09-30T08:36:15Z</time>
      </trkpt>
      <trkpt lat="45.96875" lon="1.14047">
        <ele>316.41</ele>
        <time>2018-09-30T08:36:16Z</time>
      </trkpt>
      <trkpt lat="45.9687" lon="1.14051">
        <ele>316.41</ele>
        <time>2018-09-30T08:36:17Z</time>
      </trkpt>
      <trkpt lat="45.96855" lon="1.14059">
        <ele>315.93</ele>
        <time>2018-09-30T08:36:20Z</time>
      </trkpt>
      <trkpt lat="45.96806" lon="1.1409">
        <ele>315.45</ele>
        <time>2018-09-30T08:36:29Z</time>
      </trkpt>
      <trkpt lat="45.96799" lon="1.14096">
        <ele>315.45</ele>
        <time>2018-09-30T08:36:30Z</time>
      </trkpt>
      <trkpt lat="45.96793" lon="1.141">
        <ele>315.45</ele>
        <time>2018-09-30T08:36:31Z</time>
      </trkpt>
      <trkpt lat="45.96719" lon="1.14142">
        <ele>313.53</ele>
        <time>2018-09-30T08:36:42Z</time>
      </trkpt>
      <trkpt lat="45.96666" lon="1.14163">
        <ele>313.53</ele>
        <time>2018-09-30T08:36:51Z</time>
      </trkpt>
      <trkpt lat="45.96593" lon="1.14187">
        <ele>313.05</ele>
        <time>2018-09-30T08:37:01Z</time>
      </trkpt>
      <trkpt lat="45.96576" lon="1.14188">
        <ele>313.05</ele>
        <time>2018-09-30T08:37:03Z</time>
      </trkpt>
      <trkpt lat="45.96491" lon="1.14157">
        <ele>311.12</ele>
        <time>2018-09-30T08:37:14Z</time>
      </trkpt>
      <trkpt lat="45.9642" lon="1.14096">
        <ele>309.68</ele>
        <time>2018-09-30T08:37:25Z</time>
      </trkpt>
      <trkpt lat="45.96415" lon="1.14094">
        <ele>309.68</ele>
        <time>2018-09-30T08:37:26Z</time>
      </trkpt>
      <trkpt lat="45.96411" lon="1.14094">
        <ele>309.68</ele>
        <time>2018-09-30T08:37:27Z</time>
      </trkpt>
      <trkpt lat="45.96407" lon="1.14098">
        <ele>309.68</ele>
        <time>2018-09-30T08:37:28Z</time>
      </trkpt>
      <trkpt lat="45.96404" lon="1.14104">
        <ele>309.68</ele>
        <time>2018-09-30T08:37:29Z</time>
      </trkpt>
      <trkpt lat="45.96402" lon="1.14111">
        <ele>309.68</ele>
        <time>2018-09-30T08:37:30Z</time>
      </trkpt>
      <trkpt lat="45.964" lon="1.14119">
        <ele>309.68</ele>
        <time>2018-09-30T08:37:31Z</time>
      </trkpt>
      <trkpt lat="45.96394" lon="1.14141">
        <ele>309.68</ele>
        <time>2018-09-30T08:37:34Z</time>
      </trkpt>
      <trkpt lat="45.9639" lon="1.14145">
        <ele>309.68</ele>
        <time>2018-09-30T08:37:35Z</time>
      </trkpt>
      <trkpt lat="45.96385" lon="1.14145">
        <ele>309.68</ele>
        <time>2018-09-30T08:37:36Z</time>
      </trkpt>
      <trkpt lat="45.9638" lon="1.14144">
        <ele>309.68</ele>
        <time>2018-09-30T08:37:37Z</time>
      </trkpt>
      <trkpt lat="45.96374" lon="1.14141">
        <ele>309.2</ele>
        <time>2018-09-30T08:37:38Z</time>
      </trkpt>
      <trkpt lat="45.96369" lon="1.14136">
        <ele>309.2</ele>
        <time>2018-09-30T08:37:39Z</time>
      </trkpt>
      <trkpt lat="45.96363" lon="1.1413">
        <ele>309.2</ele>
        <time>2018-09-30T08:37:40Z</time>
      </trkpt>
      <trkpt lat="45.96356" lon="1.14123">
        <ele>309.2</ele>
        <time>2018-09-30T08:37:41Z</time>
      </trkpt>
      <trkpt lat="45.9635" lon="1.14116">
        <ele>308.72</ele>
        <time>2018-09-30T08:37:42Z</time>
      </trkpt>
      <trkpt lat="45.9634" lon="1.14105">
        <ele>308.72</ele>
        <time>2018-09-30T08:37:44Z</time>
      </trkpt>
      <trkpt lat="45.96336" lon="1.14104">
        <ele>308.24</ele>
        <time>2018-09-30T08:37:45Z</time>
      </trkpt>
      <trkpt lat="45.96333" lon="1.14107">
        <ele>308.24</ele>
        <time>2018-09-30T08:37:46Z</time>
      </trkpt>
      <trkpt lat="45.96331" lon="1.14114">
        <ele>308.24</ele>
        <time>2018-09-30T08:37:47Z</time>
      </trkpt>
      <trkpt lat="45.9633" lon="1.14123">
        <ele>308.24</ele>
        <time>2018-09-30T08:37:48Z</time>
      </trkpt>
      <trkpt lat="45.96315" lon="1.14204">
        <ele>306.32</ele>
        <time>2018-09-30T08:37:58Z</time>
      </trkpt>
      <trkpt lat="45.96312" lon="1.14206">
        <ele>305.84</ele>
        <time>2018-09-30T08:37:59Z</time>
      </trkpt>
      <trkpt lat="45.96309" lon="1.14206">
        <ele>305.36</ele>
        <time>2018-09-30T08:38:00Z</time>
      </trkpt>
      <trkpt lat="45.96295" lon="1.14204">
        <ele>303.91</ele>
        <time>2018-09-30T08:38:03Z</time>
      </trkpt>
      <trkpt lat="45.96263" lon="1.142">
        <ele>303.43</ele>
        <time>2018-09-30T08:38:08Z</time>
      </trkpt>
      <trkpt lat="45.96173" lon="1.14193">
        <ele>301.51</ele>
        <time>2018-09-30T08:38:20Z</time>
      </trkpt>
      <trkpt lat="45.96114" lon="1.14187">
        <ele>301.03</ele>
        <time>2018-09-30T08:38:29Z</time>
      </trkpt>
      <trkpt lat="45.96108" lon="1.14184">
        <ele>301.03</ele>
        <time>2018-09-30T08:38:30Z</time>
      </trkpt>
      <trkpt lat="45.96102" lon="1.14183">
        <ele>301.03</ele>
        <time>2018-09-30T08:38:31Z</time>
      </trkpt>
      <trkpt lat="45.96034" lon="1.14175">
        <ele>300.07</ele>
        <time>2018-09-30T08:38:41Z</time>
      </trkpt>
      <trkpt lat="45.96008" lon="1.14173">
        <ele>299.59</ele>
        <time>2018-09-30T08:38:45Z</time>
      </trkpt>
      <trkpt lat="45.96001" lon="1.14172">
        <ele>299.59</ele>
        <time>2018-09-30T08:38:46Z</time>
      </trkpt>
      <trkpt lat="45.95995" lon="1.14171">
        <ele>299.59</ele>
        <time>2018-09-30T08:38:47Z</time>
      </trkpt>
      <trkpt lat="45.95988" lon="1.1417">
        <ele>299.59</ele>
        <time>2018-09-30T08:38:48Z</time>
      </trkpt>
      <trkpt lat="45.9598" lon="1.1417">
        <ele>299.59</ele>
        <time>2018-09-30T08:38:49Z</time>
      </trkpt>
      <trkpt lat="45.95923" lon="1.14162">
        <ele>298.63</ele>
        <time>2018-09-30T08:38:57Z</time>
      </trkpt>
      <trkpt lat="45.95916" lon="1.14161">
        <ele>298.63</ele>
        <time>2018-09-30T08:38:58Z</time>
      </trkpt>
      <trkpt lat="45.95895" lon="1.14158">
        <ele>297.67</ele>
        <time>2018-09-30T08:39:01Z</time>
      </trkpt>
      <trkpt lat="45.95804" lon="1.14144">
        <ele>295.74</ele>
        <time>2018-09-30T08:39:13Z</time>
      </trkpt>
      <trkpt lat="45.9579" lon="1.14143">
        <ele>295.26</ele>
        <time>2018-09-30T08:39:15Z</time>
      </trkpt>
      <trkpt lat="45.95783" lon="1.14145">
        <ele>295.26</ele>
        <time>2018-09-30T08:39:16Z</time>
      </trkpt>
      <trkpt lat="45.95776" lon="1.14148">
        <ele>295.26</ele>
        <time>2018-09-30T08:39:17Z</time>
      </trkpt>
      <trkpt lat="45.95751" lon="1.14163">
        <ele>294.78</ele>
        <time>2018-09-30T08:39:21Z</time>
      </trkpt>
      <trkpt lat="45.95737" lon="1.1417">
        <ele>294.78</ele>
        <time>2018-09-30T08:39:24Z</time>
      </trkpt>
      <trkpt lat="45.95732" lon="1.14174">
        <ele>294.78</ele>
        <time>2018-09-30T08:39:25Z</time>
      </trkpt>
      <trkpt lat="45.95678" lon="1.14231">
        <ele>291.9</ele>
        <time>2018-09-30T08:39:34Z</time>
      </trkpt>
      <trkpt lat="45.95641" lon="1.14282">
        <ele>289.01</ele>
        <time>2018-09-30T08:39:40Z</time>
      </trkpt>
      <trkpt lat="45.95627" lon="1.14306">
        <ele>287.09</ele>
        <time>2018-09-30T08:39:44Z</time>
      </trkpt>
      <trkpt lat="45.95619" lon="1.14324">
        <ele>286.61</ele>
        <time>2018-09-30T08:39:48Z</time>
      </trkpt>
      <trkpt lat="45.95616" lon="1.14322">
        <ele>286.61</ele>
        <time>2018-09-30T08:39:49Z</time>
      </trkpt>
      <trkpt lat="45.95613" lon="1.14319">
        <ele>286.61</ele>
        <time>2018-09-30T08:39:50Z</time>
      </trkpt>
      <trkpt lat="45.95609" lon="1.14316">
        <ele>286.61</ele>
        <time>2018-09-30T08:39:51Z</time>
      </trkpt>
      <trkpt lat="45.95604" lon="1.14313">
        <ele>286.61</ele>
        <time>2018-09-30T08:39:52Z</time>
      </trkpt>
      <trkpt lat="45.95599" lon="1.1431">
        <ele>286.61</ele>
        <time>2018-09-30T08:39:53Z</time>
      </trkpt>
      <trkpt lat="45.95593" lon="1.14308">
        <ele>286.61</ele>
        <time>2018-09-30T08:39:54Z</time>
      </trkpt>
      <trkpt lat="45.95588" lon="1.14306">
        <ele>286.61</ele>
        <time>2018-09-30T08:39:55Z</time>
      </trkpt>
      <trkpt lat="45.95583" lon="1.14304">
        <ele>286.61</ele>
        <time>2018-09-30T08:39:56Z</time>
      </trkpt>
      <trkpt lat="45.95578" lon="1.14301">
        <ele>286.61</ele>
        <time>2018-09-30T08:39:57Z</time>
      </trkpt>
      <trkpt lat="45.95573" lon="1.14298">
        <ele>286.61</ele>
        <time>2018-09-30T08:39:58Z</time>
      </trkpt>
      <trkpt lat="45.95569" lon="1.14296">
        <ele>286.61</ele>
        <time>2018-09-30T08:39:59Z</time>
      </trkpt>
      <trkpt lat="45.95496" lon="1.14253">
        <ele>288.53</ele>
        <time>2018-09-30T08:40:12Z</time>
      </trkpt>
      <trkpt lat="45.95477" lon="1.14243">
        <ele>288.53</ele>
        <time>2018-09-30T08:40:15Z</time>
      </trkpt>
      <trkpt lat="45.95471" lon="1.1424">
        <ele>288.53</ele>
        <time>2018-09-30T08:40:16Z</time>
      </trkpt>
      <trkpt lat="45.95465" lon="1.14236">
        <ele>288.05</ele>
        <time>2018-09-30T08:40:17Z</time>
      </trkpt>
      <trkpt lat="45.95461" lon="1.14231">
        <ele>287.57</ele>
        <time>2018-09-30T08:40:18Z</time>
      </trkpt>
      <trkpt lat="45.95458" lon="1.14225">
        <ele>287.57</ele>
        <time>2018-09-30T08:40:19Z</time>
      </trkpt>
      <trkpt lat="45.95456" lon="1.14217">
        <ele>287.57</ele>
        <time>2018-09-30T08:40:20Z</time>
      </trkpt>
      <trkpt lat="45.95456" lon="1.14207">
        <ele>287.09</ele>
        <time>2018-09-30T08:40:21Z</time>
      </trkpt>
      <trkpt lat="45.95455" lon="1.14198">
        <ele>287.09</ele>
        <time>2018-09-30T08:40:22Z</time>
      </trkpt>
      <trkpt lat="45.95454" lon="1.14189">
        <ele>286.61</ele>
        <time>2018-09-30T08:40:23Z</time>
      </trkpt>
      <trkpt lat="45.95451" lon="1.14156">
        <ele>285.65</ele>
        <time>2018-09-30T08:40:27Z</time>
      </trkpt>
      <trkpt lat="45.95449" lon="1.1415">
        <ele>285.17</ele>
        <time>2018-09-30T08:40:28Z</time>
      </trkpt>
      <trkpt lat="45.95446" lon="1.14145">
        <ele>285.17</ele>
        <time>2018-09-30T08:40:29Z</time>
      </trkpt>
      <trkpt lat="45.95442" lon="1.14141">
        <ele>285.17</ele>
        <time>2018-09-30T08:40:30Z</time>
      </trkpt>
      <trkpt lat="45.95437" lon="1.14139">
        <ele>285.17</ele>
        <time>2018-09-30T08:40:31Z</time>
      </trkpt>
      <trkpt lat="45.95432" lon="1.14137">
        <ele>285.17</ele>
        <time>2018-09-30T08:40:32Z</time>
      </trkpt>
      <trkpt lat="45.95427" lon="1.14135">
        <ele>285.17</ele>
        <time>2018-09-30T08:40:33Z</time>
      </trkpt>
      <trkpt lat="45.95421" lon="1.14133">
        <ele>285.17</ele>
        <time>2018-09-30T08:40:34Z</time>
      </trkpt>
      <trkpt lat="45.95384" lon="1.14125">
        <ele>286.13</ele>
        <time>2018-09-30T08:40:41Z</time>
      </trkpt>
      <trkpt lat="45.95379" lon="1.14124">
        <ele>286.61</ele>
        <time>2018-09-30T08:40:42Z</time>
      </trkpt>
      <trkpt lat="45.95374" lon="1.14122">
        <ele>286.61</ele>
        <time>2018-09-30T08:40:43Z</time>
      </trkpt>
      <trkpt lat="45.95349" lon="1.14116">
        <ele>287.09</ele>
        <time>2018-09-30T08:40:48Z</time>
      </trkpt>
      <trkpt lat="45.95345" lon="1.14114">
        <ele>287.09</ele>
        <time>2018-09-30T08:40:49Z</time>
      </trkpt>
      <trkpt lat="45.95341" lon="1.14112">
        <ele>287.09</ele>
        <time>2018-09-30T08:40:50Z</time>
      </trkpt>
      <trkpt lat="45.95337" lon="1.1411">
        <ele>287.09</ele>
        <time>2018-09-30T08:40:51Z</time>
      </trkpt>
      <trkpt lat="45.95334" lon="1.14108">
        <ele>287.09</ele>
        <time>2018-09-30T08:40:52Z</time>
      </trkpt>
      <trkpt lat="45.95306" lon="1.14109">
        <ele>289.49</ele>
        <time>2018-09-30T08:40:59Z</time>
      </trkpt>
      <trkpt lat="45.95302" lon="1.14111">
        <ele>289.97</ele>
        <time>2018-09-30T08:41:00Z</time>
      </trkpt>
      <trkpt lat="45.95293" lon="1.14112">
        <ele>291.42</ele>
        <time>2018-09-30T08:41:02Z</time>
      </trkpt>
      <trkpt lat="45.95279" lon="1.14114">
        <ele>292.38</ele>
        <time>2018-09-30T08:41:05Z</time>
      </trkpt>
      <trkpt lat="45.95229" lon="1.14121">
        <ele>294.3</ele>
        <time>2018-09-30T08:41:16Z</time>
      </trkpt>
      <trkpt lat="45.95187" lon="1.14126">
        <ele>296.22</ele>
        <time>2018-09-30T08:41:28Z</time>
      </trkpt>
      <trkpt lat="45.95163" lon="1.14132">
        <ele>297.67</ele>
        <time>2018-09-30T08:41:36Z</time>
      </trkpt>
      <trkpt lat="45.9516" lon="1.14133">
        <ele>298.15</ele>
        <time>2018-09-30T08:41:37Z</time>
      </trkpt>
      <trkpt lat="45.95158" lon="1.14134">
        <ele>298.15</ele>
        <time>2018-09-30T08:41:38Z</time>
      </trkpt>
      <trkpt lat="45.95155" lon="1.14135">
        <ele>298.15</ele>
        <time>2018-09-30T08:41:39Z</time>
      </trkpt>
      <trkpt lat="45.95152" lon="1.14136">
        <ele>298.63</ele>
        <time>2018-09-30T08:41:40Z</time>
      </trkpt>
      <trkpt lat="45.95126" lon="1.14154">
        <ele>301.03</ele>
        <time>2018-09-30T08:41:50Z</time>
      </trkpt>
      <trkpt lat="45.95096" lon="1.1417">
        <ele>302.95</ele>
        <time>2018-09-30T08:42:02Z</time>
      </trkpt>
      <trkpt lat="45.95061" lon="1.14173">
        <ele>305.84</ele>
        <time>2018-09-30T08:42:16Z</time>
      </trkpt>
      <trkpt lat="45.95029" lon="1.14161">
        <ele>308.72</ele>
        <time>2018-09-30T08:42:28Z</time>
      </trkpt>
      <trkpt lat="45.95018" lon="1.14153">
        <ele>309.2</ele>
        <time>2018-09-30T08:42:33Z</time>
      </trkpt>
      <trkpt lat="45.95016" lon="1.14153">
        <ele>309.2</ele>
        <time>2018-09-30T08:42:34Z</time>
      </trkpt>
      <trkpt lat="45.95013" lon="1.14152">
        <ele>309.2</ele>
        <time>2018-09-30T08:42:35Z</time>
      </trkpt>
      <trkpt lat="45.95011" lon="1.14151">
        <ele>309.2</ele>
        <time>2018-09-30T08:42:36Z</time>
      </trkpt>
      <trkpt lat="45.95009" lon="1.14149">
        <ele>309.2</ele>
        <time>2018-09-30T08:42:37Z</time>
      </trkpt>
      <trkpt lat="45.94986" lon="1.1413">
        <ele>311.6</ele>
        <time>2018-09-30T08:42:47Z</time>
      </trkpt>
      <trkpt lat="45.94955" lon="1.14107">
        <ele>313.05</ele>
        <time>2018-09-30T08:42:58Z</time>
      </trkpt>
      <trkpt lat="45.94921" lon="1.14086">
        <ele>316.41</ele>
        <time>2018-09-30T08:43:09Z</time>
      </trkpt>
      <trkpt lat="45.94908" lon="1.14078">
        <ele>317.37</ele>
        <time>2018-09-30T08:43:14Z</time>
      </trkpt>
      <trkpt lat="45.94907" lon="1.14075">
        <ele>317.85</ele>
        <time>2018-09-30T08:43:15Z</time>
      </trkpt>
      <trkpt lat="45.94905" lon="1.1407">
        <ele>317.85</ele>
        <time>2018-09-30T08:43:16Z</time>
      </trkpt>
      <trkpt lat="45.94904" lon="1.14064">
        <ele>317.85</ele>
        <time>2018-09-30T08:43:17Z</time>
      </trkpt>
      <trkpt lat="45.94904" lon="1.14058">
        <ele>317.85</ele>
        <time>2018-09-30T08:43:18Z</time>
      </trkpt>
      <trkpt lat="45.94904" lon="1.14051">
        <ele>317.85</ele>
        <time>2018-09-30T08:43:19Z</time>
      </trkpt>
      <trkpt lat="45.94904" lon="1.14043">
        <ele>317.85</ele>
        <time>2018-09-30T08:43:20Z</time>
      </trkpt>
      <trkpt lat="45.94908" lon="1.13945">
        <ele>315.45</ele>
        <time>2018-09-30T08:43:31Z</time>
      </trkpt>
      <trkpt lat="45.94907" lon="1.13939">
        <ele>314.97</ele>
        <time>2018-09-30T08:43:32Z</time>
      </trkpt>
      <trkpt lat="45.94905" lon="1.13935">
        <ele>314.01</ele>
        <time>2018-09-30T08:43:33Z</time>
      </trkpt>
      <trkpt lat="45.94903" lon="1.13933">
        <ele>313.53</ele>
        <time>2018-09-30T08:43:34Z</time>
      </trkpt>
      <trkpt lat="45.949" lon="1.13932">
        <ele>313.05</ele>
        <time>2018-09-30T08:43:35Z</time>
      </trkpt>
      <trkpt lat="45.94897" lon="1.13932">
        <ele>312.57</ele>
        <time>2018-09-30T08:43:36Z</time>
      </trkpt>
      <trkpt lat="45.94875" lon="1.13916">
        <ele>311.6</ele>
        <time>2018-09-30T08:43:43Z</time>
      </trkpt>
      <trkpt lat="45.94872" lon="1.13912">
        <ele>311.6</ele>
        <time>2018-09-30T08:43:44Z</time>
      </trkpt>
      <trkpt lat="45.9487" lon="1.13906">
        <ele>311.6</ele>
        <time>2018-09-30T08:43:45Z</time>
      </trkpt>
      <trkpt lat="45.94868" lon="1.139">
        <ele>311.6</ele>
        <time>2018-09-30T08:43:46Z</time>
      </trkpt>
      <trkpt lat="45.94865" lon="1.13894">
        <ele>311.6</ele>
        <time>2018-09-30T08:43:47Z</time>
      </trkpt>
      <trkpt lat="45.94825" lon="1.13797">
        <ele>313.05</ele>
        <time>2018-09-30T08:44:03Z</time>
      </trkpt>
      <trkpt lat="45.94801" lon="1.1374">
        <ele>314.01</ele>
        <time>2018-09-30T08:44:12Z</time>
      </trkpt>
      <trkpt lat="45.94799" lon="1.13734">
        <ele>314.01</ele>
        <time>2018-09-30T08:44:13Z</time>
      </trkpt>
      <trkpt lat="45.94786" lon="1.13686">
        <ele>314.97</ele>
        <time>2018-09-30T08:44:22Z</time>
      </trkpt>
      <trkpt lat="45.94785" lon="1.1368">
        <ele>314.97</ele>
        <time>2018-09-30T08:44:23Z</time>
      </trkpt>
      <trkpt lat="45.94782" lon="1.13674">
        <ele>314.97</ele>
        <time>2018-09-30T08:44:24Z</time>
      </trkpt>
      <trkpt lat="45.94778" lon="1.13669">
        <ele>314.97</ele>
        <time>2018-09-30T08:44:25Z</time>
      </trkpt>
      <trkpt lat="45.94774" lon="1.13665">
        <ele>314.97</ele>
        <time>2018-09-30T08:44:26Z</time>
      </trkpt>
      <trkpt lat="45.94721" lon="1.13619">
        <ele>314.01</ele>
        <time>2018-09-30T08:44:36Z</time>
      </trkpt>
      <trkpt lat="45.94716" lon="1.13613">
        <ele>314.01</ele>
        <time>2018-09-30T08:44:37Z</time>
      </trkpt>
      <trkpt lat="45.94713" lon="1.13604">
        <ele>314.01</ele>
        <time>2018-09-30T08:44:38Z</time>
      </trkpt>
      <trkpt lat="45.94712" lon="1.13593">
        <ele>313.53</ele>
        <time>2018-09-30T08:44:39Z</time>
      </trkpt>
      <trkpt lat="45.94712" lon="1.13583">
        <ele>313.05</ele>
        <time>2018-09-30T08:44:40Z</time>
      </trkpt>
      <trkpt lat="45.94713" lon="1.13572">
        <ele>312.57</ele>
        <time>2018-09-30T08:44:41Z</time>
      </trkpt>
      <trkpt lat="45.94714" lon="1.13561">
        <ele>312.57</ele>
        <time>2018-09-30T08:44:42Z</time>
      </trkpt>
      <trkpt lat="45.94714" lon="1.1355">
        <ele>312.57</ele>
        <time>2018-09-30T08:44:43Z</time>
      </trkpt>
      <trkpt lat="45.94715" lon="1.13538">
        <ele>312.57</ele>
        <time>2018-09-30T08:44:44Z</time>
      </trkpt>
      <trkpt lat="45.94717" lon="1.13494">
        <ele>310.64</ele>
        <time>2018-09-30T08:44:48Z</time>
      </trkpt>
      <trkpt lat="45.94718" lon="1.13459">
        <ele>309.2</ele>
        <time>2018-09-30T08:44:53Z</time>
      </trkpt>
      <trkpt lat="45.94716" lon="1.13456">
        <ele>308.72</ele>
        <time>2018-09-30T08:44:54Z</time>
      </trkpt>
      <trkpt lat="45.94712" lon="1.13455">
        <ele>308.24</ele>
        <time>2018-09-30T08:44:55Z</time>
      </trkpt>
      <trkpt lat="45.94708" lon="1.13455">
        <ele>308.24</ele>
        <time>2018-09-30T08:44:56Z</time>
      </trkpt>
      <trkpt lat="45.94702" lon="1.13457">
        <ele>308.24</ele>
        <time>2018-09-30T08:44:57Z</time>
      </trkpt>
      <trkpt lat="45.94696" lon="1.13458">
        <ele>307.76</ele>
        <time>2018-09-30T08:44:58Z</time>
      </trkpt>
      <trkpt lat="45.94599" lon="1.13482">
        <ele>305.84</ele>
        <time>2018-09-30T08:45:11Z</time>
      </trkpt>
      <trkpt lat="45.94491" lon="1.13503">
        <ele>304.39</ele>
        <time>2018-09-30T08:45:26Z</time>
      </trkpt>
      <trkpt lat="45.94485" lon="1.13501">
        <ele>304.39</ele>
        <time>2018-09-30T08:45:27Z</time>
      </trkpt>
      <trkpt lat="45.94478" lon="1.13499">
        <ele>304.39</ele>
        <time>2018-09-30T08:45:28Z</time>
      </trkpt>
      <trkpt lat="45.94447" lon="1.13484">
        <ele>304.88</ele>
        <time>2018-09-30T08:45:33Z</time>
      </trkpt>
      <trkpt lat="45.94441" lon="1.1348">
        <ele>304.88</ele>
        <time>2018-09-30T08:45:34Z</time>
      </trkpt>
      <trkpt lat="45.94435" lon="1.13475">
        <ele>304.88</ele>
        <time>2018-09-30T08:45:35Z</time>
      </trkpt>
      <trkpt lat="45.94405" lon="1.13436">
        <ele>305.36</ele>
        <time>2018-09-30T08:45:41Z</time>
      </trkpt>
      <trkpt lat="45.94377" lon="1.13389">
        <ele>305.36</ele>
        <time>2018-09-30T08:45:48Z</time>
      </trkpt>
      <trkpt lat="45.94375" lon="1.13382">
        <ele>305.36</ele>
        <time>2018-09-30T08:45:49Z</time>
      </trkpt>
      <trkpt lat="45.94371" lon="1.13367">
        <ele>305.36</ele>
        <time>2018-09-30T08:45:51Z</time>
      </trkpt>
      <trkpt lat="45.9437" lon="1.13357">
        <ele>305.36</ele>
        <time>2018-09-30T08:45:52Z</time>
      </trkpt>
      <trkpt lat="45.9436" lon="1.13237">
        <ele>306.32</ele>
        <time>2018-09-30T08:46:04Z</time>
      </trkpt>
      <trkpt lat="45.9436" lon="1.13216">
        <ele>306.32</ele>
        <time>2018-09-30T08:46:06Z</time>
      </trkpt>
      <trkpt lat="45.94374" lon="1.13118">
        <ele>304.39</ele>
        <time>2018-09-30T08:46:15Z</time>
      </trkpt>
      <trkpt lat="45.94371" lon="1.1311">
        <ele>304.39</ele>
        <time>2018-09-30T08:46:16Z</time>
      </trkpt>
      <trkpt lat="45.94367" lon="1.13103">
        <ele>303.91</ele>
        <time>2018-09-30T08:46:17Z</time>
      </trkpt>
      <trkpt lat="45.94361" lon="1.13098">
        <ele>303.43</ele>
        <time>2018-09-30T08:46:18Z</time>
      </trkpt>
      <trkpt lat="45.94355" lon="1.13094">
        <ele>302.95</ele>
        <time>2018-09-30T08:46:19Z</time>
      </trkpt>
      <trkpt lat="45.94349" lon="1.1309">
        <ele>302.47</ele>
        <time>2018-09-30T08:46:20Z</time>
      </trkpt>
      <trkpt lat="45.94291" lon="1.13057">
        <ele>301.03</ele>
        <time>2018-09-30T08:46:28Z</time>
      </trkpt>
      <trkpt lat="45.94227" lon="1.1301">
        <ele>298.15</ele>
        <time>2018-09-30T08:46:37Z</time>
      </trkpt>
      <trkpt lat="45.94221" lon="1.13008">
        <ele>298.15</ele>
        <time>2018-09-30T08:46:38Z</time>
      </trkpt>
      <trkpt lat="45.9414" lon="1.12997">
        <ele>301.51</ele>
        <time>2018-09-30T08:46:53Z</time>
      </trkpt>
      <trkpt lat="45.94125" lon="1.12995">
        <ele>301.99</ele>
        <time>2018-09-30T08:46:56Z</time>
      </trkpt>
      <trkpt lat="45.94112" lon="1.1299">
        <ele>303.43</ele>
        <time>2018-09-30T08:46:59Z</time>
      </trkpt>
      <trkpt lat="45.94107" lon="1.12992">
        <ele>303.43</ele>
        <time>2018-09-30T08:47:00Z</time>
      </trkpt>
      <trkpt lat="45.94102" lon="1.12995">
        <ele>303.43</ele>
        <time>2018-09-30T08:47:01Z</time>
      </trkpt>
      <trkpt lat="45.94071" lon="1.13028">
        <ele>303.91</ele>
        <time>2018-09-30T08:47:08Z</time>
      </trkpt>
      <trkpt lat="45.94066" lon="1.13035">
        <ele>303.91</ele>
        <time>2018-09-30T08:47:09Z</time>
      </trkpt>
      <trkpt lat="45.94062" lon="1.13043">
        <ele>303.91</ele>
        <time>2018-09-30T08:47:10Z</time>
      </trkpt>
      <trkpt lat="45.9406" lon="1.13051">
        <ele>303.91</ele>
        <time>2018-09-30T08:47:11Z</time>
      </trkpt>
      <trkpt lat="45.94059" lon="1.1306">
        <ele>303.91</ele>
        <time>2018-09-30T08:47:12Z</time>
      </trkpt>
      <trkpt lat="45.94059" lon="1.13069">
        <ele>303.43</ele>
        <time>2018-09-30T08:47:13Z</time>
      </trkpt>
      <trkpt lat="45.9406" lon="1.13077">
        <ele>303.43</ele>
        <time>2018-09-30T08:47:14Z</time>
      </trkpt>
      <trkpt lat="45.94062" lon="1.13084">
        <ele>303.43</ele>
        <time>2018-09-30T08:47:15Z</time>
      </trkpt>
      <trkpt lat="45.94063" lon="1.13091">
        <ele>302.95</ele>
        <time>2018-09-30T08:47:16Z</time>
      </trkpt>
      <trkpt lat="45.94063" lon="1.13098">
        <ele>302.47</ele>
        <time>2018-09-30T08:47:17Z</time>
      </trkpt>
      <trkpt lat="45.94063" lon="1.13105">
        <ele>301.99</ele>
        <time>2018-09-30T08:47:18Z</time>
      </trkpt>
      <trkpt lat="45.94064" lon="1.13112">
        <ele>301.99</ele>
        <time>2018-09-30T08:47:19Z</time>
      </trkpt>
      <trkpt lat="45.94066" lon="1.13132">
        <ele>301.99</ele>
        <time>2018-09-30T08:47:22Z</time>
      </trkpt>
      <trkpt lat="45.94065" lon="1.13145">
        <ele>301.51</ele>
        <time>2018-09-30T08:47:24Z</time>
      </trkpt>
      <trkpt lat="45.94064" lon="1.13151">
        <ele>301.51</ele>
        <time>2018-09-30T08:47:25Z</time>
      </trkpt>
      <trkpt lat="45.94062" lon="1.13156">
        <ele>301.51</ele>
        <time>2018-09-30T08:47:26Z</time>
      </trkpt>
      <trkpt lat="45.94059" lon="1.13161">
        <ele>301.99</ele>
        <time>2018-09-30T08:47:27Z</time>
      </trkpt>
      <trkpt lat="45.94056" lon="1.13165">
        <ele>301.99</ele>
        <time>2018-09-30T08:47:28Z</time>
      </trkpt>
      <trkpt lat="45.94053" lon="1.13168">
        <ele>301.99</ele>
        <time>2018-09-30T08:47:29Z</time>
      </trkpt>
      <trkpt lat="45.94035" lon="1.13204">
        <ele>303.91</ele>
        <time>2018-09-30T08:47:38Z</time>
      </trkpt>
      <trkpt lat="45.94018" lon="1.13234">
        <ele>307.28</ele>
        <time>2018-09-30T08:47:47Z</time>
      </trkpt>
      <trkpt lat="45.94" lon="1.13268">
        <ele>310.16</ele>
        <time>2018-09-30T08:47:59Z</time>
      </trkpt>
      <trkpt lat="45.93978" lon="1.13279">
        <ele>311.6</ele>
        <time>2018-09-30T08:48:08Z</time>
      </trkpt>
      <trkpt lat="45.93935" lon="1.13283">
        <ele>313.53</ele>
        <time>2018-09-30T08:48:24Z</time>
      </trkpt>
      <trkpt lat="45.93896" lon="1.13287">
        <ele>314.01</ele>
        <time>2018-09-30T08:48:34Z</time>
      </trkpt>
      <trkpt lat="45.93892" lon="1.13287">
        <ele>314.01</ele>
        <time>2018-09-30T08:48:35Z</time>
      </trkpt>
      <trkpt lat="45.93874" lon="1.13286">
        <ele>314.01</ele>
        <time>2018-09-30T08:48:39Z</time>
      </trkpt>
      <trkpt lat="45.93831" lon="1.13276">
        <ele>314.01</ele>
        <time>2018-09-30T08:48:48Z</time>
      </trkpt>
      <trkpt lat="45.93785" lon="1.13275">
        <ele>313.53</ele>
        <time>2018-09-30T08:48:57Z</time>
      </trkpt>
      <trkpt lat="45.93781" lon="1.13277">
        <ele>313.53</ele>
        <time>2018-09-30T08:48:58Z</time>
      </trkpt>
      <trkpt lat="45.9372" lon="1.13317">
        <ele>314.01</ele>
        <time>2018-09-30T08:49:12Z</time>
      </trkpt>
      <trkpt lat="45.93687" lon="1.1333">
        <ele>316.41</ele>
        <time>2018-09-30T08:49:21Z</time>
      </trkpt>
      <trkpt lat="45.93682" lon="1.13331">
        <ele>316.41</ele>
        <time>2018-09-30T08:49:22Z</time>
      </trkpt>
      <trkpt lat="45.93673" lon="1.13333">
        <ele>316.41</ele>
        <time>2018-09-30T08:49:24Z</time>
      </trkpt>
      <trkpt lat="45.93669" lon="1.13333">
        <ele>316.89</ele>
        <time>2018-09-30T08:49:25Z</time>
      </trkpt>
      <trkpt lat="45.93661" lon="1.13335">
        <ele>316.89</ele>
        <time>2018-09-30T08:49:27Z</time>
      </trkpt>
      <trkpt lat="45.93657" lon="1.13337">
        <ele>316.89</ele>
        <time>2018-09-30T08:49:28Z</time>
      </trkpt>
      <trkpt lat="45.93652" lon="1.13339">
        <ele>317.37</ele>
        <time>2018-09-30T08:49:29Z</time>
      </trkpt>
      <trkpt lat="45.9363" lon="1.13358">
        <ele>318.81</ele>
        <time>2018-09-30T08:49:37Z</time>
      </trkpt>
      <trkpt lat="45.93645" lon="1.13411">
        <ele>320.74</ele>
        <time>2018-09-30T08:49:48Z</time>
      </trkpt>
      <trkpt lat="45.93684" lon="1.13482">
        <ele>322.66</ele>
        <time>2018-09-30T08:50:03Z</time>
      </trkpt>
      <trkpt lat="45.93738" lon="1.13551">
        <ele>324.58</ele>
        <time>2018-09-30T08:50:20Z</time>
      </trkpt>
      <trkpt lat="45.93773" lon="1.13597">
        <ele>324.58</ele>
        <time>2018-09-30T08:50:31Z</time>
      </trkpt>
      <trkpt lat="45.93774" lon="1.13601">
        <ele>324.58</ele>
        <time>2018-09-30T08:50:32Z</time>
      </trkpt>
      <trkpt lat="45.93775" lon="1.13605">
        <ele>324.58</ele>
        <time>2018-09-30T08:50:33Z</time>
      </trkpt>
      <trkpt lat="45.93775" lon="1.13609">
        <ele>324.58</ele>
        <time>2018-09-30T08:50:34Z</time>
      </trkpt>
      <trkpt lat="45.93773" lon="1.13613">
        <ele>324.58</ele>
        <time>2018-09-30T08:50:35Z</time>
      </trkpt>
      <trkpt lat="45.9377" lon="1.13616">
        <ele>324.58</ele>
        <time>2018-09-30T08:50:36Z</time>
      </trkpt>
      <trkpt lat="45.93766" lon="1.13618">
        <ele>324.58</ele>
        <time>2018-09-30T08:50:37Z</time>
      </trkpt>
      <trkpt lat="45.93761" lon="1.1362">
        <ele>324.58</ele>
        <time>2018-09-30T08:50:38Z</time>
      </trkpt>
      <trkpt lat="45.93703" lon="1.13647">
        <ele>324.1</ele>
        <time>2018-09-30T08:50:47Z</time>
      </trkpt>
      <trkpt lat="45.93686" lon="1.13662">
        <ele>322.18</ele>
        <time>2018-09-30T08:50:50Z</time>
      </trkpt>
      <trkpt lat="45.93662" lon="1.13687">
        <ele>318.81</ele>
        <time>2018-09-30T08:50:54Z</time>
      </trkpt>
      <trkpt lat="45.93617" lon="1.13743">
        <ele>314.01</ele>
        <time>2018-09-30T08:51:01Z</time>
      </trkpt>
      <trkpt lat="45.93598" lon="1.13769">
        <ele>311.6</ele>
        <time>2018-09-30T08:51:04Z</time>
      </trkpt>
      <trkpt lat="45.93581" lon="1.13794">
        <ele>310.16</ele>
        <time>2018-09-30T08:51:07Z</time>
      </trkpt>
      <trkpt lat="45.93553" lon="1.13816">
        <ele>308.24</ele>
        <time>2018-09-30T08:51:11Z</time>
      </trkpt>
      <trkpt lat="45.93464" lon="1.13858">
        <ele>306.8</ele>
        <time>2018-09-30T08:51:24Z</time>
      </trkpt>
      <trkpt lat="45.93384" lon="1.13904">
        <ele>304.88</ele>
        <time>2018-09-30T08:51:35Z</time>
      </trkpt>
      <trkpt lat="45.93376" lon="1.13906">
        <ele>304.39</ele>
        <time>2018-09-30T08:51:36Z</time>
      </trkpt>
      <trkpt lat="45.93368" lon="1.13905">
        <ele>303.91</ele>
        <time>2018-09-30T08:51:37Z</time>
      </trkpt>
      <trkpt lat="45.93324" lon="1.13898">
        <ele>301.99</ele>
        <time>2018-09-30T08:51:43Z</time>
      </trkpt>
      <trkpt lat="45.93318" lon="1.139">
        <ele>301.99</ele>
        <time>2018-09-30T08:51:44Z</time>
      </trkpt>
      <trkpt lat="45.93314" lon="1.13905">
        <ele>301.51</ele>
        <time>2018-09-30T08:51:45Z</time>
      </trkpt>
      <trkpt lat="45.93312" lon="1.13911">
        <ele>301.03</ele>
        <time>2018-09-30T08:51:46Z</time>
      </trkpt>
      <trkpt lat="45.9331" lon="1.13918">
        <ele>301.03</ele>
        <time>2018-09-30T08:51:47Z</time>
      </trkpt>
      <trkpt lat="45.93309" lon="1.13926">
        <ele>301.03</ele>
        <time>2018-09-30T08:51:48Z</time>
      </trkpt>
      <trkpt lat="45.93308" lon="1.13935">
        <ele>301.03</ele>
        <time>2018-09-30T08:51:49Z</time>
      </trkpt>
      <trkpt lat="45.93306" lon="1.13952">
        <ele>300.55</ele>
        <time>2018-09-30T08:51:51Z</time>
      </trkpt>
      <trkpt lat="45.93304" lon="1.1396">
        <ele>300.55</ele>
        <time>2018-09-30T08:51:52Z</time>
      </trkpt>
      <trkpt lat="45.933" lon="1.13964">
        <ele>300.55</ele>
        <time>2018-09-30T08:51:53Z</time>
      </trkpt>
      <trkpt lat="45.93297" lon="1.13964">
        <ele>300.55</ele>
        <time>2018-09-30T08:51:54Z</time>
      </trkpt>
      <trkpt lat="45.93292" lon="1.13961">
        <ele>300.55</ele>
        <time>2018-09-30T08:51:55Z</time>
      </trkpt>
      <trkpt lat="45.93287" lon="1.13959">
        <ele>300.55</ele>
        <time>2018-09-30T08:51:56Z</time>
      </trkpt>
      <trkpt lat="45.93282" lon="1.13956">
        <ele>300.55</ele>
        <time>2018-09-30T08:51:57Z</time>
      </trkpt>
      <trkpt lat="45.93276" lon="1.13954">
        <ele>300.55</ele>
        <time>2018-09-30T08:51:58Z</time>
      </trkpt>
      <trkpt lat="45.9319" lon="1.1392">
        <ele>299.59</ele>
        <time>2018-09-30T08:52:11Z</time>
      </trkpt>
      <trkpt lat="45.93154" lon="1.13908">
        <ele>297.67</ele>
        <time>2018-09-30T08:52:16Z</time>
      </trkpt>
      <trkpt lat="45.93147" lon="1.13908">
        <ele>297.67</ele>
        <time>2018-09-30T08:52:17Z</time>
      </trkpt>
      <trkpt lat="45.9314" lon="1.13909">
        <ele>297.18</ele>
        <time>2018-09-30T08:52:18Z</time>
      </trkpt>
      <trkpt lat="45.93133" lon="1.13911">
        <ele>297.18</ele>
        <time>2018-09-30T08:52:19Z</time>
      </trkpt>
      <trkpt lat="45.93126" lon="1.13914">
        <ele>297.18</ele>
        <time>2018-09-30T08:52:20Z</time>
      </trkpt>
      <trkpt lat="45.93072" lon="1.13933">
        <ele>295.74</ele>
        <time>2018-09-30T08:52:28Z</time>
      </trkpt>
      <trkpt lat="45.93064" lon="1.13933">
        <ele>295.74</ele>
        <time>2018-09-30T08:52:29Z</time>
      </trkpt>
      <trkpt lat="45.93057" lon="1.13931">
        <ele>295.26</ele>
        <time>2018-09-30T08:52:30Z</time>
      </trkpt>
      <trkpt lat="45.93018" lon="1.13924">
        <ele>294.78</ele>
        <time>2018-09-30T08:52:35Z</time>
      </trkpt>
      <trkpt lat="45.93011" lon="1.13926">
        <ele>294.78</ele>
        <time>2018-09-30T08:52:36Z</time>
      </trkpt>
      <trkpt lat="45.93004" lon="1.1393">
        <ele>294.78</ele>
        <time>2018-09-30T08:52:37Z</time>
      </trkpt>
      <trkpt lat="45.92979" lon="1.13957">
        <ele>293.82</ele>
        <time>2018-09-30T08:52:41Z</time>
      </trkpt>
      <trkpt lat="45.92972" lon="1.13962">
        <ele>293.34</ele>
        <time>2018-09-30T08:52:42Z</time>
      </trkpt>
      <trkpt lat="45.92965" lon="1.13965">
        <ele>292.86</ele>
        <time>2018-09-30T08:52:43Z</time>
      </trkpt>
      <trkpt lat="45.92957" lon="1.13967">
        <ele>292.86</ele>
        <time>2018-09-30T08:52:44Z</time>
      </trkpt>
      <trkpt lat="45.9295" lon="1.13968">
        <ele>292.86</ele>
        <time>2018-09-30T08:52:45Z</time>
      </trkpt>
      <trkpt lat="45.92942" lon="1.13967">
        <ele>292.86</ele>
        <time>2018-09-30T08:52:46Z</time>
      </trkpt>
      <trkpt lat="45.92933" lon="1.13966">
        <ele>292.38</ele>
        <time>2018-09-30T08:52:47Z</time>
      </trkpt>
      <trkpt lat="45.92888" lon="1.13959">
        <ele>289.01</ele>
        <time>2018-09-30T08:52:52Z</time>
      </trkpt>
      <trkpt lat="45.9286" lon="1.13953">
        <ele>287.09</ele>
        <time>2018-09-30T08:52:55Z</time>
      </trkpt>
      <trkpt lat="45.92842" lon="1.13951">
        <ele>286.61</ele>
        <time>2018-09-30T08:52:57Z</time>
      </trkpt>
      <trkpt lat="45.92799" lon="1.13943">
        <ele>285.17</ele>
        <time>2018-09-30T08:53:02Z</time>
      </trkpt>
      <trkpt lat="45.92791" lon="1.13939">
        <ele>284.69</ele>
        <time>2018-09-30T08:53:03Z</time>
      </trkpt>
      <trkpt lat="45.92746" lon="1.13916">
        <ele>282.28</ele>
        <time>2018-09-30T08:53:10Z</time>
      </trkpt>
      <trkpt lat="45.92735" lon="1.13911">
        <ele>281.8</ele>
        <time>2018-09-30T08:53:13Z</time>
      </trkpt>
      <trkpt lat="45.92731" lon="1.13913">
        <ele>281.32</ele>
        <time>2018-09-30T08:53:14Z</time>
      </trkpt>
      <trkpt lat="45.92728" lon="1.13917">
        <ele>281.32</ele>
        <time>2018-09-30T08:53:15Z</time>
      </trkpt>
      <trkpt lat="45.92726" lon="1.13921">
        <ele>281.32</ele>
        <time>2018-09-30T08:53:16Z</time>
      </trkpt>
      <trkpt lat="45.92723" lon="1.13927">
        <ele>281.32</ele>
        <time>2018-09-30T08:53:17Z</time>
      </trkpt>
      <trkpt lat="45.9272" lon="1.13934">
        <ele>281.32</ele>
        <time>2018-09-30T08:53:18Z</time>
      </trkpt>
      <trkpt lat="45.92691" lon="1.13987">
        <ele>279.88</ele>
        <time>2018-09-30T08:53:26Z</time>
      </trkpt>
      <trkpt lat="45.92686" lon="1.13985">
        <ele>279.88</ele>
        <time>2018-09-30T08:53:27Z</time>
      </trkpt>
      <trkpt lat="45.92682" lon="1.13981">
        <ele>279.4</ele>
        <time>2018-09-30T08:53:28Z</time>
      </trkpt>
      <trkpt lat="45.92677" lon="1.13974">
        <ele>279.4</ele>
        <time>2018-09-30T08:53:29Z</time>
      </trkpt>
      <trkpt lat="45.92672" lon="1.13966">
        <ele>278.92</ele>
        <time>2018-09-30T08:53:30Z</time>
      </trkpt>
      <trkpt lat="45.92669" lon="1.13959">
        <ele>278.92</ele>
        <time>2018-09-30T08:53:31Z</time>
      </trkpt>
      <trkpt lat="45.92666" lon="1.1395">
        <ele>278.92</ele>
        <time>2018-09-30T08:53:32Z</time>
      </trkpt>
      <trkpt lat="45.92663" lon="1.13942">
        <ele>278.92</ele>
        <time>2018-09-30T08:53:33Z</time>
      </trkpt>
      <trkpt lat="45.92658" lon="1.13926">
        <ele>278.44</ele>
        <time>2018-09-30T08:53:35Z</time>
      </trkpt>
      <trkpt lat="45.92654" lon="1.13918">
        <ele>278.44</ele>
        <time>2018-09-30T08:53:36Z</time>
      </trkpt>
      <trkpt lat="45.92649" lon="1.1391">
        <ele>277.48</ele>
        <time>2018-09-30T08:53:37Z</time>
      </trkpt>
      <trkpt lat="45.92645" lon="1.13902">
        <ele>277</ele>
        <time>2018-09-30T08:53:38Z</time>
      </trkpt>
      <trkpt lat="45.9264" lon="1.13897">
        <ele>277</ele>
        <time>2018-09-30T08:53:39Z</time>
      </trkpt>
      <trkpt lat="45.92636" lon="1.13895">
        <ele>277</ele>
        <time>2018-09-30T08:53:40Z</time>
      </trkpt>
      <trkpt lat="45.92633" lon="1.13897">
        <ele>277</ele>
        <time>2018-09-30T08:53:41Z</time>
      </trkpt>
      <trkpt lat="45.92629" lon="1.13901">
        <ele>276.52</ele>
        <time>2018-09-30T08:53:42Z</time>
      </trkpt>
      <trkpt lat="45.92626" lon="1.13906">
        <ele>276.52</ele>
        <time>2018-09-30T08:53:43Z</time>
      </trkpt>
      <trkpt lat="45.92621" lon="1.13911">
        <ele>276.52</ele>
        <time>2018-09-30T08:53:44Z</time>
      </trkpt>
      <trkpt lat="45.92617" lon="1.13916">
        <ele>276.52</ele>
        <time>2018-09-30T08:53:45Z</time>
      </trkpt>
      <trkpt lat="45.92614" lon="1.1392">
        <ele>276.52</ele>
        <time>2018-09-30T08:53:46Z</time>
      </trkpt>
      <trkpt lat="45.92602" lon="1.13933">
        <ele>276.52</ele>
        <time>2018-09-30T08:53:49Z</time>
      </trkpt>
      <trkpt lat="45.92598" lon="1.13936">
        <ele>277</ele>
        <time>2018-09-30T08:53:50Z</time>
      </trkpt>
      <trkpt lat="45.92595" lon="1.13939">
        <ele>277</ele>
        <time>2018-09-30T08:53:51Z</time>
      </trkpt>
      <trkpt lat="45.9259" lon="1.13941">
        <ele>277</ele>
        <time>2018-09-30T08:53:52Z</time>
      </trkpt>
      <trkpt lat="45.92585" lon="1.13943">
        <ele>277</ele>
        <time>2018-09-30T08:53:53Z</time>
      </trkpt>
      <trkpt lat="45.92581" lon="1.13944">
        <ele>277</ele>
        <time>2018-09-30T08:53:54Z</time>
      </trkpt>
      <trkpt lat="45.92577" lon="1.13945">
        <ele>277</ele>
        <time>2018-09-30T08:53:55Z</time>
      </trkpt>
      <trkpt lat="45.92572" lon="1.13947">
        <ele>277</ele>
        <time>2018-09-30T08:53:56Z</time>
      </trkpt>
      <trkpt lat="45.92567" lon="1.13948">
        <ele>277</ele>
        <time>2018-09-30T08:53:57Z</time>
      </trkpt>
      <trkpt lat="45.92564" lon="1.13949">
        <ele>277</ele>
        <time>2018-09-30T08:53:58Z</time>
      </trkpt>
      <trkpt lat="45.92561" lon="1.13949">
        <ele>277</ele>
        <time>2018-09-30T08:53:59Z</time>
      </trkpt>
      <trkpt lat="45.92559" lon="1.13948">
        <ele>277</ele>
        <time>2018-09-30T08:54:00Z</time>
      </trkpt>
      <trkpt lat="45.92558" lon="1.13947">
        <ele>277</ele>
        <time>2018-09-30T08:54:01Z</time>
      </trkpt>
      <trkpt lat="45.92556" lon="1.13945">
        <ele>277</ele>
        <time>2018-09-30T08:54:02Z</time>
      </trkpt>
      <trkpt lat="45.92555" lon="1.13942">
        <ele>277.48</ele>
        <time>2018-09-30T08:54:03Z</time>
      </trkpt>
      <trkpt lat="45.92553" lon="1.13943">
        <ele>277.48</ele>
        <time>2018-09-30T08:54:04Z</time>
      </trkpt>
      <trkpt lat="45.92549" lon="1.13944">
        <ele>277.48</ele>
        <time>2018-09-30T08:54:05Z</time>
      </trkpt>
      <trkpt lat="45.92544" lon="1.13946">
        <ele>277.48</ele>
        <time>2018-09-30T08:54:06Z</time>
      </trkpt>
      <trkpt lat="45.92539" lon="1.13949">
        <ele>277.48</ele>
        <time>2018-09-30T08:54:07Z</time>
      </trkpt>
      <trkpt lat="45.92534" lon="1.13952">
        <ele>278.44</ele>
        <time>2018-09-30T08:54:08Z</time>
      </trkpt>
      <trkpt lat="45.92526" lon="1.13959">
        <ele>278.44</ele>
        <time>2018-09-30T08:54:10Z</time>
      </trkpt>
      <trkpt lat="45.92514" lon="1.13972">
        <ele>278.92</ele>
        <time>2018-09-30T08:54:13Z</time>
      </trkpt>
      <trkpt lat="45.92495" lon="1.13996">
        <ele>279.4</ele>
        <time>2018-09-30T08:54:19Z</time>
      </trkpt>
      <trkpt lat="45.92493" lon="1.14001">
        <ele>279.4</ele>
        <time>2018-09-30T08:54:20Z</time>
      </trkpt>
      <trkpt lat="45.92491" lon="1.14007">
        <ele>279.4</ele>
        <time>2018-09-30T08:54:21Z</time>
      </trkpt>
      <trkpt lat="45.92483" lon="1.14034">
        <ele>279.4</ele>
        <time>2018-09-30T08:54:25Z</time>
      </trkpt>
      <trkpt lat="45.92478" lon="1.14047">
        <ele>279.4</ele>
        <time>2018-09-30T08:54:27Z</time>
      </trkpt>
      <trkpt lat="45.92475" lon="1.14053">
        <ele>279.4</ele>
        <time>2018-09-30T08:54:28Z</time>
      </trkpt>
      <trkpt lat="45.92471" lon="1.14057">
        <ele>279.4</ele>
        <time>2018-09-30T08:54:29Z</time>
      </trkpt>
      <trkpt lat="45.92466" lon="1.14062">
        <ele>279.4</ele>
        <time>2018-09-30T08:54:30Z</time>
      </trkpt>
      <trkpt lat="45.92462" lon="1.14066">
        <ele>279.4</ele>
        <time>2018-09-30T08:54:31Z</time>
      </trkpt>
      <trkpt lat="45.92458" lon="1.14068">
        <ele>279.4</ele>
        <time>2018-09-30T08:54:32Z</time>
      </trkpt>
      <trkpt lat="45.92453" lon="1.1407">
        <ele>279.4</ele>
        <time>2018-09-30T08:54:33Z</time>
      </trkpt>
      <trkpt lat="45.92436" lon="1.14076">
        <ele>278.92</ele>
        <time>2018-09-30T08:54:36Z</time>
      </trkpt>
      <trkpt lat="45.92431" lon="1.1408">
        <ele>278.92</ele>
        <time>2018-09-30T08:54:37Z</time>
      </trkpt>
      <trkpt lat="45.92427" lon="1.14085">
        <ele>278.92</ele>
        <time>2018-09-30T08:54:38Z</time>
      </trkpt>
      <trkpt lat="45.92424" lon="1.14092">
        <ele>278.44</ele>
        <time>2018-09-30T08:54:39Z</time>
      </trkpt>
      <trkpt lat="45.92421" lon="1.141">
        <ele>278.44</ele>
        <time>2018-09-30T08:54:40Z</time>
      </trkpt>
      <trkpt lat="45.92417" lon="1.14107">
        <ele>278.44</ele>
        <time>2018-09-30T08:54:41Z</time>
      </trkpt>
      <trkpt lat="45.92412" lon="1.14114">
        <ele>278.44</ele>
        <time>2018-09-30T08:54:42Z</time>
      </trkpt>
      <trkpt lat="45.92408" lon="1.14121">
        <ele>278.44</ele>
        <time>2018-09-30T08:54:43Z</time>
      </trkpt>
      <trkpt lat="45.92405" lon="1.14128">
        <ele>278.44</ele>
        <time>2018-09-30T08:54:44Z</time>
      </trkpt>
      <trkpt lat="45.92402" lon="1.14135">
        <ele>278.44</ele>
        <time>2018-09-30T08:54:45Z</time>
      </trkpt>
      <trkpt lat="45.92396" lon="1.14153">
        <ele>277.96</ele>
        <time>2018-09-30T08:54:48Z</time>
      </trkpt>
      <trkpt lat="45.92391" lon="1.14158">
        <ele>277.96</ele>
        <time>2018-09-30T08:54:49Z</time>
      </trkpt>
      <trkpt lat="45.92386" lon="1.14162">
        <ele>277.96</ele>
        <time>2018-09-30T08:54:50Z</time>
      </trkpt>
      <trkpt lat="45.92374" lon="1.14171">
        <ele>277.96</ele>
        <time>2018-09-30T08:54:52Z</time>
      </trkpt>
      <trkpt lat="45.92368" lon="1.14177">
        <ele>277.96</ele>
        <time>2018-09-30T08:54:53Z</time>
      </trkpt>
      <trkpt lat="45.92361" lon="1.14183">
        <ele>277.48</ele>
        <time>2018-09-30T08:54:54Z</time>
      </trkpt>
      <trkpt lat="45.92355" lon="1.14185">
        <ele>277.48</ele>
        <time>2018-09-30T08:54:55Z</time>
      </trkpt>
      <trkpt lat="45.92348" lon="1.14186">
        <ele>277.48</ele>
        <time>2018-09-30T08:54:56Z</time>
      </trkpt>
      <trkpt lat="45.92341" lon="1.14186">
        <ele>277.48</ele>
        <time>2018-09-30T08:54:57Z</time>
      </trkpt>
      <trkpt lat="45.92335" lon="1.14188">
        <ele>277.48</ele>
        <time>2018-09-30T08:54:58Z</time>
      </trkpt>
      <trkpt lat="45.92329" lon="1.14192">
        <ele>277.48</ele>
        <time>2018-09-30T08:54:59Z</time>
      </trkpt>
      <trkpt lat="45.92323" lon="1.14197">
        <ele>277.48</ele>
        <time>2018-09-30T08:55:00Z</time>
      </trkpt>
      <trkpt lat="45.92318" lon="1.14203">
        <ele>277.48</ele>
        <time>2018-09-30T08:55:01Z</time>
      </trkpt>
      <trkpt lat="45.92268" lon="1.14255">
        <ele>277.48</ele>
        <time>2018-09-30T08:55:10Z</time>
      </trkpt>
      <trkpt lat="45.92263" lon="1.14259">
        <ele>277.48</ele>
        <time>2018-09-30T08:55:11Z</time>
      </trkpt>
      <trkpt lat="45.92253" lon="1.14273">
        <ele>277.96</ele>
        <time>2018-09-30T08:55:14Z</time>
      </trkpt>
      <trkpt lat="45.92236" lon="1.14283">
        <ele>279.4</ele>
        <time>2018-09-30T08:55:20Z</time>
      </trkpt>
      <trkpt lat="45.92235" lon="1.14285">
        <ele>279.88</ele>
        <time>2018-09-30T08:55:21Z</time>
      </trkpt>
      <trkpt lat="45.92234" lon="1.14289">
        <ele>280.36</ele>
        <time>2018-09-30T08:55:22Z</time>
      </trkpt>
      <trkpt lat="45.92233" lon="1.14293">
        <ele>281.32</ele>
        <time>2018-09-30T08:55:23Z</time>
      </trkpt>
      <trkpt lat="45.92231" lon="1.14297">
        <ele>281.8</ele>
        <time>2018-09-30T08:55:24Z</time>
      </trkpt>
      <trkpt lat="45.92217" lon="1.1432">
        <ele>285.17</ele>
        <time>2018-09-30T08:55:30Z</time>
      </trkpt>
      <trkpt lat="45.92214" lon="1.14322">
        <ele>285.17</ele>
        <time>2018-09-30T08:55:31Z</time>
      </trkpt>
      <trkpt lat="45.92202" lon="1.14316">
        <ele>285.65</ele>
        <time>2018-09-30T08:55:35Z</time>
      </trkpt>
      <trkpt lat="45.92182" lon="1.14305">
        <ele>285.65</ele>
        <time>2018-09-30T08:55:44Z</time>
      </trkpt>
      <trkpt lat="45.92185" lon="1.14311">
        <ele>286.61</ele>
        <time>2018-09-30T08:55:48Z</time>
      </trkpt>
      <trkpt lat="45.92214" lon="1.14327">
        <ele>286.61</ele>
        <time>2018-09-30T08:55:58Z</time>
      </trkpt>
      <trkpt lat="45.92221" lon="1.14324">
        <ele>286.61</ele>
        <time>2018-09-30T08:56:00Z</time>
      </trkpt>
      <trkpt lat="45.92224" lon="1.14322">
        <ele>286.61</ele>
        <time>2018-09-30T08:56:01Z</time>
      </trkpt>
      <trkpt lat="45.92226" lon="1.14318">
        <ele>286.61</ele>
        <time>2018-09-30T08:56:02Z</time>
      </trkpt>
      <trkpt lat="45.92228" lon="1.14315">
        <ele>286.61</ele>
        <time>2018-09-30T08:56:03Z</time>
      </trkpt>
      <trkpt lat="45.9223" lon="1.14311">
        <ele>286.13</ele>
        <time>2018-09-30T08:56:04Z</time>
      </trkpt>
      <trkpt lat="45.92233" lon="1.14295">
        <ele>285.65</ele>
        <time>2018-09-30T08:56:08Z</time>
      </trkpt>
      <trkpt lat="45.92235" lon="1.14292">
        <ele>285.65</ele>
        <time>2018-09-30T08:56:09Z</time>
      </trkpt>
      <trkpt lat="45.92238" lon="1.1429">
        <ele>285.65</ele>
        <time>2018-09-30T08:56:10Z</time>
      </trkpt>
      <trkpt lat="45.92242" lon="1.14289">
        <ele>285.65</ele>
        <time>2018-09-30T08:56:11Z</time>
      </trkpt>
      <trkpt lat="45.92246" lon="1.14287">
        <ele>285.65</ele>
        <time>2018-09-30T08:56:12Z</time>
      </trkpt>
      <trkpt lat="45.92251" lon="1.14284">
        <ele>285.65</ele>
        <time>2018-09-30T08:56:13Z</time>
      </trkpt>
      <trkpt lat="45.92255" lon="1.14279">
        <ele>285.65</ele>
        <time>2018-09-30T08:56:14Z</time>
      </trkpt>
      <trkpt lat="45.92299" lon="1.14232">
        <ele>282.77</ele>
        <time>2018-09-30T08:56:22Z</time>
      </trkpt>
      <trkpt lat="45.92319" lon="1.14209">
        <ele>279.4</ele>
        <time>2018-09-30T08:56:26Z</time>
      </trkpt>
      <trkpt lat="45.92332" lon="1.14196">
        <ele>278.44</ele>
        <time>2018-09-30T08:56:29Z</time>
      </trkpt>
      <trkpt lat="45.92335" lon="1.14195">
        <ele>277.96</ele>
        <time>2018-09-30T08:56:30Z</time>
      </trkpt>
      <trkpt lat="45.92338" lon="1.14196">
        <ele>277.96</ele>
        <time>2018-09-30T08:56:31Z</time>
      </trkpt>
      <trkpt lat="45.92342" lon="1.14197">
        <ele>277.96</ele>
        <time>2018-09-30T08:56:32Z</time>
      </trkpt>
      <trkpt lat="45.92347" lon="1.14197">
        <ele>277.96</ele>
        <time>2018-09-30T08:56:33Z</time>
      </trkpt>
      <trkpt lat="45.92351" lon="1.14196">
        <ele>277.96</ele>
        <time>2018-09-30T08:56:34Z</time>
      </trkpt>
      <trkpt lat="45.92356" lon="1.14193">
        <ele>277.96</ele>
        <time>2018-09-30T08:56:35Z</time>
      </trkpt>
      <trkpt lat="45.9236" lon="1.1419">
        <ele>277.96</ele>
        <time>2018-09-30T08:56:36Z</time>
      </trkpt>
      <trkpt lat="45.92363" lon="1.14186">
        <ele>277.96</ele>
        <time>2018-09-30T08:56:37Z</time>
      </trkpt>
      <trkpt lat="45.92367" lon="1.14182">
        <ele>277.96</ele>
        <time>2018-09-30T08:56:38Z</time>
      </trkpt>
      <trkpt lat="45.92371" lon="1.14178">
        <ele>277.96</ele>
        <time>2018-09-30T08:56:39Z</time>
      </trkpt>
      <trkpt lat="45.92374" lon="1.14174">
        <ele>277.96</ele>
        <time>2018-09-30T08:56:40Z</time>
      </trkpt>
      <trkpt lat="45.92378" lon="1.14171">
        <ele>277.96</ele>
        <time>2018-09-30T08:56:41Z</time>
      </trkpt>
      <trkpt lat="45.92394" lon="1.14158">
        <ele>278.44</ele>
        <time>2018-09-30T08:56:47Z</time>
      </trkpt>
      <trkpt lat="45.92394" lon="1.14156">
        <ele>278.44</ele>
        <time>2018-09-30T08:56:48Z</time>
      </trkpt>
      <trkpt lat="45.92395" lon="1.14153">
        <ele>278.44</ele>
        <time>2018-09-30T08:56:49Z</time>
      </trkpt>
      <trkpt lat="45.92411" lon="1.14117">
        <ele>278.44</ele>
        <time>2018-09-30T08:56:59Z</time>
      </trkpt>
      <trkpt lat="45.92424" lon="1.14088">
        <ele>277.96</ele>
        <time>2018-09-30T08:57:09Z</time>
      </trkpt>
      <trkpt lat="45.92448" lon="1.14072">
        <ele>278.92</ele>
        <time>2018-09-30T08:57:20Z</time>
      </trkpt>
      <trkpt lat="45.92473" lon="1.14044">
        <ele>278.92</ele>
        <time>2018-09-30T08:57:32Z</time>
      </trkpt>
      <trkpt lat="45.92494" lon="1.13991">
        <ele>280.36</ele>
        <time>2018-09-30T08:57:47Z</time>
      </trkpt>
      <trkpt lat="45.92532" lon="1.13949">
        <ele>280.36</ele>
        <time>2018-09-30T08:57:59Z</time>
      </trkpt>
      <trkpt lat="45.92547" lon="1.13944">
        <ele>279.4</ele>
        <time>2018-09-30T08:58:05Z</time>
      </trkpt>
      <trkpt lat="45.92548" lon="1.13946">
        <ele>279.4</ele>
        <time>2018-09-30T08:58:10Z</time>
      </trkpt>
      <trkpt lat="45.92551" lon="1.13953">
        <ele>279.4</ele>
        <time>2018-09-30T08:58:28Z</time>
      </trkpt>
      <trkpt lat="45.9257" lon="1.13952">
        <ele>279.4</ele>
        <time>2018-09-30T08:58:35Z</time>
      </trkpt>
      <trkpt lat="45.92587" lon="1.13945">
        <ele>277.96</ele>
        <time>2018-09-30T08:58:45Z</time>
      </trkpt>
      <trkpt lat="45.92588" lon="1.13945">
        <ele>277.96</ele>
        <time>2018-09-30T08:58:49Z</time>
      </trkpt>
      <trkpt lat="45.92598" lon="1.13939">
        <ele>278.44</ele>
        <time>2018-09-30T08:59:10Z</time>
      </trkpt>
      <trkpt lat="45.9261" lon="1.1392">
        <ele>277.96</ele>
        <time>2018-09-30T08:59:22Z</time>
      </trkpt>
      <trkpt lat="45.9261" lon="1.1392">
        <ele>277.96</ele>
        <time>2018-09-30T08:59:23Z</time>
      </trkpt>
      <trkpt lat="45.92598" lon="1.13937">
        <ele>277.96</ele>
        <time>2018-09-30T08:59:41Z</time>
      </trkpt>
      <trkpt lat="45.92596" lon="1.1394">
        <ele>277.96</ele>
        <time>2018-09-30T08:59:42Z</time>
      </trkpt>
      <trkpt lat="45.92564" lon="1.13952">
        <ele>277.96</ele>
        <time>2018-09-30T08:59:52Z</time>
      </trkpt>
      <trkpt lat="45.92562" lon="1.13951">
        <ele>277.96</ele>
        <time>2018-09-30T08:59:53Z</time>
      </trkpt>
      <trkpt lat="45.92561" lon="1.1395">
        <ele>277.96</ele>
        <time>2018-09-30T08:59:54Z</time>
      </trkpt>
      <trkpt lat="45.92551" lon="1.13943">
        <ele>277.96</ele>
        <time>2018-09-30T08:59:59Z</time>
      </trkpt>
      <trkpt lat="45.92548" lon="1.13944">
        <ele>277.96</ele>
        <time>2018-09-30T09:00:00Z</time>
      </trkpt>
      <trkpt lat="45.92544" lon="1.13946">
        <ele>278.44</ele>
        <time>2018-09-30T09:00:01Z</time>
      </trkpt>
      <trkpt lat="45.9254" lon="1.13949">
        <ele>278.44</ele>
        <time>2018-09-30T09:00:02Z</time>
      </trkpt>
      <trkpt lat="45.92536" lon="1.13951">
        <ele>278.92</ele>
        <time>2018-09-30T09:00:03Z</time>
      </trkpt>
      <trkpt lat="45.92533" lon="1.13954">
        <ele>278.92</ele>
        <time>2018-09-30T09:00:04Z</time>
      </trkpt>
      <trkpt lat="45.92519" lon="1.13968">
        <ele>279.4</ele>
        <time>2018-09-30T09:00:08Z</time>
      </trkpt>
      <trkpt lat="45.92512" lon="1.13976">
        <ele>279.4</ele>
        <time>2018-09-30T09:00:10Z</time>
      </trkpt>
      <trkpt lat="45.92494" lon="1.14001">
        <ele>279.4</ele>
        <time>2018-09-30T09:00:16Z</time>
      </trkpt>
      <trkpt lat="45.92492" lon="1.14007">
        <ele>279.4</ele>
        <time>2018-09-30T09:00:17Z</time>
      </trkpt>
      <trkpt lat="45.92485" lon="1.14029">
        <ele>279.88</ele>
        <time>2018-09-30T09:00:20Z</time>
      </trkpt>
      <trkpt lat="45.92482" lon="1.14036">
        <ele>279.88</ele>
        <time>2018-09-30T09:00:21Z</time>
      </trkpt>
      <trkpt lat="45.92479" lon="1.14042">
        <ele>279.88</ele>
        <time>2018-09-30T09:00:22Z</time>
      </trkpt>
      <trkpt lat="45.92462" lon="1.14065">
        <ele>279.88</ele>
        <time>2018-09-30T09:00:26Z</time>
      </trkpt>
      <trkpt lat="45.92456" lon="1.1407">
        <ele>279.88</ele>
        <time>2018-09-30T09:00:27Z</time>
      </trkpt>
      <trkpt lat="45.92451" lon="1.14073">
        <ele>279.88</ele>
        <time>2018-09-30T09:00:28Z</time>
      </trkpt>
      <trkpt lat="45.92446" lon="1.14075">
        <ele>279.88</ele>
        <time>2018-09-30T09:00:29Z</time>
      </trkpt>
      <trkpt lat="45.9244" lon="1.14077">
        <ele>279.4</ele>
        <time>2018-09-30T09:00:30Z</time>
      </trkpt>
      <trkpt lat="45.92435" lon="1.1408">
        <ele>279.4</ele>
        <time>2018-09-30T09:00:31Z</time>
      </trkpt>
      <trkpt lat="45.92431" lon="1.14082">
        <ele>278.92</ele>
        <time>2018-09-30T09:00:32Z</time>
      </trkpt>
      <trkpt lat="45.92424" lon="1.14091">
        <ele>278.44</ele>
        <time>2018-09-30T09:00:34Z</time>
      </trkpt>
      <trkpt lat="45.92421" lon="1.14097">
        <ele>278.44</ele>
        <time>2018-09-30T09:00:35Z</time>
      </trkpt>
      <trkpt lat="45.92417" lon="1.14104">
        <ele>278.44</ele>
        <time>2018-09-30T09:00:36Z</time>
      </trkpt>
      <trkpt lat="45.92412" lon="1.14111">
        <ele>278.44</ele>
        <time>2018-09-30T09:00:37Z</time>
      </trkpt>
      <trkpt lat="45.92408" lon="1.14118">
        <ele>278.44</ele>
        <time>2018-09-30T09:00:38Z</time>
      </trkpt>
      <trkpt lat="45.92404" lon="1.14125">
        <ele>277.96</ele>
        <time>2018-09-30T09:00:39Z</time>
      </trkpt>
      <trkpt lat="45.92401" lon="1.14132">
        <ele>277.96</ele>
        <time>2018-09-30T09:00:40Z</time>
      </trkpt>
      <trkpt lat="45.924" lon="1.1414">
        <ele>277.96</ele>
        <time>2018-09-30T09:00:41Z</time>
      </trkpt>
      <trkpt lat="45.92398" lon="1.14147">
        <ele>277.96</ele>
        <time>2018-09-30T09:00:42Z</time>
      </trkpt>
      <trkpt lat="45.92395" lon="1.14154">
        <ele>277.96</ele>
        <time>2018-09-30T09:00:43Z</time>
      </trkpt>
      <trkpt lat="45.92389" lon="1.14159">
        <ele>277.96</ele>
        <time>2018-09-30T09:00:44Z</time>
      </trkpt>
      <trkpt lat="45.92382" lon="1.14163">
        <ele>277.96</ele>
        <time>2018-09-30T09:00:45Z</time>
      </trkpt>
      <trkpt lat="45.92377" lon="1.14167">
        <ele>277.48</ele>
        <time>2018-09-30T09:00:46Z</time>
      </trkpt>
      <trkpt lat="45.92372" lon="1.14172">
        <ele>277.48</ele>
        <time>2018-09-30T09:00:47Z</time>
      </trkpt>
      <trkpt lat="45.92367" lon="1.14177">
        <ele>277.48</ele>
        <time>2018-09-30T09:00:48Z</time>
      </trkpt>
      <trkpt lat="45.92353" lon="1.14191">
        <ele>277.96</ele>
        <time>2018-09-30T09:00:51Z</time>
      </trkpt>
      <trkpt lat="45.92348" lon="1.14192">
        <ele>277.96</ele>
        <time>2018-09-30T09:00:52Z</time>
      </trkpt>
      <trkpt lat="45.92343" lon="1.14191">
        <ele>277.96</ele>
        <time>2018-09-30T09:00:53Z</time>
      </trkpt>
      <trkpt lat="45.92333" lon="1.1419">
        <ele>277.96</ele>
        <time>2018-09-30T09:00:55Z</time>
      </trkpt>
      <trkpt lat="45.92329" lon="1.14193">
        <ele>277.96</ele>
        <time>2018-09-30T09:00:56Z</time>
      </trkpt>
      <trkpt lat="45.92324" lon="1.14197">
        <ele>277.96</ele>
        <time>2018-09-30T09:00:57Z</time>
      </trkpt>
      <trkpt lat="45.92274" lon="1.14249">
        <ele>278.44</ele>
        <time>2018-09-30T09:01:08Z</time>
      </trkpt>
      <trkpt lat="45.9227" lon="1.14252">
        <ele>278.44</ele>
        <time>2018-09-30T09:01:09Z</time>
      </trkpt>
      <trkpt lat="45.92267" lon="1.14256">
        <ele>278.44</ele>
        <time>2018-09-30T09:01:10Z</time>
      </trkpt>
      <trkpt lat="45.92264" lon="1.1426">
        <ele>278.44</ele>
        <time>2018-09-30T09:01:11Z</time>
      </trkpt>
      <trkpt lat="45.9226" lon="1.14263">
        <ele>278.44</ele>
        <time>2018-09-30T09:01:12Z</time>
      </trkpt>
      <trkpt lat="45.92256" lon="1.14267">
        <ele>278.44</ele>
        <time>2018-09-30T09:01:13Z</time>
      </trkpt>
      <trkpt lat="45.92253" lon="1.14272">
        <ele>278.44</ele>
        <time>2018-09-30T09:01:14Z</time>
      </trkpt>
      <trkpt lat="45.92233" lon="1.14291">
        <ele>281.32</ele>
        <time>2018-09-30T09:01:23Z</time>
      </trkpt>
      <trkpt lat="45.92224" lon="1.14314">
        <ele>284.69</ele>
        <time>2018-09-30T09:01:30Z</time>
      </trkpt>
      <trkpt lat="45.92213" lon="1.14324">
        <ele>286.13</ele>
        <time>2018-09-30T09:01:35Z</time>
      </trkpt>
      <trkpt lat="45.92201" lon="1.14316">
        <ele>286.13</ele>
        <time>2018-09-30T09:01:40Z</time>
      </trkpt>
      <trkpt lat="45.92164" lon="1.14316">
        <ele>286.61</ele>
        <time>2018-09-30T09:01:55Z</time>
      </trkpt>
      <trkpt lat="45.92152" lon="1.14325">
        <ele>288.53</ele>
        <time>2018-09-30T09:02:04Z</time>
      </trkpt>
      <trkpt lat="45.92125" lon="1.14348">
        <ele>290.94</ele>
        <time>2018-09-30T09:02:22Z</time>
      </trkpt>
      <trkpt lat="45.92101" lon="1.14368">
        <ele>293.34</ele>
        <time>2018-09-30T09:02:40Z</time>
      </trkpt>
      <trkpt lat="45.92057" lon="1.14383">
        <ele>292.86</ele>
        <time>2018-09-30T09:02:52Z</time>
      </trkpt>
      <trkpt lat="45.92009" lon="1.14392">
        <ele>291.9</ele>
        <time>2018-09-30T09:03:06Z</time>
      </trkpt>
      <trkpt lat="45.91994" lon="1.1441">
        <ele>293.34</ele>
        <time>2018-09-30T09:03:14Z</time>
      </trkpt>
      <trkpt lat="45.91984" lon="1.14416">
        <ele>293.82</ele>
        <time>2018-09-30T09:03:20Z</time>
      </trkpt>
      <trkpt lat="45.91968" lon="1.14433">
        <ele>297.18</ele>
        <time>2018-09-30T09:03:35Z</time>
      </trkpt>
      <trkpt lat="45.91954" lon="1.14451">
        <ele>300.55</ele>
        <time>2018-09-30T09:03:54Z</time>
      </trkpt>
      <trkpt lat="45.91936" lon="1.14482">
        <ele>301.99</ele>
        <time>2018-09-30T09:04:16Z</time>
      </trkpt>
      <trkpt lat="45.91929" lon="1.14508">
        <ele>303.43</ele>
        <time>2018-09-30T09:04:29Z</time>
      </trkpt>
      <trkpt lat="45.91923" lon="1.1454">
        <ele>304.88</ele>
        <time>2018-09-30T09:04:41Z</time>
      </trkpt>
      <trkpt lat="45.91905" lon="1.14565">
        <ele>305.84</ele>
        <time>2018-09-30T09:04:50Z</time>
      </trkpt>
      <trkpt lat="45.91888" lon="1.14581">
        <ele>305.84</ele>
        <time>2018-09-30T09:04:53Z</time>
      </trkpt>
      <trkpt lat="45.91862" lon="1.14579">
        <ele>303.43</ele>
        <time>2018-09-30T09:04:58Z</time>
      </trkpt>
      <trkpt lat="45.91839" lon="1.1457">
        <ele>302.47</ele>
        <time>2018-09-30T09:05:03Z</time>
      </trkpt>
      <trkpt lat="45.91817" lon="1.14561">
        <ele>301.99</ele>
        <time>2018-09-30T09:05:07Z</time>
      </trkpt>
      <trkpt lat="45.91803" lon="1.14576">
        <ele>301.99</ele>
        <time>2018-09-30T09:05:11Z</time>
      </trkpt>
      <trkpt lat="45.91789" lon="1.14653">
        <ele>301.51</ele>
        <time>2018-09-30T09:05:25Z</time>
      </trkpt>
      <trkpt lat="45.91788" lon="1.14666">
        <ele>303.43</ele>
        <time>2018-09-30T09:05:32Z</time>
      </trkpt>
      <trkpt lat="45.91787" lon="1.14683">
        <ele>304.88</ele>
        <time>2018-09-30T09:05:37Z</time>
      </trkpt>
      <trkpt lat="45.91785" lon="1.14688">
        <ele>305.36</ele>
        <time>2018-09-30T09:05:39Z</time>
      </trkpt>
      <trkpt lat="45.91798" lon="1.14724">
        <ele>308.24</ele>
        <time>2018-09-30T09:05:48Z</time>
      </trkpt>
      <trkpt lat="45.91809" lon="1.14745">
        <ele>309.68</ele>
        <time>2018-09-30T09:05:53Z</time>
      </trkpt>
      <trkpt lat="45.9182" lon="1.14777">
        <ele>311.6</ele>
        <time>2018-09-30T09:05:59Z</time>
      </trkpt>
      <trkpt lat="45.91819" lon="1.14793">
        <ele>311.6</ele>
        <time>2018-09-30T09:06:03Z</time>
      </trkpt>
      <trkpt lat="45.9181" lon="1.14805">
        <ele>312.09</ele>
        <time>2018-09-30T09:06:08Z</time>
      </trkpt>
      <trkpt lat="45.91799" lon="1.14823">
        <ele>313.53</ele>
        <time>2018-09-30T09:06:14Z</time>
      </trkpt>
      <trkpt lat="45.9179" lon="1.14833">
        <ele>314.97</ele>
        <time>2018-09-30T09:06:19Z</time>
      </trkpt>
      <trkpt lat="45.91762" lon="1.14849">
        <ele>317.85</ele>
        <time>2018-09-30T09:06:33Z</time>
      </trkpt>
      <trkpt lat="45.91735" lon="1.14866">
        <ele>319.78</ele>
        <time>2018-09-30T09:06:43Z</time>
      </trkpt>
      <trkpt lat="45.91703" lon="1.1489">
        <ele>322.18</ele>
        <time>2018-09-30T09:06:55Z</time>
      </trkpt>
      <trkpt lat="45.91664" lon="1.14913">
        <ele>323.14</ele>
        <time>2018-09-30T09:07:07Z</time>
      </trkpt>
      <trkpt lat="45.91621" lon="1.14933">
        <ele>325.06</ele>
        <time>2018-09-30T09:07:19Z</time>
      </trkpt>
      <trkpt lat="45.91583" lon="1.14987">
        <ele>326.02</ele>
        <time>2018-09-30T09:07:30Z</time>
      </trkpt>
      <trkpt lat="45.91571" lon="1.15001">
        <ele>326.02</ele>
        <time>2018-09-30T09:07:33Z</time>
      </trkpt>
      <trkpt lat="45.91567" lon="1.15004">
        <ele>326.02</ele>
        <time>2018-09-30T09:07:34Z</time>
      </trkpt>
      <trkpt lat="45.91547" lon="1.1501">
        <ele>326.5</ele>
        <time>2018-09-30T09:07:38Z</time>
      </trkpt>
      <trkpt lat="45.91541" lon="1.15012">
        <ele>326.5</ele>
        <time>2018-09-30T09:07:39Z</time>
      </trkpt>
      <trkpt lat="45.91536" lon="1.15014">
        <ele>326.5</ele>
        <time>2018-09-30T09:07:40Z</time>
      </trkpt>
      <trkpt lat="45.91525" lon="1.15018">
        <ele>326.5</ele>
        <time>2018-09-30T09:07:42Z</time>
      </trkpt>
      <trkpt lat="45.91475" lon="1.1505">
        <ele>327.95</ele>
        <time>2018-09-30T09:07:53Z</time>
      </trkpt>
      <trkpt lat="45.91424" lon="1.15125">
        <ele>329.39</ele>
        <time>2018-09-30T09:08:06Z</time>
      </trkpt>
      <trkpt lat="45.91411" lon="1.15145">
        <ele>329.39</ele>
        <time>2018-09-30T09:08:09Z</time>
      </trkpt>
      <trkpt lat="45.91405" lon="1.1515">
        <ele>329.39</ele>
        <time>2018-09-30T09:08:10Z</time>
      </trkpt>
      <trkpt lat="45.914" lon="1.15156">
        <ele>328.91</ele>
        <time>2018-09-30T09:08:11Z</time>
      </trkpt>
      <trkpt lat="45.91368" lon="1.15183">
        <ele>328.43</ele>
        <time>2018-09-30T09:08:17Z</time>
      </trkpt>
      <trkpt lat="45.91364" lon="1.15188">
        <ele>328.43</ele>
        <time>2018-09-30T09:08:18Z</time>
      </trkpt>
      <trkpt lat="45.9136" lon="1.15193">
        <ele>328.43</ele>
        <time>2018-09-30T09:08:19Z</time>
      </trkpt>
      <trkpt lat="45.91357" lon="1.15199">
        <ele>328.43</ele>
        <time>2018-09-30T09:08:20Z</time>
      </trkpt>
      <trkpt lat="45.91355" lon="1.15203">
        <ele>328.43</ele>
        <time>2018-09-30T09:08:21Z</time>
      </trkpt>
      <trkpt lat="45.91353" lon="1.15204">
        <ele>328.43</ele>
        <time>2018-09-30T09:08:22Z</time>
      </trkpt>
      <trkpt lat="45.91351" lon="1.15203">
        <ele>328.43</ele>
        <time>2018-09-30T09:08:23Z</time>
      </trkpt>
      <trkpt lat="45.91354" lon="1.15195">
        <ele>328.43</ele>
        <time>2018-09-30T09:08:25Z</time>
      </trkpt>
      <trkpt lat="45.91356" lon="1.15193">
        <ele>328.43</ele>
        <time>2018-09-30T09:08:26Z</time>
      </trkpt>
      <trkpt lat="45.91359" lon="1.1519">
        <ele>328.91</ele>
        <time>2018-09-30T09:08:27Z</time>
      </trkpt>
      <trkpt lat="45.91363" lon="1.15187">
        <ele>328.91</ele>
        <time>2018-09-30T09:08:28Z</time>
      </trkpt>
      <trkpt lat="45.9141" lon="1.15145">
        <ele>328.43</ele>
        <time>2018-09-30T09:08:39Z</time>
      </trkpt>
      <trkpt lat="45.91413" lon="1.15141">
        <ele>328.43</ele>
        <time>2018-09-30T09:08:40Z</time>
      </trkpt>
      <trkpt lat="45.91419" lon="1.15131">
        <ele>328.43</ele>
        <time>2018-09-30T09:08:42Z</time>
      </trkpt>
      <trkpt lat="45.91457" lon="1.15071">
        <ele>328.43</ele>
        <time>2018-09-30T09:08:57Z</time>
      </trkpt>
      <trkpt lat="45.91488" lon="1.15041">
        <ele>329.87</ele>
        <time>2018-09-30T09:09:10Z</time>
      </trkpt>
      <trkpt lat="45.91486" lon="1.1504">
        <ele>329.87</ele>
        <time>2018-09-30T09:09:14Z</time>
      </trkpt>
      <trkpt lat="45.91462" lon="1.15063">
        <ele>329.87</ele>
        <time>2018-09-30T09:09:23Z</time>
      </trkpt>
      <trkpt lat="45.91424" lon="1.15124">
        <ele>329.87</ele>
        <time>2018-09-30T09:09:35Z</time>
      </trkpt>
      <trkpt lat="45.91372" lon="1.15178">
        <ele>327.95</ele>
        <time>2018-09-30T09:09:48Z</time>
      </trkpt>
      <trkpt lat="45.91358" lon="1.15194">
        <ele>327.95</ele>
        <time>2018-09-30T09:09:53Z</time>
      </trkpt>
      <trkpt lat="45.91358" lon="1.15197">
        <ele>327.95</ele>
        <time>2018-09-30T09:09:54Z</time>
      </trkpt>
      <trkpt lat="45.91359" lon="1.152">
        <ele>328.43</ele>
        <time>2018-09-30T09:09:56Z</time>
      </trkpt>
      <trkpt lat="45.91361" lon="1.15201">
        <ele>328.43</ele>
        <time>2018-09-30T09:09:57Z</time>
      </trkpt>
      <trkpt lat="45.91363" lon="1.15201">
        <ele>328.43</ele>
        <time>2018-09-30T09:09:58Z</time>
      </trkpt>
      <trkpt lat="45.91365" lon="1.15202">
        <ele>328.43</ele>
        <time>2018-09-30T09:09:59Z</time>
      </trkpt>
      <trkpt lat="45.91367" lon="1.15203">
        <ele>328.91</ele>
        <time>2018-09-30T09:10:00Z</time>
      </trkpt>
      <trkpt lat="45.91369" lon="1.15204">
        <ele>329.39</ele>
        <time>2018-09-30T09:10:01Z</time>
      </trkpt>
      <trkpt lat="45.91371" lon="1.15206">
        <ele>329.87</ele>
        <time>2018-09-30T09:10:02Z</time>
      </trkpt>
      <trkpt lat="45.91373" lon="1.15207">
        <ele>329.87</ele>
        <time>2018-09-30T09:10:03Z</time>
      </trkpt>
      <trkpt lat="45.91376" lon="1.15208">
        <ele>329.87</ele>
        <time>2018-09-30T09:10:04Z</time>
      </trkpt>
      <trkpt lat="45.91424" lon="1.15214">
        <ele>329.39</ele>
        <time>2018-09-30T09:10:17Z</time>
      </trkpt>
      <trkpt lat="45.91433" lon="1.15215">
        <ele>329.39</ele>
        <time>2018-09-30T09:10:19Z</time>
      </trkpt>
      <trkpt lat="45.91437" lon="1.15214">
        <ele>329.39</ele>
        <time>2018-09-30T09:10:20Z</time>
      </trkpt>
      <trkpt lat="45.91518" lon="1.1521">
        <ele>326.5</ele>
        <time>2018-09-30T09:10:34Z</time>
      </trkpt>
      <trkpt lat="45.91597" lon="1.15238">
        <ele>323.62</ele>
        <time>2018-09-30T09:10:46Z</time>
      </trkpt>
      <trkpt lat="45.91617" lon="1.15248">
        <ele>322.66</ele>
        <time>2018-09-30T09:10:49Z</time>
      </trkpt>
      <trkpt lat="45.91677" lon="1.15313">
        <ele>319.3</ele>
        <time>2018-09-30T09:10:59Z</time>
      </trkpt>
      <trkpt lat="45.91708" lon="1.15376">
        <ele>317.37</ele>
        <time>2018-09-30T09:11:05Z</time>
      </trkpt>
      <trkpt lat="45.91714" lon="1.15389">
        <ele>316.89</ele>
        <time>2018-09-30T09:11:06Z</time>
      </trkpt>
      <trkpt lat="45.91726" lon="1.1541">
        <ele>316.41</ele>
        <time>2018-09-30T09:11:08Z</time>
      </trkpt>
      <trkpt lat="45.91731" lon="1.15418">
        <ele>315.45</ele>
        <time>2018-09-30T09:11:09Z</time>
      </trkpt>
      <trkpt lat="45.91735" lon="1.15427">
        <ele>314.97</ele>
        <time>2018-09-30T09:11:10Z</time>
      </trkpt>
      <trkpt lat="45.91737" lon="1.15435">
        <ele>314.01</ele>
        <time>2018-09-30T09:11:11Z</time>
      </trkpt>
      <trkpt lat="45.91738" lon="1.15442">
        <ele>313.53</ele>
        <time>2018-09-30T09:11:12Z</time>
      </trkpt>
      <trkpt lat="45.91739" lon="1.15448">
        <ele>312.57</ele>
        <time>2018-09-30T09:11:13Z</time>
      </trkpt>
      <trkpt lat="45.91739" lon="1.15451">
        <ele>312.09</ele>
        <time>2018-09-30T09:11:14Z</time>
      </trkpt>
      <trkpt lat="45.91746" lon="1.15474">
        <ele>312.57</ele>
        <time>2018-09-30T09:11:24Z</time>
      </trkpt>
      <trkpt lat="45.91752" lon="1.15483">
        <ele>313.53</ele>
        <time>2018-09-30T09:11:28Z</time>
      </trkpt>
      <trkpt lat="45.91755" lon="1.15488">
        <ele>314.01</ele>
        <time>2018-09-30T09:11:30Z</time>
      </trkpt>
      <trkpt lat="45.91757" lon="1.15501">
        <ele>314.97</ele>
        <time>2018-09-30T09:11:34Z</time>
      </trkpt>
      <trkpt lat="45.91769" lon="1.15523">
        <ele>317.37</ele>
        <time>2018-09-30T09:11:42Z</time>
      </trkpt>
      <trkpt lat="45.91772" lon="1.15527">
        <ele>317.37</ele>
        <time>2018-09-30T09:11:44Z</time>
      </trkpt>
      <trkpt lat="45.9179" lon="1.15551">
        <ele>319.78</ele>
        <time>2018-09-30T09:11:54Z</time>
      </trkpt>
      <trkpt lat="45.91811" lon="1.15578">
        <ele>320.74</ele>
        <time>2018-09-30T09:12:03Z</time>
      </trkpt>
      <trkpt lat="45.91823" lon="1.15591">
        <ele>321.22</ele>
        <time>2018-09-30T09:12:07Z</time>
      </trkpt>
      <trkpt lat="45.91817" lon="1.15632">
        <ele>321.7</ele>
        <time>2018-09-30T09:12:18Z</time>
      </trkpt>
      <trkpt lat="45.91815" lon="1.15638">
        <ele>321.7</ele>
        <time>2018-09-30T09:12:19Z</time>
      </trkpt>
      <trkpt lat="45.91805" lon="1.15656">
        <ele>321.22</ele>
        <time>2018-09-30T09:12:22Z</time>
      </trkpt>
      <trkpt lat="45.91756" lon="1.15718">
        <ele>319.3</ele>
        <time>2018-09-30T09:12:37Z</time>
      </trkpt>
      <trkpt lat="45.91718" lon="1.15778">
        <ele>321.22</ele>
        <time>2018-09-30T09:12:56Z</time>
      </trkpt>
      <trkpt lat="45.91698" lon="1.15834">
        <ele>323.62</ele>
        <time>2018-09-30T09:13:13Z</time>
      </trkpt>
      <trkpt lat="45.91684" lon="1.15876">
        <ele>326.02</ele>
        <time>2018-09-30T09:13:28Z</time>
      </trkpt>
      <trkpt lat="45.9167" lon="1.15913">
        <ele>328.91</ele>
        <time>2018-09-30T09:13:42Z</time>
      </trkpt>
      <trkpt lat="45.9167" lon="1.15924">
        <ele>329.87</ele>
        <time>2018-09-30T09:14:00Z</time>
      </trkpt>
      <trkpt lat="45.91678" lon="1.15923">
        <ele>329.87</ele>
        <time>2018-09-30T09:14:09Z</time>
      </trkpt>
      <trkpt lat="45.91716" lon="1.15922">
        <ele>329.39</ele>
        <time>2018-09-30T09:14:18Z</time>
      </trkpt>
      <trkpt lat="45.9174" lon="1.1594">
        <ele>328.43</ele>
        <time>2018-09-30T09:14:24Z</time>
      </trkpt>
      <trkpt lat="45.91749" lon="1.1596">
        <ele>328.43</ele>
        <time>2018-09-30T09:14:27Z</time>
      </trkpt>
      <trkpt lat="45.91756" lon="1.15972">
        <ele>327.95</ele>
        <time>2018-09-30T09:14:29Z</time>
      </trkpt>
      <trkpt lat="45.91797" lon="1.16011">
        <ele>326.5</ele>
        <time>2018-09-30T09:14:35Z</time>
      </trkpt>
      <trkpt lat="45.91833" lon="1.16019">
        <ele>322.18</ele>
        <time>2018-09-30T09:14:40Z</time>
      </trkpt>
      <trkpt lat="45.91853" lon="1.16017">
        <ele>319.3</ele>
        <time>2018-09-30T09:14:43Z</time>
      </trkpt>
      <trkpt lat="45.91889" lon="1.16028">
        <ele>317.85</ele>
        <time>2018-09-30T09:14:48Z</time>
      </trkpt>
      <trkpt lat="45.91906" lon="1.16031">
        <ele>316.89</ele>
        <time>2018-09-30T09:14:50Z</time>
      </trkpt>
      <trkpt lat="45.91951" lon="1.16028">
        <ele>312.57</ele>
        <time>2018-09-30T09:14:55Z</time>
      </trkpt>
      <trkpt lat="45.92" lon="1.16037">
        <ele>309.2</ele>
        <time>2018-09-30T09:15:00Z</time>
      </trkpt>
      <trkpt lat="45.92065" lon="1.16075">
        <ele>305.84</ele>
        <time>2018-09-30T09:15:08Z</time>
      </trkpt>
      <trkpt lat="45.92077" lon="1.1608">
        <ele>304.39</ele>
        <time>2018-09-30T09:15:10Z</time>
      </trkpt>
      <trkpt lat="45.92125" lon="1.16091">
        <ele>303.91</ele>
        <time>2018-09-30T09:15:19Z</time>
      </trkpt>
      <trkpt lat="45.92156" lon="1.16104">
        <ele>303.91</ele>
        <time>2018-09-30T09:15:24Z</time>
      </trkpt>
      <trkpt lat="45.92184" lon="1.16107">
        <ele>303.91</ele>
        <time>2018-09-30T09:15:28Z</time>
      </trkpt>
      <trkpt lat="45.9222" lon="1.16102">
        <ele>301.99</ele>
        <time>2018-09-30T09:15:33Z</time>
      </trkpt>
      <trkpt lat="45.92224" lon="1.1612">
        <ele>297.18</ele>
        <time>2018-09-30T09:15:38Z</time>
      </trkpt>
      <trkpt lat="45.92221" lon="1.16125">
        <ele>296.7</ele>
        <time>2018-09-30T09:15:39Z</time>
      </trkpt>
      <trkpt lat="45.92218" lon="1.16131">
        <ele>296.22</ele>
        <time>2018-09-30T09:15:40Z</time>
      </trkpt>
      <trkpt lat="45.92212" lon="1.16155">
        <ele>292.86</ele>
        <time>2018-09-30T09:15:45Z</time>
      </trkpt>
      <trkpt lat="45.92215" lon="1.16167">
        <ele>289.97</ele>
        <time>2018-09-30T09:15:52Z</time>
      </trkpt>
      <trkpt lat="45.9222" lon="1.16186">
        <ele>287.57</ele>
        <time>2018-09-30T09:16:27Z</time>
      </trkpt>
      <trkpt lat="45.9222" lon="1.16211">
        <ele>287.57</ele>
        <time>2018-09-30T09:16:31Z</time>
      </trkpt>
      <trkpt lat="45.92221" lon="1.16217">
        <ele>287.57</ele>
        <time>2018-09-30T09:16:32Z</time>
      </trkpt>
      <trkpt lat="45.92223" lon="1.16223">
        <ele>287.57</ele>
        <time>2018-09-30T09:16:33Z</time>
      </trkpt>
      <trkpt lat="45.92225" lon="1.16228">
        <ele>287.57</ele>
        <time>2018-09-30T09:16:34Z</time>
      </trkpt>
      <trkpt lat="45.92228" lon="1.16234">
        <ele>287.57</ele>
        <time>2018-09-30T09:16:35Z</time>
      </trkpt>
      <trkpt lat="45.9223" lon="1.16239">
        <ele>287.57</ele>
        <time>2018-09-30T09:16:36Z</time>
      </trkpt>
      <trkpt lat="45.92237" lon="1.1625">
        <ele>287.09</ele>
        <time>2018-09-30T09:16:38Z</time>
      </trkpt>
      <trkpt lat="45.92241" lon="1.16254">
        <ele>287.09</ele>
        <time>2018-09-30T09:16:39Z</time>
      </trkpt>
      <trkpt lat="45.92276" lon="1.16289">
        <ele>286.61</ele>
        <time>2018-09-30T09:16:48Z</time>
      </trkpt>
      <trkpt lat="45.92283" lon="1.16297">
        <ele>287.09</ele>
        <time>2018-09-30T09:16:50Z</time>
      </trkpt>
      <trkpt lat="45.92328" lon="1.16341">
        <ele>287.09</ele>
        <time>2018-09-30T09:17:01Z</time>
      </trkpt>
      <trkpt lat="45.92331" lon="1.16346">
        <ele>287.57</ele>
        <time>2018-09-30T09:17:02Z</time>
      </trkpt>
      <trkpt lat="45.92334" lon="1.16351">
        <ele>287.57</ele>
        <time>2018-09-30T09:17:03Z</time>
      </trkpt>
      <trkpt lat="45.92336" lon="1.16357">
        <ele>287.57</ele>
        <time>2018-09-30T09:17:04Z</time>
      </trkpt>
      <trkpt lat="45.92338" lon="1.16363">
        <ele>287.57</ele>
        <time>2018-09-30T09:17:05Z</time>
      </trkpt>
      <trkpt lat="45.92339" lon="1.16369">
        <ele>287.57</ele>
        <time>2018-09-30T09:17:06Z</time>
      </trkpt>
      <trkpt lat="45.9234" lon="1.16376">
        <ele>287.57</ele>
        <time>2018-09-30T09:17:07Z</time>
      </trkpt>
      <trkpt lat="45.92341" lon="1.16383">
        <ele>287.57</ele>
        <time>2018-09-30T09:17:08Z</time>
      </trkpt>
      <trkpt lat="45.92342" lon="1.16389">
        <ele>287.57</ele>
        <time>2018-09-30T09:17:09Z</time>
      </trkpt>
      <trkpt lat="45.92342" lon="1.16396">
        <ele>287.57</ele>
        <time>2018-09-30T09:17:10Z</time>
      </trkpt>
      <trkpt lat="45.92343" lon="1.16403">
        <ele>287.57</ele>
        <time>2018-09-30T09:17:11Z</time>
      </trkpt>
      <trkpt lat="45.92348" lon="1.1646">
        <ele>287.57</ele>
        <time>2018-09-30T09:17:19Z</time>
      </trkpt>
      <trkpt lat="45.9235" lon="1.16466">
        <ele>287.09</ele>
        <time>2018-09-30T09:17:20Z</time>
      </trkpt>
      <trkpt lat="45.92354" lon="1.16477">
        <ele>287.09</ele>
        <time>2018-09-30T09:17:22Z</time>
      </trkpt>
      <trkpt lat="45.92357" lon="1.16482">
        <ele>287.09</ele>
        <time>2018-09-30T09:17:23Z</time>
      </trkpt>
      <trkpt lat="45.9236" lon="1.16486">
        <ele>287.09</ele>
        <time>2018-09-30T09:17:24Z</time>
      </trkpt>
      <trkpt lat="45.92407" lon="1.16516">
        <ele>288.05</ele>
        <time>2018-09-30T09:17:38Z</time>
      </trkpt>
      <trkpt lat="45.92439" lon="1.16556">
        <ele>289.49</ele>
        <time>2018-09-30T09:17:49Z</time>
      </trkpt>
      <trkpt lat="45.92448" lon="1.16569">
        <ele>290.46</ele>
        <time>2018-09-30T09:17:52Z</time>
      </trkpt>
      <trkpt lat="45.9245" lon="1.16574">
        <ele>290.94</ele>
        <time>2018-09-30T09:17:53Z</time>
      </trkpt>
      <trkpt lat="45.92452" lon="1.16579">
        <ele>290.94</ele>
        <time>2018-09-30T09:17:54Z</time>
      </trkpt>
      <trkpt lat="45.92476" lon="1.16629">
        <ele>294.3</ele>
        <time>2018-09-30T09:18:06Z</time>
      </trkpt>
      <trkpt lat="45.92484" lon="1.16686">
        <ele>296.7</ele>
        <time>2018-09-30T09:18:19Z</time>
      </trkpt>
      <trkpt lat="45.92479" lon="1.16745">
        <ele>297.18</ele>
        <time>2018-09-30T09:18:31Z</time>
      </trkpt>
      <trkpt lat="45.92449" lon="1.16816">
        <ele>297.18</ele>
        <time>2018-09-30T09:18:46Z</time>
      </trkpt>
      <trkpt lat="45.92436" lon="1.1685">
        <ele>297.67</ele>
        <time>2018-09-30T09:18:53Z</time>
      </trkpt>
      <trkpt lat="45.92431" lon="1.1686">
        <ele>297.67</ele>
        <time>2018-09-30T09:18:55Z</time>
      </trkpt>
      <trkpt lat="45.92426" lon="1.16872">
        <ele>297.67</ele>
        <time>2018-09-30T09:18:57Z</time>
      </trkpt>
      <trkpt lat="45.92422" lon="1.16885">
        <ele>297.67</ele>
        <time>2018-09-30T09:18:59Z</time>
      </trkpt>
      <trkpt lat="45.9242" lon="1.16892">
        <ele>297.18</ele>
        <time>2018-09-30T09:19:00Z</time>
      </trkpt>
      <trkpt lat="45.92419" lon="1.16899">
        <ele>297.18</ele>
        <time>2018-09-30T09:19:01Z</time>
      </trkpt>
      <trkpt lat="45.92419" lon="1.16907">
        <ele>297.18</ele>
        <time>2018-09-30T09:19:02Z</time>
      </trkpt>
      <trkpt lat="45.92419" lon="1.16915">
        <ele>297.18</ele>
        <time>2018-09-30T09:19:03Z</time>
      </trkpt>
      <trkpt lat="45.9242" lon="1.16923">
        <ele>297.18</ele>
        <time>2018-09-30T09:19:04Z</time>
      </trkpt>
      <trkpt lat="45.9242" lon="1.1693">
        <ele>296.7</ele>
        <time>2018-09-30T09:19:05Z</time>
      </trkpt>
      <trkpt lat="45.92421" lon="1.16937">
        <ele>296.22</ele>
        <time>2018-09-30T09:19:06Z</time>
      </trkpt>
      <trkpt lat="45.92432" lon="1.17016">
        <ele>295.74</ele>
        <time>2018-09-30T09:19:20Z</time>
      </trkpt>
      <trkpt lat="45.92441" lon="1.17077">
        <ele>298.63</ele>
        <time>2018-09-30T09:19:33Z</time>
      </trkpt>
      <trkpt lat="45.92451" lon="1.17126">
        <ele>300.07</ele>
        <time>2018-09-30T09:19:45Z</time>
      </trkpt>
      <trkpt lat="45.92454" lon="1.17148">
        <ele>300.07</ele>
        <time>2018-09-30T09:19:50Z</time>
      </trkpt>
      <trkpt lat="45.92452" lon="1.17151">
        <ele>300.07</ele>
        <time>2018-09-30T09:19:51Z</time>
      </trkpt>
      <trkpt lat="45.9245" lon="1.17153">
        <ele>300.07</ele>
        <time>2018-09-30T09:19:52Z</time>
      </trkpt>
      <trkpt lat="45.92447" lon="1.17154">
        <ele>300.07</ele>
        <time>2018-09-30T09:19:53Z</time>
      </trkpt>
      <trkpt lat="45.92444" lon="1.17153">
        <ele>300.07</ele>
        <time>2018-09-30T09:19:54Z</time>
      </trkpt>
      <trkpt lat="45.92442" lon="1.17153">
        <ele>300.07</ele>
        <time>2018-09-30T09:19:55Z</time>
      </trkpt>
      <trkpt lat="45.92435" lon="1.17151">
        <ele>300.07</ele>
        <time>2018-09-30T09:19:58Z</time>
      </trkpt>
      <trkpt lat="45.92433" lon="1.17153">
        <ele>300.07</ele>
        <time>2018-09-30T09:19:59Z</time>
      </trkpt>
      <trkpt lat="45.92432" lon="1.17156">
        <ele>300.07</ele>
        <time>2018-09-30T09:20:00Z</time>
      </trkpt>
      <trkpt lat="45.9243" lon="1.17158">
        <ele>300.07</ele>
        <time>2018-09-30T09:20:01Z</time>
      </trkpt>
      <trkpt lat="45.92428" lon="1.1716">
        <ele>300.07</ele>
        <time>2018-09-30T09:20:02Z</time>
      </trkpt>
      <trkpt lat="45.92425" lon="1.1716">
        <ele>300.07</ele>
        <time>2018-09-30T09:20:03Z</time>
      </trkpt>
      <trkpt lat="45.92424" lon="1.17161">
        <ele>300.07</ele>
        <time>2018-09-30T09:20:04Z</time>
      </trkpt>
      <trkpt lat="45.92421" lon="1.17161">
        <ele>300.55</ele>
        <time>2018-09-30T09:20:06Z</time>
      </trkpt>
      <trkpt lat="45.92419" lon="1.1716">
        <ele>300.55</ele>
        <time>2018-09-30T09:20:07Z</time>
      </trkpt>
      <trkpt lat="45.92413" lon="1.17158">
        <ele>301.03</ele>
        <time>2018-09-30T09:20:11Z</time>
      </trkpt>
      <trkpt lat="45.92405" lon="1.17162">
        <ele>301.03</ele>
        <time>2018-09-30T09:20:17Z</time>
      </trkpt>
      <trkpt lat="45.92404" lon="1.17166">
        <ele>301.03</ele>
        <time>2018-09-30T09:20:18Z</time>
      </trkpt>
      <trkpt lat="45.92404" lon="1.17169">
        <ele>301.03</ele>
        <time>2018-09-30T09:20:19Z</time>
      </trkpt>
      <trkpt lat="45.92393" lon="1.17188">
        <ele>301.03</ele>
        <time>2018-09-30T09:20:31Z</time>
      </trkpt>
    </trkseg>
  </trk>
</gpx>